GFSNW_850_thetae_000.txt.gz
Theta_e
314 314 314 312 312 312 316 317 320 315 317 320 316 319 315 312 313 313 315 315 315 316 316 317 316 316 316 312 313 317 315 317 319 319 317 312 315 317 316 319 320 319 318 319
314 314 314 313 312 311 316 318 317 315 316 325 321 316 315 315 315 314 315 316 315 315 317 318 316 316 314 313 313 317 316 317 320 320 315 313 315 315 315 316 316 318 321 321
315 315 314 313 313 313 313 316 322 316 316 315 319 319 318 318 315 315 314 315 315 317 318 316 317 317 315 314 314 314 314 318 319 321 319 318 319 318 317 317 319 320 320 321
315 315 315 314 313 313 313 312 315 311 322 318 317 318 317 319 319 316 314 316 316 317 318 315 317 316 316 315 314 315 316 318 317 317 317 316 316 316 316 317 317 318 319 318
316 315 315 315 314 314 314 316 316 311 314 313 315 314 317 317 316 315 316 317 316 316 316 316 317 316 317 316 315 316 314 317 314 315 315 316 316 316 316 316 316 317 318 319
315 316 316 315 315 315 314 313 312 312 309 313 315 316 316 315 315 314 315 316 317 317 316 315 315 315 315 315 316 316 315 315 316 318 315 314 316 316 316 316 316 316 318 317
314 315 315 315 316 316 315 314 313 313 321 313 316 312 315 316 316 316 315 315 317 315 313 314 314 314 314 314 314 314 315 312 315 317 317 320 317 315 314 314 314 314 315 315
316 315 314 314 315 315 315 315 314 314 315 315 312 313 314 314 314 314 315 315 315 314 314 317 315 316 314 314 312 313 314 315 317 319 319 317 315 315 314 313 313 313 313 313
316 316 316 316 314 315 315 315 316 315 314 315 315 315 315 317 317 315 313 313 313 313 315 313 318 317 316 315 315 307 309 311 314 319 318 319 316 315 309 308 314 311 310 312
316 316 316 316 315 315 314 315 316 316 315 315 314 315 317 314 315 316 314 313 312 311 309 316 316 317 314 316 317 315 313 312 312 314 315 316 315 309 308 315 317 310 313 312
315 316 316 316 316 315 316 315 315 316 316 315 315 314 315 313 314 317 313 314 312 310 312 313 314 313 316 315 315 317 317 316 315 315 317 318 312 308 313 313 313 313 312 312
313 315 316 316 316 315 315 316 316 315 315 315 314 314 313 313 314 313 313 314 313 313 315 312 312 310 309 314 315 312 314 314 319 316 317 315 313 311 312 313 313 312 312 311
312 313 314 315 316 315 315 315 315 315 314 314 314 313 313 313 312 312 313 312 312 312 312 312 308 311 310 314 314 314 312 312 313 314 313 314 313 313 313 312 312 311 311 311
312 312 313 313 314 315 314 314 314 314 313 311 312 313 313 312 312 312 312 313 313 313 313 312 306 310 310 312 312 312 312 310 311 313 313 312 312 312 312 311 311 311 310 310
311 311 312 313 314 314 313 313 313 313 313 309 310 311 312 312 311 312 312 312 312 313 311 306 309 311 310 311 311 312 311 311 312 315 313 313 313 311 310 310 310 310 309 309
312 311 310 310 311 312 312 309 310 311 310 311 305 309 310 311 311 311 311 311 311 312 312 310 311 312 310 307 312 312 312 311 311 312 311 310 310 310 310 310 310 309 309 308
311 310 311 311 311 309 311 307 307 309 309 308 303 305 306 309 309 309 310 310 310 310 311 310 310 310 310 306 311 311 311 310 309 309 310 310 309 309 309 308 305 304 304 303
305 305 306 305 306 306 307 306 306 306 306 304 301 304 304 303 305 306 307 307 308 308 308 309 309 309 309 310 310 308 308 308 308 308 309 309 308 307 303 301 300 300 301 302
302 302 301 302 301 301 301 302 303 302 303 301 300 305 307 303 304 304 304 305 306 307 306 308 309 310 310 309 307 307 307 307 307 308 306 305 301 300 300 299 299 300 301 299
300 300 300 299 300 299 300 300 300 300 300 300 301 303 306 305 303 303 304 303 304 307 307 306 306 308 307 307 307 306 307 307 305 302 300 300 299 299 299 299 299 299 298 297
299 299 299 299 301 299 300 300 300 300 302 301 302 303 304 302 303 305 303 306 303 307 307 307 308 307 306 305 305 303 302 299 298 298 298 298 298 298 298 297 298 298 296 295
296 298 299 299 300 300 300 301 301 301 303 302 302 301 301 302 302 304 302 305 305 307 299 302 304 306 301 301 299 299 299 299 298 298 297 296 297 298 297 296 296 294 294 293
296 297 298 299 298 300 299 300 303 304 301 299 299 301 300 300 299 299 301 304 305 298 302 304 305 301 299 298 298 298 298 298 298 298 296 296 297 296 295 295 295 294 293 290
296 296 297 297 299 299 300 301 301 298 298 298 296 298 298 299 300 301 304 303 300 303 302 304 302 299 298 298 298 297 297 298 298 296 295 296 297 296 295 295 292 290 289 289
295 295 297 297 296 295 295 295 296 297 297 296 298 297 297 299 299 300 301 301 301 302 303 303 300 297 296 297 297 297 297 297 297 295 295 295 295 294 292 289 290 289 289 289
293 293 295 294 294 296 293 294 295 295 296 296 295 295 296 298 300 300 301 301 300 302 301 300 297 297 296 296 296 297 297 297 297 295 295 294 294 292 289 290 290 289 289 289
292 292 292 294 293 293 294 292 294 294 294 296 295 295 296 297 297 298 299 300 302 299 298 297 297 295 295 294 295 296 297 297 296 295 294 294 292 290 289 290 289 289 289 290

GFSNW_850_thetae_006.txt.gz
Theta_e
310 314 314 314 314 314 318 324 327 316 318 327 324 323 320 316 318 318 319 320 320 321 321 322 321 320 320 317 317 320 320 320 323 322 321 320 319 321 321 324 324 323 324 323
311 314 314 314 314 315 321 323 323 319 324 331 326 320 319 319 319 319 320 320 320 320 321 322 321 321 319 318 317 319 318 322 322 321 322 320 321 320 320 321 321 323 324 323
313 314 314 315 314 314 317 322 324 323 323 323 323 322 322 321 319 319 319 320 320 321 321 321 321 320 319 318 318 317 316 319 320 323 322 321 321 320 319 320 321 321 322 321
315 315 315 315 315 314 320 320 321 319 328 323 323 322 321 322 322 320 319 320 320 320 320 320 319 320 320 319 317 318 318 321 320 319 319 318 318 318 318 319 319 319 319 320
316 316 316 315 315 315 321 322 322 320 319 319 321 317 320 320 320 318 320 319 319 319 321 320 321 320 320 320 319 320 319 319 318 318 318 318 317 318 318 317 317 318 319 319
316 316 316 316 315 315 321 319 316 324 318 319 321 321 319 319 318 319 318 318 320 318 319 319 318 318 318 318 320 320 320 318 315 318 316 315 317 316 318 318 318 318 318 317
316 316 316 316 316 316 320 320 320 315 323 322 320 318 318 319 318 319 319 318 317 318 319 318 318 317 316 316 316 317 317 314 312 316 314 319 317 317 316 317 317 317 316 315
315 315 314 315 315 316 319 318 320 318 313 321 319 319 318 318 318 318 318 317 319 319 318 317 313 319 315 314 316 317 317 314 318 318 319 317 316 316 316 316 316 315 316 316
315 315 315 315 315 314 315 321 317 321 315 319 318 318 318 321 322 321 319 319 318 318 318 314 316 318 316 316 315 315 314 312 321 321 319 318 316 314 314 315 317 316 315 315
315 316 316 316 316 316 316 320 318 319 318 318 319 319 321 318 319 321 319 318 317 317 315 315 314 316 314 315 315 315 317 313 316 317 317 316 315 315 315 318 318 314 315 314
316 316 316 316 316 316 316 317 318 317 319 318 319 319 319 318 318 322 318 318 318 315 314 313 316 315 317 316 315 316 315 316 316 313 317 318 315 317 316 315 315 314 313 312
316 316 316 316 316 316 316 316 317 317 317 318 319 318 318 318 318 317 317 317 317 316 317 312 313 313 313 310 315 312 314 315 316 315 316 314 314 314 315 313 314 312 312 312
314 315 315 316 316 316 316 316 316 316 316 316 315 315 315 316 316 317 317 317 317 316 316 315 309 311 314 314 314 314 313 312 314 313 313 313 313 313 313 313 312 311 311 310
313 313 313 313 313 313 314 315 316 316 315 312 314 314 314 314 315 317 316 316 316 316 315 315 307 308 310 312 312 313 312 312 312 312 312 312 312 313 312 312 312 310 309 307
312 312 312 312 313 313 313 313 313 314 315 311 312 312 313 313 314 315 315 315 315 316 316 310 309 312 311 312 311 311 311 312 312 313 312 312 312 312 312 311 310 307 305 303
311 312 312 312 312 313 312 312 312 313 314 313 306 311 311 312 312 314 314 315 315 315 315 313 313 313 311 308 312 311 312 311 312 312 311 311 311 311 310 308 305 304 302 302
312 313 312 312 312 313 312 311 310 311 311 311 310 308 307 309 311 312 312 313 314 314 314 314 312 311 311 305 311 311 311 311 310 310 310 308 309 309 307 304 303 302 302 301
309 311 312 313 313 310 309 310 310 309 310 309 306 304 305 307 308 309 310 310 311 312 311 310 309 310 309 308 310 310 310 309 309 308 308 307 305 304 303 302 301 301 301 299
309 310 311 312 307 307 306 306 307 307 308 304 300 305 308 306 307 307 306 306 304 306 306 308 308 309 310 310 309 309 309 308 308 306 304 303 302 302 301 301 300 301 300 296
305 306 306 304 303 302 303 303 303 303 301 301 300 303 308 307 305 303 304 303 303 306 306 307 309 309 309 308 308 307 306 304 303 302 302 301 301 300 300 300 300 300 298 294
302 301 301 301 302 302 302 300 300 300 300 299 301 303 307 305 304 304 302 303 303 307 307 310 309 308 307 306 306 304 302 301 301 301 300 300 299 299 299 299 299 299 295 294
301 301 300 300 301 301 301 302 301 302 304 303 303 303 303 303 303 304 302 304 304 304 304 304 306 306 305 304 303 301 301 300 300 299 298 297 297 298 298 297 297 299 296 295
299 298 299 299 299 301 301 303 304 305 302 300 301 301 301 300 300 301 300 303 303 302 305 305 306 305 304 302 300 300 299 298 298 296 295 296 297 297 297 296 295 297 295 295
295 298 299 300 300 300 302 303 301 298 299 300 300 299 301 299 299 299 300 303 303 304 304 305 306 302 301 300 299 299 298 297 296 295 295 295 296 297 297 297 295 295 294 291
295 296 299 299 299 300 298 298 299 298 297 299 299 299 299 299 299 300 301 301 301 302 303 306 302 300 299 298 298 297 297 296 296 295 295 295 296 296 296 296 295 294 292 289
295 295 297 298 298 298 296 296 298 298 298 296 297 298 297 297 299 299 299 300 300 302 305 300 299 298 298 296 295 296 297 296 296 295 295 296 296 296 296 295 294 293 289 290
293 295 295 297 296 297 296 296 296 298 296 297 297 296 297 298 299 298 299 300 301 299 298 297 297 297 297 296 295 295 295 295 295 295 295 295 295 294 294 294 292 290 290 290

GFSNW_850_thetae_009.txt.gz
Theta_e
309 312 314 314 315 318 323 325 324 316 325 327 326 318 319 317 318 318 319 320 320 321 321 321 321 321 320 317 317 320 317 317 315 319 318 318 317 319 319 319 322 316 317 321
309 311 314 314 314 316 321 323 323 321 323 318 315 319 319 319 320 319 320 320 320 319 321 321 321 320 318 317 318 317 316 314 314 317 318 317 319 318 318 317 311 317 315 318
309 312 314 315 315 315 320 322 311 322 323 323 320 320 320 320 319 319 319 319 319 320 320 319 319 319 319 318 318 317 316 317 315 316 318 318 318 317 316 316 310 316 316 317
311 314 315 315 315 315 322 320 320 319 316 320 321 320 321 321 321 319 319 320 319 319 316 317 319 320 319 318 317 317 316 315 317 317 318 318 317 317 316 317 315 316 316 316
312 315 315 315 315 316 321 321 323 320 318 318 319 317 319 320 318 318 320 319 320 318 318 320 320 318 318 318 318 316 317 313 316 316 317 318 316 315 315 314 314 315 315 315
314 316 316 316 315 319 321 318 318 322 318 318 314 316 319 319 318 318 318 318 318 314 319 319 318 318 318 317 316 314 314 311 309 319 314 313 310 312 314 315 313 314 313 313
315 316 316 316 316 316 322 320 321 316 309 316 317 319 318 318 318 319 319 317 317 319 319 318 317 316 314 314 315 315 309 306 308 317 310 317 313 313 313 313 313 313 314 314
316 316 315 315 316 316 317 318 320 316 307 319 320 319 319 318 318 319 318 318 318 318 317 308 309 307 306 308 313 313 314 306 311 315 314 314 314 314 314 312 312 315 314 314
315 315 315 314 314 315 316 318 319 321 315 311 318 318 318 313 312 317 319 319 318 317 313 310 310 306 310 312 313 313 310 308 310 309 311 312 310 312 315 314 314 313 314 314
315 315 315 315 316 316 315 318 319 319 319 318 319 319 315 319 319 309 318 318 318 317 307 311 313 308 312 310 307 306 306 306 309 305 311 309 310 312 315 312 315 313 313 313
315 316 316 316 316 316 317 316 317 317 318 318 318 319 318 319 319 308 317 314 314 309 309 310 310 311 307 310 311 309 307 306 311 305 314 311 312 311 309 311 312 311 312 312
315 316 315 316 316 316 316 316 316 317 317 317 318 318 317 318 318 318 317 316 316 314 306 305 306 310 308 309 314 311 311 309 307 309 308 311 311 311 311 311 311 312 312 311
315 315 315 316 316 316 316 316 316 316 315 315 315 315 314 316 317 317 317 317 316 316 315 311 307 311 307 312 311 309 312 312 309 308 311 311 311 311 311 311 312 311 310 308
314 315 315 315 315 315 315 315 315 315 315 313 313 314 313 313 314 314 316 316 316 316 316 316 305 308 310 309 310 311 311 311 310 310 310 310 310 310 311 311 310 307 305 303
313 313 313 313 313 313 313 313 313 313 315 311 312 313 313 313 313 313 313 314 316 316 315 311 307 310 309 308 307 308 311 311 310 311 310 310 311 310 309 308 305 304 302 302
311 312 313 313 313 313 313 313 312 313 312 313 306 312 312 312 312 312 312 313 315 315 315 314 314 313 312 307 312 311 311 311 311 311 311 310 309 308 307 306 302 302 301 301
311 311 311 312 312 311 312 312 311 311 312 312 310 307 308 310 310 311 312 313 314 314 314 314 313 312 312 304 312 311 311 311 310 310 310 308 307 305 302 302 301 301 301 301
309 310 311 311 311 311 310 312 312 311 310 310 307 305 306 308 308 310 310 311 311 312 313 310 310 310 310 308 310 310 310 310 309 308 306 303 303 302 301 300 300 300 300 300
307 309 310 311 308 307 307 308 309 309 309 307 302 304 307 306 307 308 307 307 304 307 306 307 308 304 308 308 309 309 309 308 305 304 302 301 300 300 300 299 298 299 299 299
308 308 308 305 305 305 305 304 305 306 304 303 300 302 305 306 306 304 304 304 302 304 304 306 304 306 308 308 308 308 304 302 302 302 300 299 299 298 297 298 298 297 297 298
304 303 302 302 302 302 302 301 300 300 299 299 300 302 304 305 303 302 302 301 301 304 299 299 298 302 305 306 306 304 302 301 300 299 299 296 295 294 294 295 296 297 297 296
302 302 301 301 301 301 301 300 299 300 300 301 301 302 303 303 303 302 301 302 301 302 302 302 301 300 304 304 302 300 300 299 298 298 297 294 294 293 294 296 296 297 296 295
300 299 299 299 299 300 298 299 302 299 302 301 301 301 301 300 301 300 299 301 301 300 301 301 298 303 301 300 300 299 299 298 298 297 295 295 294 293 294 295 295 297 296 295
296 297 292 294 296 296 298 298 300 298 300 301 300 300 300 298 298 298 298 296 299 301 301 297 296 301 300 300 299 298 296 295 296 296 296 295 293 293 294 295 295 296 295 295
294 295 294 295 299 298 298 298 298 299 298 298 298 298 298 297 293 296 293 295 299 295 294 294 299 298 298 297 297 296 295 295 295 295 294 292 293 294 295 294 294 294 294 293
294 295 294 297 298 296 296 297 298 298 296 296 297 296 290 290 291 292 293 294 294 293 296 297 296 296 296 295 295 295 294 294 294 293 292 293 294 295 295 295 294 293 293 292
293 295 295 297 297 297 297 296 297 297 294 291 297 290 291 294 290 292 295 292 291 297 296 295 295 294 294 294 294 294 293 293 293 292 292 294 295 295 295 294 292 293 291 291

GFSNW_850_thetae_012.txt.gz
Theta_e
310 311 314 315 315 320 324 325 316 318 325 322 319 314 317 317 317 318 319 319 319 319 319 320 320 320 318 317 317 318 316 313 313 317 315 316 317 317 316 312 319 313 317 318
310 310 314 315 316 317 322 323 322 322 324 313 309 317 318 318 319 318 319 319 318 318 319 319 319 319 318 316 317 317 315 312 312 313 313 315 317 316 316 315 309 314 311 313
309 310 313 315 315 317 321 320 312 322 322 323 316 317 319 318 319 318 319 318 318 318 318 317 317 318 318 317 317 317 315 314 313 313 314 316 317 316 315 314 309 315 316 315
309 310 313 315 315 317 321 320 316 319 312 316 317 318 320 319 320 318 318 318 318 318 316 316 319 318 317 317 317 316 314 313 315 315 315 316 317 317 316 316 314 313 315 314
309 311 314 315 315 318 321 321 321 319 317 319 316 314 318 319 317 318 318 318 317 316 318 318 319 317 316 316 316 315 314 312 315 315 315 315 316 316 314 314 314 313 313 312
309 312 315 315 315 320 317 318 320 319 316 315 310 312 317 317 318 318 317 317 316 312 318 318 318 318 317 317 315 312 313 308 308 316 311 312 314 312 312 312 312 311 311 311
311 314 315 316 315 320 319 319 319 317 305 310 312 318 318 318 317 317 317 317 314 318 318 318 317 316 312 311 312 314 307 304 305 313 311 316 313 311 311 311 311 311 313 313
313 315 316 316 316 316 319 318 319 316 304 313 319 318 318 317 317 318 318 318 318 318 316 306 305 304 305 305 313 313 311 307 309 310 314 313 312 312 313 313 312 313 313 312
315 315 315 316 315 316 316 316 317 318 315 310 318 317 317 311 310 314 318 318 317 317 308 303 303 305 307 311 312 311 307 305 304 310 313 314 308 310 314 314 311 313 312 311
315 315 315 315 315 314 315 316 317 318 318 318 319 317 313 318 316 307 315 318 317 316 306 306 306 307 310 310 306 304 304 306 304 300 308 305 307 310 312 305 309 311 310 310
315 315 315 315 315 316 316 316 317 317 317 317 318 318 317 318 318 307 316 314 312 307 309 308 305 309 306 308 308 307 307 305 309 305 309 311 310 310 310 309 310 310 310 311
315 315 315 315 316 316 316 316 316 317 317 317 317 317 317 317 318 318 317 316 314 314 306 306 302 307 306 306 313 309 311 309 307 307 306 308 310 310 310 310 310 310 310 309
314 315 315 315 315 316 316 316 316 316 316 315 315 314 314 316 317 317 317 317 317 316 315 309 305 309 305 312 311 310 309 310 306 308 310 310 310 310 310 310 310 309 306 304
314 314 315 315 315 315 315 316 315 315 315 314 314 314 313 313 314 314 314 315 316 316 316 314 305 308 310 309 312 311 311 311 310 311 310 310 310 310 310 309 307 305 303 302
313 315 315 315 315 315 315 314 314 314 315 311 313 313 313 313 313 313 313 314 315 314 315 311 307 309 308 306 305 308 311 311 310 312 311 310 310 309 308 307 304 302 302 301
313 313 313 313 313 313 312 312 313 313 313 313 306 312 312 312 313 312 312 311 312 314 314 314 314 313 311 308 310 311 311 311 311 311 311 311 309 306 305 302 301 300 300 299
312 312 311 313 313 313 312 312 312 312 312 313 311 309 309 309 310 311 311 311 311 312 313 314 314 313 312 304 312 312 311 312 311 311 310 309 307 302 301 300 300 299 298 299
310 310 311 313 312 312 311 312 312 311 312 311 306 305 307 307 308 309 310 311 311 312 312 310 311 310 311 309 311 311 311 311 310 307 305 303 301 301 300 299 297 298 298 297
308 310 310 310 309 308 309 310 310 310 311 308 304 305 307 306 308 308 307 307 304 307 304 306 308 303 308 308 309 310 309 308 305 302 301 300 298 295 294 294 294 296 296 297
307 308 308 306 306 306 306 305 307 308 305 304 301 303 304 306 306 304 304 303 302 304 303 305 304 307 308 308 308 308 304 302 301 300 299 298 295 294 292 292 293 294 294 295
306 305 303 303 302 304 304 303 302 301 300 300 300 301 303 305 304 302 302 301 301 303 298 304 300 302 303 304 302 302 301 300 299 299 297 295 294 294 292 292 292 294 294 295
303 304 302 302 302 301 300 300 299 299 299 300 299 301 303 303 303 301 300 301 300 300 298 298 302 297 299 299 299 299 299 298 297 297 296 295 295 294 292 293 294 294 294 295
302 301 300 299 299 297 295 300 300 299 299 301 301 301 301 301 300 299 294 297 295 297 300 300 296 300 299 299 298 297 296 296 295 295 294 295 295 293 292 293 293 294 294 294
296 297 294 294 294 295 294 296 299 299 300 301 300 299 298 298 296 298 298 295 297 298 300 296 294 298 297 296 295 294 294 294 294 292 293 294 293 292 291 292 294 295 295 294
294 295 293 294 297 298 298 298 298 299 299 298 297 297 298 294 291 295 294 292 298 298 293 292 297 296 295 294 294 294 294 293 293 293 293 293 292 292 292 293 294 294 293 292
293 294 293 297 296 296 296 297 298 298 297 297 297 292 288 289 288 289 291 291 292 291 291 296 295 295 294 294 294 293 292 292 293 293 292 293 293 293 293 293 293 293 292 292
293 294 295 296 296 296 295 296 297 298 295 290 293 288 291 291 286 289 292 289 289 296 295 295 295 294 293 292 292 292 293 293 292 292 292 292 293 293 293 293 293 292 292 292

GFSNW_850_thetae_015.txt.gz
Theta_e
310 311 315 315 317 323 326 325 314 323 325 321 314 313 315 316 317 318 318 318 318 319 318 319 319 319 317 316 317 317 315 312 312 316 313 314 315 315 314 315 318 312 312 315
310 310 314 315 316 322 321 320 321 322 324 312 307 316 317 318 317 317 317 318 317 317 318 318 318 318 317 316 316 316 314 311 311 312 312 312 316 315 314 312 308 315 313 312
310 310 312 315 316 320 321 319 311 321 321 318 314 316 317 318 318 318 318 317 317 317 316 315 317 318 317 317 317 316 315 312 311 313 312 313 315 315 314 313 309 313 314 314
309 309 311 314 315 318 320 318 315 318 311 316 317 317 318 318 318 317 317 317 316 317 315 316 319 317 316 316 316 315 312 313 313 313 313 313 314 315 315 315 313 315 314 313
309 309 311 314 315 318 320 319 318 317 316 318 315 312 317 319 316 317 317 316 316 316 316 316 318 317 316 316 315 314 312 311 313 313 313 314 315 314 313 313 313 312 311 311
308 309 311 314 315 317 318 320 320 317 313 312 309 310 316 317 317 317 317 316 314 312 317 318 318 317 317 316 314 311 312 307 310 310 310 309 308 310 312 312 311 311 310 310
309 310 312 315 315 318 316 318 317 315 305 306 310 317 316 316 316 316 316 316 314 316 318 318 316 314 311 310 310 314 306 305 305 311 311 313 311 310 310 310 310 309 311 312
310 311 313 315 316 317 317 317 317 315 303 309 317 317 317 316 316 317 316 317 316 318 317 305 305 305 303 304 311 311 307 305 309 313 312 310 311 310 312 312 311 311 312 311
312 313 314 315 316 316 316 316 316 315 315 309 317 316 316 308 308 312 317 317 317 317 307 302 304 305 306 310 310 308 305 302 303 309 313 313 308 307 312 312 312 311 312 310
313 314 315 315 315 315 316 316 316 316 316 317 317 316 311 316 314 305 314 317 316 315 306 306 301 305 308 309 304 304 304 306 307 307 311 306 305 308 309 308 308 312 310 309
314 315 315 315 314 314 314 315 316 316 316 316 317 317 318 317 317 307 315 313 311 306 305 302 302 297 304 307 307 306 306 305 304 304 307 309 308 310 310 309 310 309 309 310
314 315 315 315 315 315 316 316 316 316 316 316 316 316 317 317 317 317 315 315 313 314 306 305 301 306 301 303 312 307 311 308 306 306 308 308 310 310 310 309 309 309 309 307
314 315 315 315 315 316 316 316 316 316 315 315 315 315 316 316 317 317 318 317 317 315 314 308 304 309 303 308 310 310 310 310 307 309 309 309 310 311 310 310 310 309 306 303
314 314 314 315 315 315 315 315 315 315 315 313 314 314 314 313 313 314 314 314 315 316 315 313 304 307 309 308 311 310 311 310 310 310 311 311 311 310 310 310 308 304 303 301
313 313 313 314 315 315 315 315 315 315 315 311 313 313 313 313 313 313 313 313 313 314 314 308 306 310 308 307 305 307 311 310 310 311 312 311 310 310 308 307 303 301 299 297
313 313 313 314 315 315 314 314 313 313 314 314 306 313 312 312 312 313 314 314 314 313 313 312 312 313 311 307 309 311 312 312 312 311 311 311 310 306 302 300 299 299 299 298
313 313 313 314 314 314 313 312 312 312 313 312 311 309 310 310 311 311 312 312 312 312 312 312 312 311 312 304 312 312 312 312 311 311 310 308 303 300 299 298 299 297 296 298
312 312 313 313 312 312 312 312 312 312 312 311 305 305 308 307 308 309 309 310 310 311 311 310 308 310 310 308 311 311 310 309 308 307 306 304 300 297 295 293 293 293 292 293
311 311 311 311 310 309 309 311 311 311 311 311 304 305 308 307 307 308 307 307 304 306 305 305 307 304 308 308 308 307 307 306 305 302 299 297 296 294 294 294 293 292 291 292
308 309 308 306 307 306 306 307 308 308 306 305 302 303 304 307 307 306 305 304 302 305 303 304 303 305 305 301 303 302 301 301 300 299 300 296 295 295 294 294 292 292 293 294
307 306 304 302 304 305 306 304 303 302 301 300 300 301 303 304 304 303 304 301 301 302 297 303 299 298 298 298 299 298 298 298 297 297 297 296 294 294 294 294 291 292 293 294
305 305 303 303 303 303 301 301 299 299 300 299 299 301 303 303 303 303 299 301 299 296 296 300 300 297 298 299 299 298 297 295 295 294 294 292 292 294 294 293 292 291 293 294
304 303 302 300 299 298 296 300 299 299 298 300 301 300 301 301 301 299 297 299 298 297 298 297 296 299 298 297 296 294 293 294 293 291 292 292 293 293 293 293 292 292 293 293
299 299 295 292 292 296 293 292 296 299 300 300 301 298 298 297 296 297 297 293 296 299 296 295 295 297 296 294 293 293 293 293 292 292 292 292 292 291 292 292 292 293 293 292
294 295 290 293 296 296 298 298 299 299 299 299 298 297 296 294 290 295 294 294 297 298 293 291 296 294 294 294 294 293 292 292 293 292 292 291 292 292 292 292 292 293 292 292
293 294 292 295 296 295 297 297 297 298 298 297 297 290 286 288 286 291 293 290 291 290 290 295 294 294 294 293 292 292 292 293 292 291 291 292 292 292 293 293 293 292 292 292
293 293 295 296 296 296 297 297 297 297 296 289 292 288 290 289 284 287 291 288 288 295 293 294 294 293 292 292 292 293 293 292 291 292 292 292 292 292 292 292 292 291 292 292

GFSNW_850_thetae_018.txt.gz
Theta_e
310 310 314 315 321 324 325 320 314 323 325 317 310 312 314 316 317 317 317 316 317 318 317 318 318 318 316 315 316 316 313 310 312 315 313 313 313 315 312 310 314 311 310 313
309 309 313 315 318 323 321 320 322 322 323 311 306 315 316 317 317 316 316 317 316 316 316 317 317 317 315 316 315 315 313 310 310 308 312 311 314 314 312 309 307 314 314 311
309 310 311 315 316 321 320 319 313 320 318 315 313 315 316 317 318 316 316 316 316 315 315 314 317 317 316 316 316 315 314 311 310 310 310 310 313 314 313 313 313 313 313 313
308 309 310 314 315 320 320 316 315 317 310 315 315 315 316 317 317 316 317 316 316 315 314 316 318 316 315 315 315 314 311 314 311 311 311 311 313 313 313 313 312 315 313 312
308 309 310 313 315 318 318 317 318 316 315 316 314 310 317 318 316 316 317 316 315 315 315 315 315 316 315 314 314 314 310 310 312 311 310 310 311 311 312 312 312 312 313 312
308 309 309 312 315 317 318 319 317 318 310 309 308 309 315 315 315 316 316 315 313 311 315 317 317 317 316 314 314 311 311 307 306 307 308 307 306 308 310 311 310 310 311 309
308 309 310 312 315 316 317 318 317 315 305 304 309 316 315 314 315 315 315 315 313 315 317 317 316 314 309 309 311 312 305 303 305 306 305 310 310 309 310 310 308 308 307 309
308 309 311 314 315 316 317 316 316 314 302 308 315 316 315 315 316 316 315 317 315 317 316 306 306 304 302 303 307 308 307 304 308 313 311 309 312 309 311 310 309 309 309 311
309 310 312 314 315 316 318 317 316 315 314 309 316 315 315 307 307 311 316 316 316 316 306 302 305 306 305 310 309 306 304 300 303 308 312 312 308 307 312 311 310 308 312 310
310 312 314 314 315 316 315 315 315 315 314 315 316 315 312 315 313 304 312 316 315 315 303 306 300 305 306 309 303 301 303 306 311 310 312 310 306 307 308 308 309 311 310 310
312 313 314 314 314 315 315 315 315 316 315 315 316 316 316 315 315 307 313 312 310 305 305 303 301 296 304 306 307 305 306 304 303 304 307 307 307 309 309 309 309 310 310 309
313 314 314 314 314 314 314 315 315 315 315 315 316 317 317 317 317 317 315 313 312 312 305 303 299 300 297 302 310 306 308 308 308 308 306 307 308 309 310 310 309 309 308 308
314 314 315 315 315 315 315 315 316 316 315 315 315 315 316 316 316 316 317 314 315 315 313 307 301 304 301 309 306 307 308 309 307 308 309 308 311 311 312 310 309 309 306 303
314 314 314 315 315 315 315 316 316 315 315 313 314 313 313 314 314 314 315 317 316 315 314 311 303 307 308 308 310 310 310 310 309 310 311 311 311 311 310 310 307 304 301 300
313 314 314 314 314 315 315 315 315 315 315 311 313 312 312 312 312 313 313 314 314 315 313 308 306 309 308 306 305 307 311 310 310 311 311 311 310 308 307 304 299 297 297 297
312 312 313 314 313 314 313 314 313 313 313 313 307 312 312 312 312 312 313 313 313 314 314 312 312 313 311 307 308 311 311 311 312 311 311 309 306 305 302 300 297 296 294 293
312 312 313 314 313 314 314 313 312 312 313 313 311 309 311 310 310 310 311 312 313 313 312 311 312 311 311 303 312 311 311 311 311 310 309 307 303 302 297 293 294 294 295 293
312 312 312 313 314 313 313 314 312 312 313 311 306 305 308 308 308 308 309 310 310 310 310 309 308 309 309 308 308 307 306 306 306 305 305 301 297 294 294 295 295 294 292 291
312 312 313 313 312 312 312 312 313 312 311 312 305 306 308 307 307 308 307 307 304 306 305 306 306 303 308 301 300 300 302 304 298 297 297 297 297 296 295 294 294 294 292 291
310 310 309 306 307 307 307 306 307 309 307 305 304 304 305 307 307 306 306 304 302 304 302 303 302 304 298 298 298 298 298 298 299 299 298 295 294 294 294 294 294 294 292 292
307 306 302 302 304 305 303 304 303 301 301 301 301 302 303 304 304 303 304 302 301 302 296 302 302 302 297 298 298 297 296 295 294 294 293 292 292 292 293 292 292 293 293 292
306 305 302 301 303 303 303 301 299 300 301 299 299 301 302 303 303 303 299 301 299 300 295 297 295 296 298 297 296 294 293 293 293 292 291 291 292 292 292 291 291 292 292 292
305 304 303 301 300 301 302 299 298 299 299 300 300 300 301 301 302 299 299 298 294 295 295 295 294 297 297 296 293 292 292 292 292 292 292 292 292 291 291 292 292 292 292 292
302 301 298 295 296 295 293 293 295 298 299 300 300 298 298 297 297 296 297 294 294 296 294 294 292 297 295 294 293 293 292 292 291 292 292 291 291 291 291 291 292 292 292 292
296 296 293 292 295 296 297 298 299 299 299 300 298 296 296 293 291 294 293 295 296 293 291 288 296 294 294 294 293 292 291 292 293 292 291 291 291 292 292 292 291 292 291 291
294 294 292 294 295 294 296 297 298 299 299 297 297 289 286 289 289 293 294 292 290 289 289 294 294 294 294 293 291 291 292 293 292 292 291 292 292 292 291 291 291 290 290 290
293 293 294 295 294 295 296 297 297 297 298 293 291 286 288 288 284 288 288 286 286 294 293 293 293 292 291 291 291 291 292 292 292 292 292 292 291 291 291 291 291 290 289 290

GFSNW_850_thetae_021.txt.gz
Theta_e
309 311 314 316 320 322 325 318 319 323 323 316 309 313 313 316 316 317 316 316 317 317 317 318 318 318 316 314 315 317 313 313 316 315 313 313 314 315 314 317 316 316 317 316
309 310 313 315 320 323 323 321 322 322 321 314 309 314 316 316 316 315 316 316 316 315 316 318 317 316 315 316 315 316 314 314 313 310 313 312 316 315 312 311 311 317 318 316
309 310 311 314 317 321 319 319 316 319 317 313 314 315 316 317 317 315 316 315 315 315 315 315 317 317 316 315 315 314 313 312 312 313 311 311 314 314 313 315 317 315 316 315
308 309 310 314 315 320 319 316 315 316 312 315 313 314 315 317 316 316 316 316 315 315 315 316 317 316 315 314 314 314 313 316 313 313 313 312 313 314 314 315 315 317 316 315
308 309 310 312 315 318 317 317 318 315 313 314 314 310 316 317 315 315 316 316 315 314 315 314 316 316 314 315 314 313 311 314 312 313 311 311 312 312 312 313 314 314 314 315
308 309 309 311 314 316 318 317 317 318 308 308 311 311 315 316 315 315 315 315 313 311 315 315 316 315 314 313 314 312 312 312 311 313 308 309 312 309 311 312 312 313 313 312
308 308 309 311 314 315 316 317 317 316 308 305 310 314 315 314 314 315 314 314 313 314 316 316 315 313 309 309 310 311 307 308 308 314 308 315 312 310 311 311 311 310 310 309
307 308 309 312 314 315 317 317 315 313 305 308 314 314 313 314 315 314 314 315 315 316 316 310 309 308 304 305 307 308 307 307 310 313 312 312 313 311 311 311 312 309 309 311
308 308 310 312 315 317 317 316 315 313 313 310 315 314 314 310 308 311 315 315 315 315 306 308 311 311 308 312 309 305 305 303 311 311 314 315 312 308 311 310 312 308 311 310
308 309 310 312 314 315 316 315 315 314 313 314 315 314 314 314 312 308 312 315 314 314 306 309 311 314 307 312 307 303 306 307 311 312 311 312 309 308 308 312 313 311 311 309
310 311 312 313 314 315 315 315 315 314 313 314 316 315 314 314 314 311 312 313 311 306 309 310 308 308 309 309 308 307 309 308 307 306 310 311 306 309 311 311 309 310 309 308
311 312 313 313 314 314 314 314 315 314 314 314 316 316 316 316 316 315 314 312 312 312 307 304 303 306 301 305 314 305 311 310 311 310 311 307 307 309 309 308 309 308 307 304
312 312 313 314 314 314 314 314 315 314 314 315 315 315 316 316 317 317 316 314 314 313 313 306 304 309 304 310 308 309 308 307 309 309 311 310 311 311 310 309 308 306 304 301
313 314 314 314 314 314 315 315 315 315 315 313 313 313 313 314 315 315 316 316 315 314 313 310 304 308 308 308 311 310 310 309 310 310 311 311 310 310 309 306 305 303 299 297
313 314 314 314 314 315 315 315 315 315 315 310 312 312 312 312 312 312 313 313 315 315 313 308 307 308 307 306 306 308 310 311 311 312 311 311 309 305 305 302 300 296 295 294
311 313 314 314 313 314 314 314 314 314 314 313 305 311 311 311 312 312 312 312 313 314 313 311 312 312 311 307 308 309 310 311 311 311 311 309 306 302 299 296 294 295 296 295
311 312 312 312 312 313 313 313 312 313 313 312 310 309 310 310 310 310 310 311 312 312 312 310 311 311 311 304 310 310 307 307 308 308 307 303 301 298 294 295 296 296 294 293
311 312 312 313 313 314 313 313 313 312 312 311 305 306 308 307 308 308 308 309 310 310 310 308 309 308 309 308 305 301 302 303 303 302 304 299 295 296 297 296 294 293 293 293
312 313 313 313 313 312 312 312 313 312 312 312 306 306 308 307 306 307 307 308 305 306 305 305 306 304 308 301 298 299 301 302 297 297 297 298 297 294 292 292 292 292 292 293
312 312 311 308 308 310 311 311 311 310 310 307 305 306 305 307 306 304 306 305 302 306 303 303 303 305 297 298 298 298 298 298 299 297 293 291 291 291 291 292 292 292 291 291
309 305 303 304 304 305 305 304 304 302 301 301 301 302 303 304 304 304 305 303 301 304 300 303 304 304 297 297 296 295 294 293 292 292 291 292 292 292 292 291 291 291 291 291
302 304 300 301 301 301 301 301 299 300 303 299 300 301 302 302 304 304 300 302 300 301 296 300 300 298 297 297 295 294 293 292 292 291 291 291 292 291 291 291 291 291 291 291
301 301 300 300 299 302 303 302 299 300 298 299 300 300 301 301 302 299 300 300 299 295 297 299 297 297 297 295 293 293 293 292 291 291 291 292 292 291 291 291 291 291 291 291
301 301 300 298 299 297 295 296 296 298 299 300 300 298 298 297 298 295 299 295 295 299 297 297 296 297 296 295 293 293 292 291 291 291 292 292 291 291 291 291 291 291 291 291
297 297 296 295 294 296 297 298 298 299 300 300 298 296 297 294 295 295 294 296 297 296 296 294 297 295 294 294 294 293 291 290 291 292 292 292 292 291 291 291 291 290 291 290
294 294 293 294 295 295 296 298 298 299 299 298 297 290 293 294 293 294 295 294 294 293 291 296 294 294 293 292 291 290 290 291 292 292 292 292 292 291 291 290 290 290 290 289
293 292 294 295 294 295 296 297 298 299 298 293 291 291 292 289 290 292 292 291 291 294 292 292 293 292 291 290 291 290 291 292 292 292 292 292 292 291 291 290 290 290 290 290

GFSNW_850_thetae_024.txt.gz
Theta_e
310 313 315 317 320 321 323 317 322 319 322 322 318 321 318 317 319 319 320 320 321 322 321 322 322 321 320 316 318 318 318 319 317 315 316 317 318 318 318 321 320 320 320 317
309 311 314 319 319 324 323 323 323 323 321 327 323 319 319 318 319 319 320 321 320 320 321 322 321 320 317 317 318 319 318 318 315 316 318 318 319 318 317 316 317 318 321 318
309 310 314 316 321 322 319 321 329 321 319 317 321 321 320 320 318 318 319 319 319 320 321 320 321 321 318 317 317 314 316 318 315 314 314 314 314 314 315 317 320 317 318 317
308 310 311 315 320 320 317 318 322 320 326 321 320 320 320 321 320 319 319 320 320 321 322 320 321 320 319 317 315 317 318 317 317 316 316 315 316 316 315 316 317 318 317 316
308 309 310 314 315 319 317 321 322 317 318 318 320 318 321 320 319 319 320 320 319 318 319 317 319 318 318 317 317 318 317 319 316 317 315 315 315 315 315 316 316 316 316 317
308 309 310 312 314 316 317 317 318 321 313 318 322 321 320 319 319 318 318 319 320 320 318 317 318 317 317 317 317 318 318 319 317 321 313 314 318 315 314 315 315 315 316 315
308 309 309 310 314 316 315 316 317 318 321 319 320 318 319 319 318 320 317 318 318 316 316 316 315 313 314 315 315 315 314 316 313 319 316 322 315 314 314 314 314 314 314 314
308 308 309 311 313 315 315 317 315 315 315 318 317 318 318 317 317 318 318 316 315 316 317 320 317 316 314 313 312 313 314 315 315 317 316 315 314 313 314 313 314 314 313 313
307 308 309 311 314 315 315 315 314 312 316 320 316 318 318 320 320 319 316 314 315 315 317 319 320 319 314 315 314 309 311 312 318 312 317 316 314 313 312 312 315 313 313 312
307 308 309 311 314 316 316 315 314 313 312 314 316 319 319 317 318 321 317 316 315 315 312 314 317 321 313 316 316 314 311 312 315 314 316 315 314 311 310 315 316 311 311 311
308 309 310 311 313 315 315 315 314 313 313 315 316 315 316 316 318 322 316 318 316 313 316 317 315 315 317 315 314 314 316 316 314 312 314 315 310 311 314 313 312 311 312 309
309 309 311 312 313 314 314 315 314 314 313 315 315 315 314 315 315 317 316 318 316 317 317 311 311 315 309 317 317 312 315 314 315 314 315 313 312 311 311 312 312 310 307 304
310 310 312 313 313 314 314 314 314 314 314 315 315 316 316 316 316 315 318 314 315 315 314 313 311 312 314 313 315 315 314 312 314 314 312 313 313 312 309 308 307 304 303 302
311 312 312 313 314 314 314 314 314 314 314 314 315 314 315 316 316 316 316 316 315 314 312 310 309 316 314 317 315 314 314 313 313 314 313 312 312 310 307 305 303 301 298 297
312 313 313 314 314 314 315 315 315 315 315 314 313 313 313 313 314 315 315 316 316 315 311 309 315 314 311 310 309 311 312 314 314 314 312 312 307 305 303 303 298 297 297 297
312 313 313 314 314 314 314 314 314 315 315 314 314 311 311 311 312 312 313 314 314 314 313 312 313 312 312 308 311 311 312 312 312 311 310 307 304 303 298 297 297 297 297 296
311 312 312 313 313 313 313 314 312 314 314 313 311 310 310 310 311 311 311 312 312 314 312 311 311 311 311 306 310 309 305 305 306 306 306 302 300 299 297 297 297 296 295 294
310 311 311 313 312 312 313 313 312 313 313 312 307 309 308 308 308 308 308 309 310 310 311 308 308 308 309 309 307 303 302 302 303 304 303 302 298 297 298 296 295 294 294 293
311 311 312 313 314 314 314 312 312 312 312 311 309 312 312 306 305 306 307 308 308 307 305 305 306 306 310 306 302 301 301 301 300 299 298 296 295 294 294 294 293 293 293 292
312 312 312 311 311 311 312 312 312 311 312 310 306 306 308 308 305 305 306 305 307 308 304 303 303 306 299 300 300 300 299 299 299 299 295 294 294 293 293 293 293 292 292 292
311 311 308 305 306 309 310 308 306 305 302 302 303 304 304 305 306 304 305 304 303 307 306 307 307 306 301 299 298 297 295 295 295 294 294 293 293 293 293 293 292 292 291 291
306 307 303 303 304 302 302 302 299 301 306 300 301 301 302 303 304 303 301 304 303 306 300 303 306 304 300 298 296 295 294 294 293 293 293 292 293 293 293 291 291 291 291 291
302 303 300 300 299 304 306 305 304 304 300 300 300 300 301 301 302 300 302 306 305 298 301 304 304 300 299 297 296 295 294 292 291 291 292 292 292 292 291 291 291 291 291 290
300 300 301 301 303 302 302 303 303 299 299 300 301 298 300 299 300 299 304 300 299 302 302 303 300 299 299 297 296 294 294 292 291 290 291 291 292 292 291 291 291 290 290 290
300 300 301 300 295 297 297 298 298 299 300 300 299 298 299 299 299 299 299 300 301 302 302 301 300 299 297 295 294 294 293 291 290 291 291 292 292 292 292 291 291 291 290 290
295 295 296 294 298 297 297 298 298 300 300 300 298 298 300 299 299 299 301 300 301 301 299 299 298 295 294 293 291 290 290 290 291 291 292 292 292 292 291 291 291 290 290 290
294 294 295 295 296 298 297 298 298 299 298 300 296 299 299 294 298 299 298 299 299 297 297 295 293 292 292 292 291 290 290 291 291 291 292 292 292 291 291 291 291 291 290 289

GFSNW_850_thetae_027.txt.gz
Theta_e
312 315 317 319 317 315 317 321 323 317 316 320 321 324 321 319 320 321 322 323 323 323 323 323 323 323 323 319 319 320 318 319 320 317 318 319 320 321 320 322 321 321 322 320
310 314 317 317 320 321 324 322 323 319 320 327 324 322 321 321 321 322 322 323 323 323 323 324 323 322 320 319 320 321 319 321 320 319 320 320 320 319 318 318 318 318 323 320
310 313 315 320 320 324 323 323 329 322 323 323 322 323 322 322 321 321 322 322 322 323 323 323 324 323 320 320 320 315 318 319 318 319 318 317 317 316 316 317 320 320 319 318
309 310 314 320 322 322 320 323 326 324 326 324 323 323 323 323 322 321 321 322 322 323 323 323 323 322 321 319 317 318 320 321 318 318 317 316 316 316 317 317 317 319 318 318
308 310 312 315 320 319 322 321 324 323 324 323 323 320 323 322 321 321 321 322 322 321 323 320 322 320 319 319 319 319 319 321 319 318 316 315 315 315 316 316 317 317 317 317
308 309 310 314 316 318 322 318 321 324 320 323 324 323 322 322 321 321 320 321 321 322 319 319 319 319 318 318 319 320 320 321 319 322 317 317 321 318 315 316 316 316 317 316
308 309 310 312 315 316 320 320 322 325 325 324 323 321 321 321 321 321 320 320 321 320 318 318 317 317 317 318 319 319 320 319 317 320 317 323 316 315 315 315 315 315 315 315
308 308 309 311 314 315 315 317 320 321 324 322 321 321 321 320 320 320 320 319 319 319 319 321 320 317 313 316 315 316 318 319 318 320 318 315 315 316 315 315 315 315 315 315
308 308 309 311 313 315 316 316 315 318 318 325 321 322 321 324 324 322 319 317 318 320 321 320 320 321 316 317 317 313 315 317 320 316 319 318 315 315 313 313 316 315 314 314
308 308 309 311 314 315 315 314 313 318 322 320 320 322 323 322 322 324 321 319 319 320 318 319 319 322 316 316 318 314 313 315 318 317 318 316 314 313 313 316 317 314 313 312
308 308 309 310 313 315 316 315 314 318 319 319 319 318 320 320 320 325 321 321 321 321 316 317 320 319 319 318 316 317 316 317 315 316 317 316 313 313 316 315 314 313 311 307
308 308 309 310 311 314 314 318 314 313 319 321 317 317 318 319 320 320 320 319 321 319 322 317 317 322 317 318 319 315 316 316 317 317 318 315 313 314 313 313 312 309 307 304
309 309 309 310 311 313 314 315 314 314 314 318 319 319 315 315 315 319 321 320 319 320 320 318 315 314 317 315 318 316 316 315 318 316 314 313 313 314 311 309 307 306 302 303
310 310 311 311 312 313 313 316 314 316 315 316 319 315 316 315 316 316 319 319 317 319 317 314 312 314 317 319 318 317 316 315 315 316 314 313 311 310 309 307 306 300 300 299
311 311 312 312 313 313 314 314 314 314 320 317 318 314 314 315 316 317 318 318 318 317 313 310 314 318 317 315 315 316 314 315 317 316 313 312 309 307 306 304 301 300 299 300
312 312 313 313 314 314 316 317 315 315 315 314 317 315 313 313 313 317 317 318 318 318 316 313 315 316 315 312 314 312 313 313 312 314 309 309 307 305 303 300 300 299 299 297
312 312 313 314 314 314 316 316 316 314 315 313 313 315 311 311 313 314 315 315 314 315 315 314 314 314 313 314 314 312 312 309 307 307 306 304 304 303 301 300 300 298 296 296
311 311 312 312 313 313 313 313 312 314 314 313 308 312 311 309 311 311 309 310 311 312 313 310 312 313 312 312 312 311 308 304 304 306 305 305 303 300 300 298 296 296 295 295
310 311 313 313 314 313 312 312 313 313 313 311 309 309 311 309 308 307 307 308 311 308 307 307 309 309 312 312 310 306 303 303 303 302 301 300 298 297 296 296 295 295 294 293
310 311 313 313 313 313 312 312 312 311 312 312 309 311 311 310 306 306 306 306 311 310 307 304 303 306 304 304 305 304 303 303 301 302 298 297 296 296 295 295 295 294 293 293
311 312 310 308 309 312 312 310 309 307 305 305 306 308 309 306 309 308 306 306 305 309 308 308 310 309 307 303 301 301 301 300 297 297 296 296 295 295 294 295 294 293 293 292
307 309 306 305 306 305 305 305 301 303 308 301 301 302 304 304 305 303 301 306 304 310 305 306 307 308 304 302 300 299 298 297 296 295 295 294 294 294 294 294 293 293 292 291
305 304 301 301 299 303 306 307 307 305 300 300 300 300 302 302 302 300 302 306 308 302 304 305 307 304 302 301 299 298 298 296 293 293 293 293 293 292 292 292 291 292 291 291
301 300 302 302 304 304 305 307 305 300 301 301 301 299 300 300 301 301 307 303 303 305 305 306 305 302 302 300 299 298 297 296 294 292 292 292 291 291 292 292 292 291 291 291
299 300 303 301 297 297 298 299 299 299 300 301 301 300 302 301 302 303 302 302 304 304 306 305 302 301 300 299 298 297 295 294 292 293 292 292 291 291 291 292 291 291 291 291
297 297 299 297 299 298 298 299 299 299 300 301 301 301 303 303 303 302 304 305 304 305 303 302 301 300 298 297 295 293 293 291 291 292 292 292 292 292 292 291 291 291 291 291
296 297 297 298 299 299 298 298 299 300 300 302 300 302 302 298 302 302 302 303 303 301 301 300 299 297 295 294 294 293 292 291 292 293 293 292 292 292 292 291 292 292 292 291

GFSNW_850_thetae_030.txt.gz
Theta_e
313 315 316 318 314 314 317 321 322 322 314 320 321 326 323 319 321 322 323 323 322 323 323 323 323 323 324 320 320 321 318 320 323 319 318 319 319 320 320 328 322 325 326 323
312 314 317 319 315 314 323 321 326 316 315 326 326 324 322 322 321 321 322 323 324 324 324 325 324 324 320 319 322 322 320 323 326 322 321 320 318 318 318 318 321 320 323 319
310 314 319 319 317 321 324 326 329 320 322 326 323 324 323 323 322 323 323 323 323 324 324 324 324 324 321 320 319 315 319 320 319 321 318 317 316 316 316 317 323 321 321 319
309 313 317 319 320 322 322 326 326 321 326 325 324 322 323 323 323 322 322 323 323 323 324 324 324 323 321 320 317 319 321 322 320 319 317 316 315 315 315 316 317 318 319 317
309 310 314 320 322 324 320 326 325 324 325 322 324 321 323 323 322 323 322 323 323 323 324 322 323 322 321 321 319 320 320 322 321 320 317 316 314 314 316 316 316 316 317 317
308 310 312 316 319 319 324 322 322 325 324 325 326 325 323 323 323 323 322 322 323 324 322 321 320 320 319 319 320 320 321 324 322 323 318 317 322 319 316 316 316 316 318 316
308 309 310 314 316 318 324 323 324 326 328 325 324 323 322 323 322 322 322 321 323 322 318 318 318 318 318 318 319 320 321 320 319 319 317 321 316 315 315 315 315 315 315 316
308 309 310 311 314 315 316 319 325 322 321 324 323 322 322 322 321 322 322 321 321 319 319 324 318 319 314 317 316 317 319 320 318 322 319 316 316 316 316 316 316 315 316 315
308 308 309 311 313 315 315 317 321 323 322 325 322 321 322 325 325 323 320 320 321 320 322 319 320 324 318 319 317 315 317 320 321 317 316 318 317 315 314 314 316 316 315 314
308 308 309 311 314 315 315 314 315 322 327 323 323 324 325 323 324 326 321 320 321 322 317 313 316 324 317 320 319 315 314 314 316 317 316 316 315 314 313 316 317 315 312 310
308 308 309 310 314 315 315 314 314 321 323 322 322 322 323 322 324 327 322 323 322 324 314 315 319 320 323 320 317 316 315 315 314 316 317 317 314 315 316 316 315 313 310 308
308 308 308 309 312 314 315 319 314 314 322 323 322 321 321 321 322 322 321 320 322 321 320 317 320 319 316 318 322 315 319 319 321 317 317 315 315 315 314 313 311 309 307 306
308 308 308 309 311 313 315 318 314 316 317 320 319 321 316 318 320 322 322 322 320 320 322 317 314 311 318 315 320 317 316 315 321 319 316 315 314 313 310 309 308 307 303 304
308 309 309 309 310 312 313 318 314 319 316 318 321 319 318 315 314 318 321 321 320 321 319 313 310 312 317 321 319 320 319 317 316 317 315 315 312 310 308 308 306 302 301 301
309 309 310 310 311 312 313 313 314 315 322 316 320 317 316 315 316 319 319 320 319 318 314 309 312 319 320 318 317 319 316 315 317 318 315 315 311 309 308 305 303 301 300 300
311 311 311 312 312 313 316 319 314 314 318 314 314 317 315 314 315 319 319 319 319 319 317 314 318 317 317 315 316 313 312 313 314 315 311 311 309 307 305 303 301 301 300 298
311 312 312 313 313 314 318 316 318 314 315 314 312 317 313 313 316 317 317 317 316 316 315 316 316 316 315 310 314 312 312 312 311 308 308 306 306 305 303 302 301 299 297 297
312 312 312 313 313 314 315 313 312 314 316 315 308 313 312 311 314 313 312 312 313 313 314 312 312 314 313 313 313 312 312 308 308 307 307 307 305 304 302 300 297 297 296 296
312 312 311 312 312 313 314 313 312 314 315 312 307 310 311 311 309 309 308 310 308 309 309 309 311 309 311 312 312 313 308 306 306 305 304 302 301 299 298 297 296 296 295 294
310 310 312 312 313 313 312 311 312 312 313 312 308 312 312 311 307 306 306 307 309 309 307 306 304 307 310 310 309 309 305 305 304 303 301 299 298 297 297 296 296 295 295 294
311 311 312 310 311 312 312 312 310 310 308 309 310 312 309 309 308 307 307 306 306 310 309 309 308 308 308 307 304 305 304 304 302 300 298 297 296 296 296 295 295 294 293 293
309 309 309 307 309 307 307 305 304 303 309 303 303 304 306 305 307 306 303 306 304 310 306 307 308 308 306 304 303 302 301 299 298 297 296 296 295 295 294 294 292 292 291 291
306 305 304 303 300 303 306 308 306 306 301 301 301 301 302 303 304 301 301 305 307 304 306 306 307 306 304 303 302 300 299 298 296 295 295 294 292 291 290 291 291 291 291 291
302 300 302 302 304 303 303 303 303 301 302 301 301 300 301 300 301 300 306 303 304 306 307 306 306 304 303 302 301 299 299 297 296 295 293 293 292 291 290 291 291 291 291 291
300 300 303 302 297 298 298 299 299 300 301 301 301 300 301 301 302 301 303 303 306 306 307 305 303 303 301 300 299 298 297 296 294 293 292 291 291 291 291 291 292 291 291 291
298 298 300 298 299 299 298 299 299 300 300 300 301 301 303 303 303 304 305 306 306 306 304 303 302 301 300 299 298 296 294 292 292 291 291 291 292 293 292 292 292 291 292 293
298 298 298 299 299 298 298 299 299 300 300 301 301 304 301 300 303 303 303 305 304 302 301 301 300 299 298 296 294 294 294 293 292 292 292 292 292 291 292 292 292 293 293 292

GFSNW_850_thetae_033.txt.gz
Theta_e
314 315 315 316 313 313 315 321 319 324 315 318 321 319 323 320 320 322 323 323 322 323 322 323 323 323 321 319 320 319 316 319 317 318 317 318 318 319 319 315 319 317 315 315
313 315 316 317 313 313 320 322 324 321 316 316 319 321 322 321 320 321 322 323 323 323 324 323 324 322 320 321 319 319 318 318 316 319 319 319 317 317 316 317 312 315 311 313
312 315 317 319 314 314 319 325 319 320 324 326 324 323 322 323 322 322 323 322 323 323 323 323 324 322 321 319 316 315 318 319 317 316 317 315 315 314 314 314 312 315 315 316
310 314 319 319 314 315 324 325 322 318 317 318 322 322 322 323 323 322 322 322 323 323 322 323 323 322 321 320 316 318 318 318 319 318 315 315 314 313 312 312 313 313 313 316
309 312 318 319 318 318 323 325 326 320 319 316 323 319 321 323 322 322 322 322 322 322 322 322 322 322 320 320 318 319 318 318 316 315 317 315 313 313 314 314 315 316 315 315
309 310 315 320 320 322 321 323 323 327 324 320 322 322 323 323 322 322 322 321 320 318 320 319 318 318 318 319 318 319 319 313 311 314 314 312 312 315 314 314 314 314 315 314
308 310 312 316 319 320 324 323 326 325 317 322 322 323 322 323 322 322 321 322 320 318 317 317 316 315 316 319 317 320 314 313 310 307 308 306 315 313 314 315 314 314 314 314
308 309 310 314 316 319 322 322 325 322 311 324 322 322 322 322 322 321 320 320 320 318 320 313 310 309 306 311 315 316 318 309 305 311 311 312 314 315 315 314 315 314 314 312
308 309 310 312 315 315 314 323 324 322 321 319 323 322 321 320 320 320 320 320 320 321 315 306 309 312 313 316 316 311 315 309 306 302 304 306 312 313 313 313 310 313 312 310
308 309 310 313 314 315 316 316 320 323 323 322 323 322 321 323 322 315 320 320 321 321 309 310 307 310 316 315 313 308 306 310 306 303 303 308 312 313 313 310 310 311 311 309
308 308 309 313 315 315 315 314 320 319 323 322 322 323 323 323 323 315 321 315 318 311 309 304 308 311 311 313 315 311 307 307 310 310 309 308 313 314 310 311 313 311 309 308
308 308 309 311 314 315 316 314 316 316 322 321 322 322 322 323 323 322 320 317 321 319 310 309 308 312 310 310 311 314 313 311 310 309 308 310 314 314 314 314 311 310 307 306
308 308 308 309 312 314 315 315 314 315 316 318 318 318 319 320 322 322 320 321 320 320 319 313 312 310 308 307 309 314 313 315 310 312 314 314 314 313 312 311 310 309 307 303
308 308 308 309 310 312 313 314 316 316 315 317 320 319 317 316 319 322 321 320 321 321 319 310 308 307 314 307 309 310 312 315 314 311 312 312 311 311 310 309 307 304 301 300
308 309 309 309 310 311 312 313 314 316 317 314 318 317 318 315 315 317 318 320 320 320 315 305 306 312 311 314 309 308 316 313 307 307 314 313 311 309 309 306 303 301 301 300
309 309 309 310 310 311 312 313 313 316 319 316 311 317 316 314 316 319 319 319 319 318 316 313 315 318 314 306 307 313 314 313 314 314 313 313 310 309 306 304 302 301 300 298
310 310 310 311 311 313 316 315 317 314 315 313 311 314 313 315 317 318 318 318 318 317 316 315 314 315 315 305 309 311 312 312 312 312 310 307 307 306 304 302 301 298 297 296
311 311 312 312 312 314 315 314 313 315 314 314 304 307 312 314 314 314 313 314 314 314 314 313 312 313 311 307 310 312 312 311 310 309 308 307 305 303 302 301 297 297 296 295
312 312 312 313 312 313 314 313 312 314 315 312 307 305 306 311 310 309 309 310 306 309 309 309 310 305 310 310 312 312 310 309 308 307 306 303 303 300 298 297 296 296 296 295
310 311 310 310 311 312 312 312 311 312 313 312 307 310 308 309 308 306 307 307 304 307 305 307 304 306 309 310 309 309 308 307 306 304 302 299 298 297 297 296 296 295 295 294
312 310 311 312 312 312 312 311 308 309 308 308 309 311 308 309 304 304 307 303 303 307 305 306 306 306 306 307 307 306 306 305 303 301 298 297 296 296 295 295 295 294 292 291
311 311 310 311 311 311 307 305 304 304 308 304 306 306 307 307 308 305 304 305 303 307 305 305 306 304 304 304 304 304 303 301 298 297 296 295 295 295 293 292 290 290 291 291
308 307 306 305 302 305 308 310 306 305 302 302 303 301 304 305 305 302 301 305 306 304 305 304 302 304 304 303 301 300 299 298 296 296 295 295 292 292 291 290 290 290 290 291
303 301 301 302 302 301 300 301 301 301 302 302 303 300 302 301 302 300 304 302 302 305 303 300 303 304 302 301 300 299 299 298 297 296 295 293 292 291 290 290 291 291 291 291
300 300 302 300 298 298 298 299 300 300 300 301 300 300 301 300 300 300 300 302 304 304 304 301 302 302 301 300 299 298 297 297 296 293 292 291 290 291 290 291 290 291 291 291
298 298 298 298 299 299 299 299 299 300 300 300 300 300 302 301 301 302 304 304 304 302 300 302 301 301 300 299 299 298 295 293 293 292 291 291 291 291 291 291 291 292 292 292
298 297 299 299 299 298 298 299 299 300 299 300 300 301 299 299 301 302 302 302 300 301 302 301 300 300 299 298 296 294 294 294 293 293 291 291 291 291 291 292 291 292 292 292

GFSNW_850_thetae_036.txt.gz
Theta_e
314 314 313 313 313 314 315 319 316 323 317 313 316 316 320 320 319 321 321 322 322 320 320 322 322 321 319 319 320 316 316 315 314 317 316 317 317 318 316 313 316 315 312 313
314 314 314 314 313 314 319 320 325 322 316 309 314 316 321 320 319 320 321 322 322 321 321 323 322 320 319 317 317 318 316 315 314 317 317 317 317 317 315 314 310 314 309 312
313 315 316 316 312 314 320 323 317 321 321 322 316 319 320 322 321 321 321 321 321 321 322 321 322 321 320 316 315 315 318 316 314 316 316 314 314 313 311 312 310 313 312 314
312 315 317 317 312 316 322 325 318 316 312 315 321 320 320 322 322 321 321 321 321 321 322 322 321 320 319 319 316 317 316 317 318 316 314 314 313 313 311 311 310 310 312 314
311 315 318 318 314 316 321 324 324 317 314 313 317 318 320 321 321 321 321 321 320 320 320 320 321 319 318 318 316 318 316 316 314 313 314 313 312 311 313 313 314 313 313 314
310 314 318 318 315 315 322 323 324 318 320 313 318 318 318 321 321 321 321 319 317 315 318 317 317 317 318 318 316 317 316 310 308 307 310 309 309 313 313 313 313 313 313 312
310 312 316 319 318 318 323 324 325 323 315 316 317 322 321 321 320 321 320 320 316 318 316 315 316 316 315 316 316 316 312 309 304 304 303 301 311 312 312 314 314 313 313 311
309 311 315 318 319 321 323 323 324 322 308 320 320 321 320 320 320 320 320 319 318 317 314 307 308 307 306 310 313 314 313 305 306 302 308 307 312 314 313 312 313 313 312 311
309 311 313 316 317 320 319 322 322 319 319 317 322 320 320 317 317 316 319 321 319 319 308 303 307 310 307 315 315 311 311 304 303 306 301 302 307 313 313 312 310 313 312 310
309 310 312 314 315 315 315 322 321 321 322 322 323 319 320 321 317 312 319 319 320 317 300 299 303 311 312 313 311 306 308 301 305 298 299 305 307 312 312 310 309 312 312 310
308 310 313 314 315 315 315 318 319 321 322 322 322 323 323 321 320 313 319 314 316 306 304 300 302 307 307 311 312 310 309 306 303 302 300 308 310 312 311 309 313 313 311 309
308 309 312 314 315 316 314 317 319 317 319 320 321 322 323 322 321 320 319 314 317 314 307 303 308 309 310 307 310 310 311 308 308 309 308 308 312 312 313 313 313 310 310 308
308 309 310 312 314 315 314 314 315 316 320 319 320 320 321 323 322 321 318 321 319 318 313 309 304 305 306 308 308 313 311 311 309 309 311 312 313 313 313 313 312 310 308 306
308 308 309 310 312 314 315 314 314 313 314 315 318 319 317 319 322 321 320 319 320 319 317 308 308 304 309 303 306 308 308 313 311 309 311 311 311 312 312 310 310 308 303 301
308 308 309 309 310 311 312 313 314 314 314 314 317 318 317 315 317 320 321 320 320 319 315 305 306 308 307 306 306 305 314 311 308 309 312 311 311 311 310 309 306 301 301 300
308 308 309 310 310 311 311 312 314 315 316 315 306 315 315 315 318 317 317 319 319 318 316 311 313 316 312 306 308 312 314 315 315 313 314 314 312 310 309 304 301 301 300 299
309 309 309 310 311 311 312 312 314 317 315 312 310 311 313 316 318 319 318 318 318 318 315 314 313 313 314 303 307 311 312 312 312 313 313 309 309 308 305 302 301 299 297 296
309 310 310 311 312 314 315 315 314 314 313 312 303 308 311 314 316 315 315 315 315 313 313 313 312 311 307 308 309 312 311 311 311 310 309 309 308 305 303 302 298 296 296 296
310 311 312 312 312 313 314 313 313 314 314 311 306 302 305 312 310 310 311 311 304 308 308 308 308 305 308 309 310 311 311 310 310 307 306 305 302 302 301 297 296 296 296 295
311 310 311 311 312 313 313 312 312 312 313 311 305 307 305 309 307 306 306 307 303 306 303 307 304 306 308 308 309 309 310 309 308 305 303 299 297 297 296 297 296 296 295 294
310 310 312 311 312 311 311 310 307 307 307 309 308 308 307 307 304 304 306 303 302 306 304 306 306 306 304 307 307 307 307 306 304 302 299 299 298 298 296 296 295 293 291 290
311 311 312 311 312 311 305 304 304 304 307 305 306 307 307 308 307 305 304 303 302 306 304 305 306 303 304 305 305 304 303 300 298 298 297 295 296 295 293 291 290 290 290 290
310 310 310 308 304 306 309 309 305 305 302 303 304 303 305 306 306 303 302 306 306 304 305 304 303 303 302 303 303 300 298 298 298 296 295 295 293 292 291 290 290 290 290 290
304 302 302 302 302 301 300 301 301 301 302 302 303 301 303 301 302 301 305 302 302 305 302 298 303 302 302 301 300 298 297 296 296 296 296 293 292 291 290 290 290 290 290 291
300 300 301 299 297 297 298 299 300 300 300 301 301 300 301 300 300 300 300 301 303 303 303 301 301 302 301 300 299 299 297 297 295 293 292 291 291 290 290 290 291 291 291 291
298 298 298 298 298 298 298 299 299 300 300 300 301 300 301 300 300 300 302 303 301 299 300 301 301 301 300 298 297 297 295 294 293 292 292 291 291 291 291 291 291 291 292 292
298 298 298 298 298 298 298 299 299 299 299 299 300 299 298 298 300 301 300 299 299 299 299 301 300 299 298 298 296 294 294 293 292 291 291 291 291 291 292 292 291 292 292 292

GFSNW_850_thetae_039.txt.gz
Theta_e
312 313 313 313 314 314 315 315 313 321 315 312 313 316 318 320 318 320 320 320 320 318 319 321 321 320 319 319 319 315 315 313 314 316 314 316 316 317 313 309 314 312 311 311
313 314 313 313 314 314 318 318 325 323 316 308 313 315 318 319 318 319 320 321 321 320 321 321 320 319 318 316 316 317 315 313 313 315 315 315 317 314 314 311 308 313 307 310
313 314 313 313 314 314 319 320 316 322 320 314 313 316 319 321 321 320 320 320 320 319 321 319 320 320 318 314 314 316 315 315 312 314 315 313 312 311 312 311 310 312 311 312
313 314 314 314 313 315 321 322 316 317 312 317 318 315 319 321 320 320 320 320 320 320 321 321 320 319 318 316 316 316 313 315 316 313 312 313 313 311 310 310 309 309 309 311
313 315 316 315 312 315 322 324 320 314 311 315 318 317 319 320 320 320 320 319 319 319 318 318 320 318 316 314 315 316 313 314 313 313 312 311 312 310 309 310 310 309 313 314
313 317 317 315 312 316 320 322 324 316 314 313 313 316 318 319 319 320 319 318 315 315 317 317 318 316 316 316 315 315 313 309 306 305 308 306 304 308 311 312 312 311 313 311
313 317 318 316 312 315 319 323 324 321 313 310 314 319 319 319 319 320 319 318 316 315 316 316 316 315 314 315 313 314 309 306 301 302 302 304 307 308 310 311 313 312 311 310
313 316 318 315 313 314 320 323 324 321 306 316 318 319 318 319 319 318 319 318 317 315 312 306 307 305 306 309 311 311 310 303 305 303 305 305 310 312 313 312 312 311 310 309
313 316 318 318 315 316 320 322 321 319 319 316 321 319 318 316 315 315 319 317 316 317 304 302 305 307 307 314 314 310 307 302 303 304 300 301 306 312 312 310 309 312 311 309
312 315 317 318 319 321 320 320 320 320 321 322 321 318 318 318 315 311 318 319 318 315 299 298 302 309 309 312 310 308 307 300 304 295 298 304 305 311 311 310 306 312 313 311
311 314 315 316 317 317 317 321 320 320 322 321 322 322 321 319 318 312 317 314 315 305 304 300 301 300 307 309 310 310 309 305 302 302 300 308 308 310 310 309 310 313 312 311
311 314 315 316 316 315 316 318 319 319 321 321 321 322 322 320 319 319 317 315 315 312 304 299 300 306 308 304 308 308 309 307 307 307 308 307 311 310 312 311 312 312 312 311
310 313 314 314 315 314 316 317 317 317 320 319 320 321 322 322 321 318 317 317 316 315 311 307 301 301 304 307 307 310 309 309 307 308 309 308 310 312 312 312 313 313 311 309
309 310 312 314 315 315 314 314 315 314 316 316 318 317 319 321 322 320 319 319 318 316 313 307 302 300 307 302 305 308 308 310 309 308 309 311 312 312 312 313 312 311 309 307
308 309 309 311 313 313 314 313 313 313 313 312 317 316 315 317 320 322 321 320 319 317 314 304 305 306 304 303 304 304 310 309 307 308 311 312 312 313 312 311 310 308 304 301
308 308 309 310 310 311 312 312 314 314 313 314 306 314 314 317 318 318 320 320 319 318 317 312 311 312 310 307 310 311 313 313 313 312 314 312 312 312 310 310 307 302 301 300
308 308 309 309 310 310 310 310 315 315 313 311 309 309 314 316 318 318 318 318 318 317 315 312 311 312 312 305 308 310 312 312 312 312 312 310 310 309 309 306 301 301 299 297
309 309 309 310 310 311 312 314 315 315 312 311 303 303 311 314 316 315 316 316 316 313 311 311 311 309 305 308 308 311 311 311 311 311 311 310 310 308 304 302 301 298 297 296
309 310 310 311 312 313 313 314 314 314 312 310 304 304 305 312 310 310 311 311 304 308 305 308 308 303 308 308 310 310 310 310 310 308 308 307 306 304 301 297 297 297 296 295
310 310 309 311 312 312 312 313 312 312 312 311 303 306 305 308 307 305 306 305 299 307 300 306 304 307 307 307 307 309 309 309 308 306 302 301 299 298 299 297 297 296 295 293
310 310 311 311 312 312 311 309 305 306 307 308 307 306 306 306 305 302 304 298 301 306 300 303 302 305 304 305 306 306 307 307 305 302 299 299 300 299 297 296 294 292 291 290
310 311 311 312 311 310 304 302 304 304 306 305 307 307 307 307 306 303 304 302 302 306 303 305 306 303 303 303 301 302 302 302 301 300 299 297 295 293 292 291 291 290 290 290
311 311 311 310 305 307 309 311 306 305 303 304 304 303 305 306 306 303 302 305 305 303 305 306 303 302 301 297 298 300 300 299 295 294 294 294 293 292 291 290 290 290 290 290
307 305 304 303 303 301 301 302 302 301 302 302 304 302 303 302 302 301 305 302 302 306 306 300 302 302 301 302 299 298 296 295 295 294 293 292 292 291 290 290 290 290 290 290
301 301 301 298 297 297 298 299 300 300 300 302 302 301 302 300 301 300 300 301 302 299 298 300 300 301 300 299 297 295 296 294 293 293 292 291 291 290 290 290 290 290 290 291
299 298 298 297 298 298 298 299 299 300 300 301 301 300 300 299 299 299 300 300 297 295 299 299 299 300 300 298 296 295 294 294 292 291 291 291 290 290 290 290 290 291 291 292
298 298 298 298 298 298 298 299 299 300 300 299 299 299 298 297 298 299 297 295 295 298 299 300 300 298 296 296 297 297 294 292 291 291 291 291 291 292 292 292 292 292 292 292

GFSNW_850_thetae_042.txt.gz
Theta_e
312 312 312 313 313 314 318 320 313 320 316 312 311 314 317 319 317 319 320 318 317 316 318 320 319 319 318 317 318 315 314 311 314 315 314 314 314 315 311 308 313 311 310 312
311 312 313 313 313 315 318 317 324 322 316 310 312 314 317 318 317 318 319 320 319 318 319 320 319 318 317 315 316 314 312 312 313 314 312 313 316 313 311 308 307 312 306 308
311 312 313 313 313 314 319 320 317 322 319 310 312 314 316 319 320 319 319 318 318 318 320 317 318 319 317 314 314 316 313 312 312 313 312 312 312 311 312 310 309 310 310 311
311 313 313 313 314 314 320 319 316 318 315 317 312 312 316 319 320 319 319 318 319 319 320 319 319 318 317 314 315 315 311 314 314 312 311 311 311 310 309 310 309 310 309 310
312 314 313 313 313 315 320 321 315 313 311 318 315 313 317 318 319 319 319 318 318 318 318 317 318 316 315 311 314 315 311 313 312 314 310 309 311 310 308 307 308 308 310 310
313 314 313 313 313 315 320 322 317 316 310 312 314 315 317 318 318 319 318 317 315 317 317 317 316 315 314 313 314 313 310 308 308 309 306 304 304 307 308 310 308 308 311 310
313 315 314 314 313 314 319 322 322 318 309 309 314 316 317 318 318 318 317 317 314 314 316 316 316 315 314 314 312 311 307 305 299 301 301 302 306 306 308 309 310 309 310 309
314 316 315 315 313 315 319 322 323 319 305 310 315 317 317 318 318 318 318 317 315 314 311 307 310 305 308 308 309 307 307 302 303 301 303 304 308 311 310 310 309 310 310 308
316 317 316 315 312 314 318 322 323 319 314 314 318 317 317 314 314 315 318 314 313 315 302 303 306 309 311 312 314 309 305 301 303 299 300 300 305 310 311 310 310 310 311 308
316 318 318 314 312 313 317 321 322 320 321 321 319 316 317 317 314 310 317 316 316 313 298 297 301 306 306 311 309 307 306 300 302 294 297 303 303 310 310 310 308 310 312 311
316 318 317 314 313 313 317 320 321 321 321 320 321 320 318 317 317 312 316 313 314 304 304 301 301 301 306 308 309 310 309 308 307 300 297 308 306 310 310 309 309 311 312 312
315 317 317 317 317 320 318 320 321 321 321 319 320 320 320 319 318 318 316 316 314 312 303 296 297 301 306 304 308 307 309 307 306 305 307 307 308 309 311 310 311 311 312 312
315 318 318 317 316 317 318 319 319 320 320 318 320 320 321 320 319 319 317 315 315 312 310 304 299 302 302 304 306 308 307 307 305 307 308 307 309 310 310 311 311 312 312 312
314 315 317 315 316 317 317 317 318 319 319 315 317 318 321 321 319 319 318 318 315 313 311 307 300 300 305 301 303 306 307 308 307 306 308 310 312 312 311 311 312 313 312 311
313 314 316 316 315 315 316 314 313 315 313 311 316 315 317 319 321 321 320 319 317 314 313 304 305 304 303 302 302 303 308 307 306 307 309 310 311 312 313 312 311 310 310 307
310 311 313 314 314 314 313 313 314 312 313 316 307 314 316 318 319 320 319 318 318 317 316 310 309 309 308 307 310 310 312 311 310 310 312 312 312 312 312 310 309 308 306 302
309 310 311 311 311 311 310 311 315 313 311 311 308 308 313 317 317 317 318 318 317 316 312 308 309 310 310 304 307 309 310 311 311 311 311 311 311 310 309 308 306 302 301 297
309 309 309 310 310 310 312 315 314 312 310 310 302 302 311 314 316 314 315 316 315 311 309 308 306 307 305 307 308 310 310 310 310 309 309 309 309 308 305 303 301 298 298 298
309 309 309 309 309 311 314 313 313 312 311 309 302 303 304 311 309 309 310 311 305 307 305 307 307 303 307 306 306 308 309 309 309 308 307 307 306 301 298 298 297 298 298 296
310 309 309 310 312 312 312 312 312 312 312 311 301 304 304 307 307 305 304 304 298 298 298 306 304 306 305 304 305 306 307 307 307 306 300 300 296 296 298 299 297 296 295 294
309 309 310 312 312 311 311 308 306 306 305 306 304 305 305 305 305 303 301 299 300 303 299 305 304 305 302 301 302 304 306 306 303 302 299 300 300 299 297 296 295 293 291 290
310 311 311 311 311 310 305 302 303 304 304 305 306 306 306 305 306 302 303 297 301 305 302 304 305 303 300 299 300 299 299 299 300 299 297 295 294 293 292 291 291 290 290 290
311 311 310 310 306 307 309 309 306 305 303 304 304 303 305 304 305 301 302 305 305 303 305 305 303 299 297 299 300 298 297 296 295 294 294 294 293 292 291 290 290 290 290 290
310 307 306 304 304 302 301 302 302 301 302 303 305 302 303 303 302 301 306 302 302 305 306 301 301 300 298 300 298 297 294 294 294 293 292 291 291 290 290 290 290 290 290 290
304 303 301 298 297 298 298 299 300 300 301 303 303 301 302 300 301 300 300 302 300 297 296 299 300 300 298 297 295 294 293 293 292 292 291 291 290 290 290 290 290 291 291 291
299 298 296 297 298 298 299 299 299 300 301 302 302 300 300 300 299 298 300 300 296 294 298 298 299 299 299 296 294 294 293 292 291 291 291 291 291 291 291 291 291 291 291 291
298 297 298 298 298 298 298 299 299 300 301 299 299 297 297 296 295 296 295 292 296 297 297 298 298 299 296 294 294 295 295 292 291 291 291 291 291 291 290 290 290 290 291 291

GFSNW_850_thetae_045.txt.gz
Theta_e
316 311 310 311 312 313 313 317 314 322 321 313 310 313 313 318 317 317 318 316 316 317 317 319 319 320 318 317 316 318 314 315 318 316 314 314 315 316 316 318 316 315 316 317
316 309 311 311 312 313 316 319 321 322 320 313 312 312 315 317 317 317 318 319 317 318 319 320 318 318 316 315 315 317 314 315 318 317 315 315 317 315 311 310 312 317 322 315
314 309 312 312 313 313 317 319 319 320 320 310 313 314 314 318 319 318 318 318 318 319 319 318 319 319 316 313 314 314 313 313 316 319 315 314 315 314 312 314 316 314 314 313
311 311 311 312 313 313 319 318 317 319 316 313 311 312 315 318 319 318 317 318 318 319 320 319 319 318 316 314 315 314 314 316 314 312 311 311 311 311 313 313 312 317 313 313
309 311 311 313 312 314 319 317 315 312 312 314 312 312 317 318 318 318 318 319 317 317 319 319 320 318 315 313 314 315 311 316 312 314 310 310 312 311 309 310 309 311 309 311
310 311 312 313 312 314 319 320 317 315 309 313 312 313 316 317 318 318 316 317 317 317 317 316 314 313 313 312 315 314 312 313 313 314 307 306 312 311 312 310 309 311 312 313
310 311 313 313 313 314 318 320 317 313 308 312 313 315 316 317 317 319 316 316 316 314 315 315 315 314 312 312 310 309 309 307 304 310 304 309 310 308 309 311 310 309 311 311
310 312 313 313 313 315 319 319 319 316 306 310 313 316 316 317 317 317 317 316 314 315 312 312 313 311 312 310 309 307 306 306 307 312 309 307 308 307 311 312 312 311 311 310
312 313 314 313 313 316 319 321 322 319 311 310 315 316 316 315 315 315 315 313 312 312 304 309 313 317 315 313 314 309 306 305 312 305 309 309 308 308 311 310 315 309 310 309
313 315 315 313 313 317 319 320 322 319 317 315 317 317 317 316 314 313 313 312 312 311 305 307 312 313 308 313 311 311 312 308 312 302 311 309 306 308 309 313 313 309 311 310
315 316 315 314 313 317 318 320 320 320 320 319 319 318 317 316 317 316 314 315 314 307 310 311 308 311 310 311 310 313 313 312 311 303 309 314 305 310 314 312 308 310 312 312
316 317 317 315 313 315 317 320 321 320 320 318 319 319 318 318 317 318 314 316 313 313 309 303 303 308 307 308 315 308 313 312 312 310 313 307 307 310 310 310 309 310 311 311
317 317 317 314 313 314 318 318 317 319 318 317 319 319 319 318 318 318 316 314 315 312 311 303 304 308 305 311 310 310 309 306 310 309 309 307 308 309 309 310 311 311 312 311
318 317 316 314 315 318 318 317 318 319 319 313 315 318 320 319 318 318 318 318 316 313 310 306 304 308 304 306 307 309 309 307 308 309 309 309 310 311 311 311 310 311 311 311
318 318 318 319 319 317 317 314 318 319 315 311 315 318 318 320 320 319 318 317 315 312 311 305 307 303 305 303 305 307 307 309 311 312 308 309 309 311 312 312 311 310 310 307
317 316 317 317 318 318 316 315 313 313 319 318 309 314 316 317 317 318 316 316 316 316 314 304 306 307 308 309 310 309 309 309 309 309 310 311 311 311 311 310 309 307 306 302
316 316 316 316 315 314 313 313 313 312 312 313 307 308 315 317 317 318 317 317 317 316 309 305 307 307 308 305 310 307 310 310 310 310 310 310 309 308 307 308 305 302 301 297
314 314 314 313 312 311 313 313 312 311 310 310 304 303 311 314 313 311 314 315 313 309 307 306 305 306 306 309 307 307 308 308 308 308 308 308 307 305 302 300 298 296 297 299
310 310 310 310 310 311 313 313 311 310 310 308 303 306 309 309 307 306 308 310 305 307 304 306 307 304 308 305 303 305 306 306 306 306 305 303 301 296 296 297 300 299 297 297
311 309 309 310 313 312 311 310 311 311 311 310 300 303 305 307 307 304 304 304 303 306 304 306 305 306 302 301 302 304 306 305 305 303 298 297 297 299 300 298 297 296 295 295
308 309 311 312 311 310 310 307 305 305 303 304 303 304 304 305 306 303 301 302 300 305 302 306 305 306 301 300 301 302 304 304 302 302 299 299 298 297 296 295 294 292 291 290
311 311 310 310 310 309 305 303 303 303 305 304 305 305 305 303 305 302 302 300 302 305 301 305 305 302 299 299 299 299 300 300 299 297 296 294 293 292 291 291 290 290 290 290
312 310 310 310 307 307 303 306 306 305 302 304 304 302 304 303 303 302 303 305 305 301 305 306 304 297 299 300 300 297 296 296 295 294 294 294 292 291 290 290 290 290 290 290
310 309 306 302 306 304 303 303 303 301 303 304 305 302 303 303 304 301 307 302 303 307 306 305 300 298 298 297 296 295 294 294 294 292 292 291 290 290 290 290 290 290 291 291
305 303 302 300 297 298 298 299 300 301 302 304 304 302 303 301 302 301 302 304 303 302 301 301 299 298 298 297 295 294 293 293 292 291 291 291 291 291 291 291 291 291 291 291
299 297 298 297 298 298 299 299 299 300 302 303 303 300 302 300 300 301 302 303 300 298 299 298 299 298 297 295 294 293 292 292 291 291 291 291 291 291 291 290 290 289 288 287
298 297 298 298 298 298 298 299 299 300 301 300 299 300 300 297 298 299 297 298 296 297 298 298 299 298 294 294 294 295 294 292 292 292 291 290 290 289 289 289 287 286 285 284

GFSNW_850_thetae_048.txt.gz
Theta_e
303 311 316 316 310 311 312 316 318 317 315 321 322 323 319 317 320 320 319 320 319 319 321 321 320 321 321 319 319 322 320 322 324 321 318 318 320 321 321 320 320 321 321 318
302 310 316 315 309 311 312 317 321 323 320 326 323 319 318 319 320 321 321 321 321 322 322 323 323 323 318 318 319 322 320 322 324 321 320 319 320 320 319 318 320 320 326 316
303 309 311 315 309 312 315 317 324 321 318 319 321 320 319 319 320 321 321 322 322 323 323 322 324 323 319 316 318 313 316 321 322 324 320 320 320 319 318 318 319 317 318 315
303 308 310 314 310 312 317 319 319 320 325 320 319 319 318 318 322 321 321 322 323 323 324 323 324 322 318 317 316 318 320 322 319 317 316 316 318 318 318 318 317 318 316 315
301 305 311 312 311 312 316 319 320 318 321 318 318 317 319 318 321 322 322 323 323 323 324 323 325 323 321 321 319 321 318 321 318 319 316 315 316 316 316 318 318 317 317 316
301 303 309 310 311 312 317 318 317 319 316 319 318 318 318 318 322 321 320 323 323 324 322 321 321 319 318 319 322 321 320 320 319 319 313 314 319 318 317 316 317 317 317 317
303 304 311 309 311 312 319 319 316 319 319 318 317 316 318 320 322 323 319 320 323 317 316 317 317 317 317 316 315 316 318 318 316 319 311 324 315 312 313 317 317 316 315 315
303 305 311 309 312 313 318 319 316 314 319 317 316 317 320 320 320 322 321 318 317 316 317 321 321 321 321 318 314 314 314 316 316 326 315 314 313 311 311 313 313 315 315 314
307 310 309 310 312 314 318 320 318 315 317 317 316 318 320 323 323 322 316 313 313 312 317 323 326 326 323 321 320 313 312 314 319 315 329 329 313 312 313 313 315 314 314 315
309 309 309 312 313 314 317 320 319 316 319 315 318 319 320 321 322 323 316 314 315 312 321 325 329 325 316 320 320 318 319 317 323 318 327 317 313 312 313 315 314 314 314 315
308 309 312 313 312 314 318 319 318 319 320 318 318 317 318 318 321 324 317 318 317 317 324 323 322 325 317 316 315 318 320 322 320 316 323 323 310 313 317 316 313 313 315 315
310 312 313 313 313 316 318 319 319 320 319 318 318 317 317 318 319 319 317 322 319 320 322 319 316 318 312 320 323 313 319 318 319 318 318 313 311 315 314 312 313 313 313 313
313 314 314 313 314 317 318 319 318 320 318 318 319 318 317 317 317 318 319 316 318 315 317 316 317 318 317 319 319 317 315 311 316 315 314 313 312 311 311 311 312 312 311 312
315 316 315 313 315 317 318 318 318 320 319 316 318 318 318 318 317 317 317 318 317 314 312 314 314 322 311 316 315 316 314 313 315 315 314 313 312 312 312 312 310 310 310 310
317 316 315 315 314 316 317 317 316 318 318 315 317 316 316 318 318 318 317 316 315 313 314 311 320 310 313 310 312 316 312 314 316 317 311 312 312 310 311 311 310 309 307 305
317 317 316 315 314 317 316 315 316 316 317 317 318 315 315 314 313 314 314 313 314 315 315 309 310 308 314 313 318 312 311 311 310 312 311 311 310 309 309 309 307 304 302 300
317 315 315 315 317 316 315 315 314 316 317 315 313 317 316 317 317 317 316 316 316 315 310 309 311 310 312 309 319 311 310 310 310 309 310 310 307 305 304 302 299 299 298 298
318 318 318 317 314 314 312 313 314 313 310 311 310 313 314 314 311 311 313 314 312 309 307 307 309 308 310 315 310 308 308 308 307 306 306 305 301 299 298 298 298 298 300 298
313 313 312 312 313 312 311 310 310 309 309 308 307 314 315 309 307 307 309 309 308 307 309 308 310 307 312 306 305 307 306 307 304 302 301 300 299 299 299 298 300 298 297 296
311 310 310 311 312 312 311 310 310 310 310 308 303 305 308 308 308 306 309 305 309 310 308 306 312 311 301 301 303 303 305 304 303 300 299 299 299 299 298 297 297 298 297 295
309 309 311 311 310 310 309 308 308 307 307 305 304 307 307 305 309 306 303 306 306 311 309 310 310 310 302 300 302 303 303 302 302 301 299 299 298 297 297 295 294 292 290 290
310 311 310 310 310 309 308 306 305 308 308 304 306 304 304 303 304 306 304 304 307 312 305 310 308 304 300 300 301 301 300 300 299 298 298 297 295 293 291 290 290 290 290 290
311 311 310 310 307 311 317 311 310 307 303 303 304 304 304 303 304 303 308 311 308 304 309 308 305 301 300 300 299 299 297 297 297 295 293 292 291 290 290 290 290 290 290 290
309 309 308 309 311 305 306 307 307 301 303 304 303 302 304 303 306 305 312 304 305 308 309 307 300 300 299 298 297 295 294 293 293 292 291 291 291 290 290 290 291 291 291 290
306 304 306 304 297 298 298 300 301 301 303 304 304 304 305 304 305 304 305 306 308 307 307 303 299 299 298 296 294 293 293 292 292 291 291 291 291 291 291 291 290 289 287 286
299 298 300 298 300 299 299 300 299 302 303 305 304 303 307 304 305 307 308 309 308 304 301 299 299 297 297 295 294 293 292 291 291 291 291 291 291 290 289 288 287 286 285 284
298 297 298 298 298 298 298 299 299 301 303 302 303 307 304 301 304 304 302 304 302 298 298 298 298 297 295 294 293 293 294 294 292 291 291 290 289 288 287 286 285 284 283 281

GFSNW_850_thetae_051.txt.gz
Theta_e
299 301 303 309 315 316 310 315 319 321 316 316 320 325 322 320 319 322 322 320 319 320 320 321 320 319 321 321 322 322 322 322 322 322 322 321 322 322 322 323 321 321 323 320
298 301 303 307 314 316 310 316 319 322 319 321 326 323 322 320 320 321 322 320 319 320 321 321 321 320 322 321 323 322 323 320 321 323 322 321 321 321 321 321 321 322 326 320
297 299 302 306 313 315 312 317 323 320 321 317 323 324 323 320 319 321 322 321 320 321 320 321 322 322 322 321 322 317 319 321 321 323 322 322 323 322 321 321 323 320 318 319
298 299 302 304 311 313 314 318 319 320 323 321 324 323 322 321 319 321 322 323 322 323 322 322 323 324 323 321 318 319 323 323 322 321 321 320 321 321 321 321 320 321 319 318
298 300 302 306 311 311 314 319 319 319 318 318 324 321 323 320 319 321 323 323 321 323 323 324 323 324 324 324 322 323 322 323 323 322 321 320 320 320 319 319 319 318 318 318
298 301 302 307 310 310 313 319 319 319 321 322 324 325 323 320 320 324 323 322 321 324 324 325 325 323 323 324 325 325 324 323 322 321 318 318 321 320 319 319 319 319 320 319
298 301 301 303 310 310 314 319 319 321 325 325 322 320 321 319 320 324 323 323 324 323 322 321 321 321 321 321 321 323 324 324 323 321 315 323 317 316 316 317 318 318 318 318
300 301 301 302 309 309 314 318 321 320 327 322 320 319 320 318 322 324 324 322 323 321 322 324 323 324 323 320 318 318 319 321 320 325 318 317 316 314 314 315 315 315 316 315
301 301 301 302 307 310 313 321 322 321 325 323 318 318 318 321 325 325 320 320 319 319 325 327 325 324 321 323 322 316 316 318 321 320 327 327 317 315 315 315 315 314 315 316
301 300 303 304 309 310 310 317 321 321 319 317 318 320 321 319 322 325 320 320 319 319 327 324 331 326 321 323 325 321 322 322 325 322 326 322 317 315 315 316 318 315 315 315
302 302 304 308 310 310 311 317 320 321 321 320 320 318 318 319 322 326 321 321 321 322 325 326 329 329 323 321 320 321 322 325 321 325 321 323 314 315 317 318 315 315 315 316
303 304 309 310 310 311 312 316 319 321 323 321 321 320 319 321 322 322 320 321 322 323 326 327 328 322 319 325 323 318 322 322 323 321 321 316 314 315 316 315 315 315 315 315
307 310 310 310 310 312 313 318 320 321 322 320 321 321 317 319 321 322 322 323 323 322 323 323 325 322 324 323 324 321 319 316 318 318 316 315 314 314 314 314 314 314 314 314
309 309 309 311 312 313 313 319 319 320 320 323 320 318 318 317 317 319 323 323 321 320 321 322 317 322 319 324 321 320 318 316 317 317 315 314 314 314 314 314 314 313 313 313
308 310 311 313 313 313 315 319 318 319 320 319 319 317 317 317 318 317 317 319 319 320 319 317 324 318 319 317 317 319 316 316 318 318 315 315 315 313 313 314 314 312 310 309
311 313 314 314 313 315 318 317 316 317 318 319 321 316 316 317 318 318 319 320 321 322 317 318 316 313 319 320 321 316 314 313 314 315 314 314 313 312 312 311 308 307 305 303
315 315 314 313 314 317 317 317 317 315 317 318 316 318 316 316 318 316 318 317 317 320 316 314 317 316 318 315 321 315 313 313 312 312 313 312 311 309 306 303 302 301 300 298
316 316 314 314 315 315 313 315 316 316 314 317 314 316 316 315 317 316 315 316 317 312 311 312 314 313 314 320 315 312 312 311 310 309 309 308 304 303 303 301 300 300 298 297
316 315 315 314 315 316 313 314 315 315 311 309 311 317 317 311 310 311 313 313 311 311 312 313 314 312 316 310 309 309 309 310 308 306 305 303 303 301 301 300 299 298 297 298
315 314 315 313 313 310 309 310 311 310 309 307 309 311 314 312 311 309 311 308 311 313 310 311 315 313 304 304 304 306 308 308 306 304 302 301 301 301 300 299 299 299 297 296
312 311 311 311 310 310 309 308 313 313 312 308 308 311 311 308 312 308 306 309 309 312 312 313 313 312 304 303 304 304 305 304 302 302 301 300 299 299 298 296 294 292 292 290
310 311 310 310 310 309 313 309 309 312 311 306 307 307 307 305 308 307 306 307 308 313 309 315 311 305 303 303 303 303 302 301 300 299 299 298 297 295 294 293 291 290 290 290
310 310 311 311 308 313 313 312 311 308 305 304 305 306 305 304 306 305 311 309 311 307 311 310 308 304 303 302 302 301 300 300 299 296 295 293 292 291 290 290 290 291 291 290
310 309 310 310 309 308 308 310 307 302 303 305 304 304 306 305 307 311 308 307 307 309 311 310 304 302 302 301 300 299 296 295 294 294 292 290 290 290 290 291 291 290 289 288
305 306 308 304 298 299 299 300 301 302 304 304 305 306 307 307 307 307 305 308 310 310 311 305 301 300 299 298 297 295 293 292 293 291 291 291 291 291 291 290 289 288 287 286
300 299 301 299 301 300 300 300 300 302 304 306 307 308 311 307 308 311 312 311 311 307 303 300 299 298 298 297 296 295 294 294 294 292 291 291 291 290 289 288 287 286 285 283
298 298 298 299 299 298 298 300 300 302 303 305 306 310 307 304 306 306 305 307 304 299 298 299 298 298 297 296 294 293 293 294 293 291 291 290 289 288 287 285 284 283 282 281

GFSNW_850_thetae_054.txt.gz
Theta_e
304 304 302 302 303 311 316 312 313 313 316 318 316 322 322 321 322 320 322 321 320 320 320 320 319 319 319 320 321 322 321 322 324 323 322 321 321 322 322 329 322 325 327 323
304 303 302 302 303 309 314 313 316 319 317 319 318 318 321 322 322 321 322 322 320 321 320 320 320 320 323 322 322 322 323 323 324 322 322 322 321 320 320 322 325 324 332 324
303 302 301 301 303 309 313 314 319 321 320 317 316 320 322 323 321 320 320 322 320 320 320 321 321 321 323 322 322 319 322 323 321 324 321 322 323 322 320 321 330 325 324 321
302 301 300 301 303 307 311 315 318 319 321 322 320 322 321 322 322 320 320 322 321 320 321 321 321 321 324 322 320 320 322 321 319 319 320 321 322 322 321 321 321 323 323 319
301 299 298 300 303 305 312 315 318 320 320 319 320 319 325 323 322 320 321 323 322 321 322 321 321 323 326 323 323 323 323 324 323 324 322 322 321 320 320 320 320 319 320 319
300 298 298 298 302 305 311 314 317 320 320 321 319 322 325 323 324 321 319 323 323 323 323 324 325 324 324 323 325 325 324 326 327 327 320 318 320 320 319 319 319 320 320 321
298 297 298 298 302 304 311 313 319 320 323 320 320 321 323 324 323 323 322 323 324 324 324 323 323 323 323 324 324 324 326 327 328 329 317 322 318 318 316 317 317 317 317 318
297 297 298 300 302 304 310 313 318 320 321 320 319 322 324 324 322 321 323 324 326 323 324 327 326 325 320 322 321 321 323 326 326 323 322 318 318 317 316 316 316 317 316 316
296 297 298 300 302 303 309 313 317 322 324 323 317 322 323 325 324 326 323 323 324 324 329 329 327 329 323 322 321 317 318 323 325 325 326 323 319 316 315 315 318 315 315 316
297 297 299 301 301 304 308 310 316 320 322 320 319 321 322 322 324 327 323 321 321 322 329 319 326 331 320 325 326 320 323 323 324 323 325 324 320 317 315 318 321 316 315 314
297 298 300 301 302 305 307 311 316 316 321 321 321 319 319 321 323 327 323 323 323 328 322 320 332 331 326 324 322 323 323 326 321 327 322 323 316 315 317 319 316 316 315 316
298 300 301 301 304 305 306 309 317 320 322 323 323 321 319 321 323 325 322 323 323 325 329 328 331 322 320 327 329 320 324 324 327 324 324 318 314 316 317 315 315 315 316 316
299 301 301 301 305 308 309 313 316 320 321 322 322 322 318 319 322 324 323 323 322 323 324 328 330 322 328 322 329 323 320 319 323 321 317 317 315 315 315 315 315 315 315 315
300 301 302 304 304 308 309 311 317 320 320 322 321 320 319 319 321 323 324 324 323 324 324 326 316 321 323 329 325 324 321 319 318 318 317 316 316 316 315 316 315 315 314 314
301 303 304 306 309 310 310 311 314 318 321 319 320 319 318 318 318 321 323 324 322 323 319 311 329 322 325 322 322 323 318 318 323 323 317 317 316 314 314 314 313 312 310 307
304 305 307 309 310 309 310 315 313 317 321 319 320 317 318 320 320 320 321 322 322 324 320 322 319 317 323 321 325 318 316 316 316 317 315 315 313 312 312 309 307 305 304 302
308 309 310 310 310 313 315 316 317 317 318 317 314 317 317 319 319 319 320 321 321 322 319 318 319 317 319 315 326 316 315 315 314 314 314 313 313 307 305 304 302 301 300 300
309 310 311 312 314 315 315 316 316 316 316 316 312 312 316 317 319 317 318 318 318 314 313 314 316 315 317 323 316 315 314 312 311 311 311 309 306 304 303 302 301 299 298 298
312 313 314 313 314 315 314 314 315 314 313 311 309 311 315 314 313 313 313 314 311 312 312 314 316 312 316 315 313 312 311 311 309 307 306 306 304 302 301 300 299 299 298 298
314 314 314 315 315 314 314 312 315 311 309 307 312 312 314 313 312 310 312 309 312 315 312 313 315 312 308 307 307 308 309 309 307 306 304 303 302 301 300 300 299 298 296 295
315 312 312 311 311 312 311 309 311 311 311 310 311 311 312 310 312 309 308 310 311 315 313 314 313 313 306 306 306 307 307 306 305 304 303 302 301 300 298 295 294 293 290 290
313 311 310 311 311 309 310 309 308 312 312 307 311 310 309 308 310 308 308 309 310 315 310 311 313 306 305 305 304 303 303 303 302 301 300 299 298 296 294 293 291 290 290 290
311 311 309 311 308 311 312 310 312 309 305 306 307 307 305 306 307 305 308 311 314 310 310 311 309 305 304 304 303 302 301 300 300 297 296 295 294 292 290 290 291 291 290 289
311 310 308 309 311 308 307 307 307 302 305 306 305 306 307 306 305 307 308 307 308 310 312 311 306 304 303 302 301 300 298 297 295 294 291 290 290 290 290 290 290 289 288 287
305 305 306 304 298 299 300 300 301 303 305 306 306 307 306 306 306 307 306 308 310 311 312 306 304 302 302 301 299 296 295 295 294 292 291 290 291 291 290 289 289 288 287 286
300 299 302 300 302 301 300 301 301 304 305 307 307 307 305 308 309 309 308 311 312 309 303 301 301 300 299 298 296 294 294 294 292 291 291 291 291 290 289 288 287 286 285 285
299 298 298 299 299 298 298 300 301 303 303 305 308 309 307 307 308 307 305 307 303 299 299 299 299 299 297 296 295 295 295 294 293 291 291 290 289 288 287 285 285 283 282 282

GFSNW_850_thetae_057.txt.gz
Theta_e
300 300 302 305 303 303 308 314 315 314 311 315 315 317 317 319 321 321 322 321 321 320 318 319 318 319 318 319 321 321 321 321 322 324 321 319 319 320 322 317 320 320 316 318
300 300 302 304 303 303 308 314 315 314 311 312 314 315 317 318 321 321 322 322 321 320 320 321 320 319 323 321 320 321 322 320 318 320 319 321 321 319 319 319 319 320 316 318
299 300 303 304 303 303 309 314 315 317 316 311 313 315 315 317 318 320 321 322 321 321 320 320 322 323 322 322 320 319 322 322 319 318 318 319 322 320 319 318 316 319 318 320
299 300 304 304 303 302 308 313 314 318 319 317 315 314 315 318 320 321 321 321 321 321 320 320 320 323 322 322 320 320 319 319 319 317 318 320 320 321 320 320 319 318 318 319
298 298 301 304 303 301 305 312 316 319 320 318 318 315 315 317 320 321 322 321 321 320 320 319 319 323 324 322 320 321 320 321 321 322 321 319 318 319 319 318 318 318 317 317
295 297 301 303 303 301 304 311 315 317 319 319 319 318 316 318 320 321 321 319 321 322 320 323 322 324 323 322 321 320 321 321 317 321 314 315 313 316 317 317 317 317 317 315
294 296 301 302 302 302 305 309 313 318 317 319 319 317 316 319 320 323 321 319 320 323 323 322 322 322 321 323 322 322 322 321 315 314 312 311 316 316 315 316 315 313 313 314
294 297 302 302 301 301 304 311 312 318 310 318 319 316 317 317 319 322 322 322 322 323 323 322 321 318 315 318 321 320 320 317 315 312 313 316 316 315 314 314 314 313 313 314
297 301 301 302 299 301 302 309 313 314 317 319 318 316 317 319 322 323 323 323 323 324 323 319 320 319 320 321 318 317 318 317 311 311 314 311 315 314 315 314 312 314 313 313
300 300 301 299 298 300 301 303 307 309 319 319 319 316 316 320 322 321 322 322 323 322 310 313 314 315 319 319 319 315 310 310 310 307 310 313 318 314 314 312 312 315 316 317
300 300 298 298 298 300 300 302 307 312 316 320 320 317 318 321 322 319 321 320 321 321 313 314 312 311 316 317 322 317 315 313 310 313 316 315 318 314 313 315 316 315 316 317
298 297 298 298 299 301 301 303 305 309 310 318 321 321 318 321 322 323 321 320 321 323 316 314 313 316 311 316 315 319 318 318 316 315 315 316 317 316 315 315 315 315 315 315
297 297 297 298 300 300 302 303 307 309 312 320 322 321 320 321 322 322 322 323 321 324 322 319 315 314 313 314 315 319 319 319 317 316 317 314 316 315 315 315 314 314 314 314
296 297 298 299 301 300 302 303 307 312 315 315 320 320 319 321 323 322 321 321 325 324 322 315 309 312 319 315 318 317 317 316 316 316 315 316 315 315 315 314 314 313 313 313
297 298 299 301 301 302 303 304 306 311 313 315 319 319 319 319 322 322 320 320 323 322 313 307 312 318 316 315 314 315 316 316 311 311 316 315 314 314 314 313 310 310 310 308
298 299 301 301 302 304 303 305 307 312 312 318 312 318 320 320 320 323 320 317 323 321 319 316 317 318 317 309 310 315 315 316 317 316 316 313 310 310 310 309 306 305 305 303
299 300 301 303 304 304 307 312 315 314 313 316 309 312 318 319 320 321 321 323 321 319 317 318 315 317 313 309 311 315 314 314 315 314 312 309 309 303 305 305 303 303 302 302
299 300 303 304 306 308 308 314 315 318 317 316 307 309 315 317 318 316 318 318 315 313 313 315 312 313 313 310 314 313 312 312 312 313 312 306 304 304 303 303 302 301 299 298
303 304 306 306 308 310 309 313 312 313 314 307 305 312 313 315 313 314 314 313 308 312 305 311 311 309 309 313 313 312 310 309 307 306 305 305 304 302 301 300 299 298 298 296
305 306 310 309 313 313 314 313 314 311 309 310 307 312 310 313 311 309 309 309 306 309 308 312 307 307 308 308 309 310 310 307 306 305 303 302 301 300 299 299 298 297 297 296
310 312 311 311 312 312 311 308 308 309 303 310 311 311 309 311 307 305 308 305 304 310 308 309 309 307 307 307 308 309 309 306 306 306 304 303 300 299 298 297 297 295 291 290
313 311 310 311 309 308 308 304 303 308 306 307 308 309 309 309 308 306 305 306 305 311 307 309 307 306 306 306 306 306 307 306 305 304 302 300 298 298 297 294 291 290 290 290
312 311 309 308 306 307 308 307 307 306 304 306 307 304 306 307 306 304 305 308 309 307 307 305 305 305 305 304 303 303 303 303 301 300 299 297 295 295 292 290 291 290 289 288
310 307 306 306 306 304 303 304 304 303 305 306 306 307 304 305 303 303 307 304 305 308 307 306 304 304 303 302 302 300 299 298 297 296 296 295 292 290 291 291 290 289 288 287
305 304 304 301 299 299 300 301 302 304 305 306 305 305 305 303 305 303 304 306 308 306 306 304 303 303 302 301 300 298 296 296 295 293 291 290 290 290 290 288 288 287 287 286
300 299 301 300 301 300 300 302 302 305 306 307 306 303 305 306 305 306 307 306 306 305 301 303 302 301 299 298 297 296 296 295 291 290 290 290 290 289 288 287 287 286 285 284
298 297 298 299 299 298 298 300 302 304 304 303 303 305 305 303 305 304 302 302 300 299 301 301 301 299 297 296 295 295 294 292 291 291 291 290 288 287 287 286 284 284 283 282

GFSNW_850_thetae_060.txt.gz
Theta_e
296 296 297 300 301 304 303 306 313 312 315 312 311 316 316 315 317 318 321 321 321 318 316 316 316 317 317 318 319 319 319 318 320 321 320 320 318 319 318 317 318 317 314 316
295 296 295 301 301 305 303 309 312 314 316 314 310 312 316 316 316 318 320 321 321 319 319 317 317 317 321 320 319 318 319 319 319 321 318 318 320 317 317 318 314 316 314 316
295 296 296 301 302 305 303 310 313 314 314 315 310 311 314 317 315 316 318 320 320 320 320 318 317 321 321 320 319 320 319 318 316 320 318 316 319 320 317 316 313 316 316 318
295 296 297 300 301 304 303 311 313 313 316 314 312 311 313 315 316 315 318 320 320 321 320 318 319 322 321 321 318 319 317 318 318 317 317 319 319 319 319 319 317 317 316 317
295 296 299 300 300 304 304 311 313 314 315 313 312 311 312 314 314 315 315 318 320 320 318 317 317 321 320 319 319 318 318 317 318 319 316 316 318 317 316 317 317 316 316 316
295 296 299 300 301 304 305 305 311 316 313 314 314 312 312 313 313 315 314 319 320 320 320 319 318 321 322 320 318 318 318 318 314 318 312 315 315 315 316 316 316 316 315 314
295 296 299 300 301 304 305 304 310 314 315 316 315 314 313 313 313 314 317 314 318 319 321 321 321 320 320 320 319 319 318 317 311 313 310 314 316 315 315 314 312 312 313 314
296 297 298 298 301 302 304 305 310 314 310 316 318 315 316 315 313 316 314 319 320 320 321 318 318 315 316 319 317 318 319 313 313 312 313 315 315 315 311 312 313 312 313 312
296 296 297 297 300 302 303 305 307 312 315 316 317 317 316 316 316 316 321 321 323 322 318 315 318 318 318 320 317 314 315 312 313 312 311 311 313 313 313 311 311 313 313 312
296 296 296 296 301 304 303 303 308 308 312 318 317 317 316 315 315 317 322 322 323 323 310 314 313 316 317 318 316 312 309 309 311 304 306 309 311 314 313 311 310 314 315 315
295 295 295 296 301 304 303 302 303 305 310 316 318 317 316 315 315 317 319 320 318 315 314 315 315 310 315 315 317 313 313 312 310 309 304 313 314 313 312 311 315 316 316 316
294 295 297 300 303 303 303 303 302 305 306 311 314 320 318 315 315 319 321 320 318 319 315 312 313 315 307 313 316 317 316 312 312 313 312 312 314 315 315 315 315 315 315 315
299 297 299 302 303 301 301 302 302 304 306 310 316 321 320 318 317 317 320 320 319 320 320 316 315 314 311 312 310 316 318 317 316 316 314 314 314 314 315 315 314 314 314 314
300 299 300 301 300 299 300 301 303 305 310 312 318 320 319 322 319 320 321 321 322 324 322 311 310 310 314 310 314 314 315 315 315 314 314 314 314 314 314 314 313 313 312 313
299 298 298 298 299 300 301 301 302 309 309 311 318 319 320 322 323 321 322 322 322 321 312 305 313 314 314 311 311 314 314 314 312 311 315 312 313 314 313 312 311 311 312 309
297 296 297 298 301 301 302 301 301 305 305 308 311 318 319 321 322 321 321 321 321 318 319 314 316 317 313 308 308 313 315 316 315 315 315 314 311 310 311 311 308 307 308 305
297 297 298 300 301 300 302 304 309 307 305 307 309 311 318 319 320 320 320 320 318 316 317 316 314 315 312 304 309 313 314 315 315 315 313 306 308 305 307 308 304 303 302 301
298 298 300 301 302 303 304 309 313 311 307 308 307 312 315 316 316 314 317 316 315 314 313 315 310 312 309 309 312 312 313 311 310 311 313 310 306 305 304 304 303 301 299 298
299 301 301 303 304 305 305 309 312 312 311 306 306 311 312 314 313 313 312 311 307 310 306 308 309 306 307 310 311 309 312 312 306 308 308 304 304 303 302 301 299 299 297 296
301 300 303 305 307 308 305 307 310 310 309 310 305 310 310 311 309 306 307 308 305 311 305 311 303 306 307 310 311 310 309 309 308 304 302 303 302 301 299 299 298 298 296 296
301 304 309 310 308 309 307 306 306 306 302 308 310 308 309 311 307 305 307 304 304 309 309 308 308 308 306 308 309 308 308 309 309 308 306 304 302 299 298 298 297 296 295 292
308 310 309 309 310 308 307 303 303 305 306 306 307 308 309 309 308 305 304 305 304 309 306 308 310 306 307 307 308 306 306 307 306 305 304 301 300 299 298 297 295 292 290 290
310 311 309 308 305 306 305 306 306 305 303 307 307 304 307 307 306 303 304 307 307 303 304 307 304 306 305 305 306 305 304 304 303 302 301 299 297 297 297 293 290 290 289 288
310 307 305 305 306 303 302 304 304 303 305 305 304 303 303 305 304 302 307 304 303 301 301 305 304 304 304 304 303 303 302 303 302 300 298 297 297 293 291 290 289 289 288 287
303 303 303 301 298 300 300 301 303 305 305 306 304 304 305 302 304 302 302 307 307 304 304 303 304 303 303 301 301 301 300 299 297 296 296 295 292 291 290 289 288 287 287 286
300 298 301 300 301 301 300 302 302 306 306 305 305 303 304 305 304 305 305 305 305 305 301 302 302 302 302 300 299 297 296 296 295 294 292 291 290 290 289 287 286 286 285 285
298 297 297 298 298 297 298 300 302 304 305 302 297 305 305 301 304 304 301 302 300 299 301 301 301 300 299 298 297 296 295 293 290 290 290 290 289 287 287 286 285 285 284 283

GFSNW_850_thetae_063.txt.gz
Theta_e
295 296 297 299 298 301 303 305 306 309 309 314 313 312 314 314 315 315 318 320 321 321 315 315 315 316 316 316 316 315 316 315 315 318 318 318 317 317 316 315 317 315 314 315
295 296 297 299 297 301 303 304 307 310 311 314 314 312 312 315 315 315 317 320 320 319 316 315 315 315 316 319 316 317 317 316 317 317 317 318 319 316 317 316 312 315 314 315
297 295 295 298 297 300 304 304 308 312 312 312 314 313 313 314 315 315 315 317 318 320 319 317 316 317 320 319 318 317 317 316 317 317 317 317 319 319 316 316 314 315 314 315
298 296 295 295 297 299 300 304 307 311 311 312 314 312 312 314 316 315 314 314 316 319 320 318 317 320 320 319 316 317 316 318 316 316 316 317 317 318 316 316 315 316 316 314
298 296 296 296 296 297 298 303 309 311 312 312 313 312 312 313 314 314 314 315 318 315 318 318 317 320 319 319 318 317 316 315 316 317 316 315 318 317 316 316 316 315 315 314
299 296 295 295 295 295 298 303 308 310 312 312 312 313 311 312 313 314 313 313 315 315 318 319 319 319 319 317 317 316 316 315 312 315 313 314 314 313 315 315 314 314 315 313
298 296 295 295 296 296 302 303 306 311 310 312 311 311 312 312 312 313 314 313 313 314 316 319 319 318 318 318 317 316 315 313 309 311 310 313 314 314 314 313 312 310 313 312
298 295 295 295 296 297 299 303 305 311 307 312 314 311 311 311 312 313 312 314 312 314 317 317 318 314 317 317 316 318 316 311 311 312 313 313 317 314 312 311 312 312 312 311
297 294 294 295 297 299 300 303 304 307 311 313 314 312 312 311 311 312 312 312 313 319 316 313 317 319 320 321 317 313 313 310 312 307 311 314 315 313 312 310 311 312 311 311
296 294 294 296 297 300 300 303 305 305 309 313 314 314 313 313 313 313 313 318 321 320 308 311 311 315 318 317 316 313 310 308 311 305 307 312 311 312 312 310 310 312 313 313
295 295 295 297 298 299 299 301 304 307 307 311 315 316 316 314 314 314 316 320 318 312 313 313 311 309 315 315 315 313 315 313 308 304 304 316 312 312 311 309 312 314 314 314
295 296 297 298 298 299 299 300 303 305 304 308 311 315 316 315 315 314 319 317 318 318 314 310 312 312 308 312 315 314 315 312 313 312 312 312 313 312 314 314 315 315 315 314
296 297 297 297 296 297 300 301 303 302 302 307 311 316 317 319 316 315 317 318 319 319 318 314 313 316 310 315 313 316 315 313 312 313 314 313 313 314 314 315 315 315 314 314
296 296 296 295 296 298 300 302 303 303 304 309 316 318 319 320 319 316 314 316 319 320 319 311 310 311 314 313 315 314 314 314 314 313 313 313 313 313 314 314 314 314 314 314
295 295 295 296 300 300 302 303 302 303 303 308 311 317 319 320 320 317 316 319 320 320 313 306 312 313 313 310 311 313 313 314 313 313 313 313 313 313 312 313 313 313 313 312
296 297 298 299 303 302 302 301 302 304 304 304 307 317 318 320 320 319 319 320 321 320 318 311 313 315 311 308 310 312 314 314 315 314 314 314 314 312 310 311 311 310 310 310
298 299 300 300 301 301 301 302 303 304 305 304 306 310 318 318 320 319 319 319 318 317 315 315 313 314 311 303 308 312 313 315 314 315 314 308 310 308 308 310 308 307 305 303
299 299 299 299 300 301 304 309 307 303 305 306 305 309 313 317 315 314 316 315 315 315 314 314 309 312 309 312 311 312 309 310 310 311 313 312 309 307 305 305 303 302 300 299
298 298 300 300 300 299 302 309 310 306 306 305 304 310 313 313 312 312 311 312 307 310 305 305 310 306 313 313 315 311 308 311 307 309 310 307 307 303 302 301 301 301 297 297
299 300 300 302 302 302 307 305 308 309 310 310 304 309 310 310 308 305 306 307 306 310 307 310 301 307 308 309 311 312 309 309 309 304 300 302 301 301 300 300 300 300 298 297
301 302 302 304 305 305 305 303 301 303 304 307 309 309 309 310 307 305 305 305 303 311 310 310 309 309 305 309 310 310 310 311 309 310 307 304 304 302 300 299 298 296 295 294
301 304 307 307 307 304 305 303 300 303 306 305 306 307 309 307 308 304 303 305 303 312 306 309 311 305 306 307 307 308 308 308 307 307 306 304 302 301 299 298 296 295 293 291
304 308 308 307 303 306 308 308 304 305 302 305 306 304 307 306 307 302 304 307 306 303 308 310 306 305 305 305 305 305 305 305 305 304 304 304 300 299 298 296 294 292 290 288
306 305 305 304 306 303 303 304 304 303 304 304 304 301 301 305 303 302 306 304 304 305 303 302 303 304 303 304 305 305 303 303 304 303 299 299 298 297 295 293 291 289 289 287
301 302 302 301 299 300 300 301 303 303 304 305 302 303 304 302 303 300 304 306 308 303 299 302 303 301 301 300 302 303 303 301 299 298 298 296 295 294 291 289 288 288 288 287
299 298 301 300 301 301 300 303 302 304 305 305 304 301 304 304 303 304 301 304 305 301 301 302 302 302 302 301 300 299 298 297 296 295 296 295 292 290 289 288 287 286 286 285
297 296 296 298 298 297 297 300 302 304 304 301 295 303 305 301 303 303 301 301 299 298 300 300 300 300 298 297 297 296 296 295 295 295 293 291 289 289 290 287 285 285 284 283

GFSNW_850_thetae_066.txt.gz
Theta_e
303 302 300 297 298 300 300 302 304 305 304 310 312 314 311 312 315 316 315 317 319 320 314 313 314 314 314 314 313 313 314 312 313 316 317 315 315 316 315 316 316 314 312 314
303 302 300 297 298 300 300 302 305 306 304 309 312 313 313 313 314 314 315 317 317 318 317 315 313 314 314 314 313 314 315 313 313 314 314 316 319 316 315 313 311 315 313 315
303 302 300 297 297 300 300 303 305 308 308 308 309 313 314 312 313 313 314 316 317 319 319 315 315 314 317 316 315 316 316 314 313 315 314 314 318 317 315 315 313 314 313 315
303 302 300 298 296 300 299 302 305 308 309 308 309 310 312 313 313 314 314 314 316 318 320 317 316 318 319 318 316 315 314 315 314 314 315 314 315 316 313 314 314 315 315 313
303 302 300 298 296 298 298 299 305 307 308 309 309 312 312 313 312 314 314 314 314 316 317 317 317 320 318 318 316 315 313 315 314 317 315 315 318 316 314 314 315 313 314 313
303 302 300 298 296 298 299 299 304 306 309 309 309 309 311 311 311 312 313 313 313 315 314 314 315 316 317 316 316 314 314 313 312 316 312 314 314 313 314 314 313 314 314 312
303 301 300 298 295 298 298 298 300 306 309 310 309 307 311 311 311 312 313 313 313 313 314 314 317 317 316 315 316 314 313 312 309 312 309 311 313 313 312 313 312 310 309 312
302 301 300 298 295 297 297 298 300 306 307 309 310 309 310 311 310 311 312 313 313 314 316 317 317 314 317 316 315 317 313 310 310 314 312 312 314 314 312 312 312 309 309 311
301 301 300 299 295 296 297 297 299 303 308 307 310 311 309 310 310 309 311 311 312 313 314 313 317 318 318 320 317 312 311 309 311 307 311 314 313 313 310 309 311 309 310 310
301 301 300 299 296 295 297 296 298 301 303 309 310 310 310 310 310 308 309 312 314 315 303 305 313 317 316 317 318 315 311 308 310 304 308 312 312 311 310 311 311 309 312 313
301 301 300 298 296 295 297 296 300 299 304 305 311 312 311 311 310 309 310 313 313 309 310 308 309 309 314 314 316 316 317 314 309 304 306 317 311 311 310 309 310 312 312 313
300 300 299 297 296 295 297 297 298 303 305 306 308 312 313 311 310 310 313 312 314 314 313 308 309 311 308 313 316 312 318 316 315 314 314 313 312 312 313 312 312 313 313 313
300 299 297 296 296 296 296 298 300 303 305 305 307 312 314 313 312 312 315 314 317 317 318 311 313 313 310 313 312 317 313 311 312 313 312 311 313 313 313 313 314 314 314 314
298 297 296 296 296 298 299 299 301 303 304 304 311 315 316 315 317 314 314 316 316 319 318 310 310 312 312 312 315 314 313 313 312 311 312 313 314 314 314 314 314 314 314 313
296 295 295 297 298 298 299 299 300 303 305 306 306 312 317 318 317 317 315 314 319 319 311 305 311 312 313 309 311 312 313 313 313 314 314 314 314 314 313 314 314 314 314 311
296 297 298 297 297 297 300 301 300 302 302 303 304 311 317 317 317 316 317 315 315 316 316 308 313 314 313 309 309 312 315 315 315 314 315 314 314 314 313 314 314 314 313 312
297 296 297 295 297 299 301 302 302 302 301 303 303 307 316 317 317 317 318 317 318 318 315 312 313 314 310 302 308 311 313 314 314 314 313 310 311 310 311 312 311 311 310 307
295 295 296 297 299 300 302 306 303 302 303 304 303 308 312 315 314 312 315 315 315 313 312 312 307 311 308 311 310 311 309 311 310 309 311 312 310 308 308 308 308 307 305 303
298 298 300 300 301 301 302 305 304 304 304 303 303 308 312 313 311 311 312 311 307 310 307 307 312 305 311 313 312 310 309 312 309 310 309 310 311 306 305 304 303 305 301 300
300 300 300 300 300 302 305 305 303 304 305 306 304 308 310 310 307 305 306 306 307 310 308 310 307 309 310 314 313 314 312 314 313 309 304 303 301 304 302 304 302 302 300 299
300 301 302 301 304 303 302 300 302 303 303 306 308 309 309 308 307 305 304 305 303 311 308 310 309 310 306 310 311 312 311 309 310 310 308 305 304 301 301 299 299 299 299 297
302 303 302 303 304 304 303 304 300 302 305 304 306 307 308 307 306 303 303 306 304 311 306 309 311 305 305 307 307 307 309 308 307 308 307 305 303 302 301 299 299 298 296 295
304 304 303 305 302 306 305 307 302 305 302 305 306 304 306 305 302 302 304 307 307 303 309 311 305 304 304 305 305 305 305 306 306 304 303 302 301 299 300 299 296 294 293 292
301 303 304 304 305 304 304 304 303 302 303 304 304 302 303 303 303 303 307 303 304 306 307 306 300 303 302 303 304 304 303 303 303 302 301 300 301 299 298 294 291 292 290 287
299 301 302 301 299 299 299 300 302 302 303 304 303 303 304 301 303 301 304 306 305 301 299 301 300 301 301 301 302 302 301 301 301 302 301 299 297 294 292 291 291 289 287 288
298 297 301 300 301 300 299 301 300 303 304 304 303 301 303 303 302 300 301 298 298 301 300 300 298 298 298 298 299 299 300 301 299 297 296 294 293 293 291 287 285 286 288 285
297 296 294 297 297 297 296 297 300 302 303 301 297 304 305 301 303 303 300 300 299 297 296 298 298 298 297 297 296 296 295 294 293 293 293 292 291 288 286 287 285 284 283 283

GFSNW_850_thetae_069.txt.gz
Theta_e
300 301 302 301 302 299 296 300 302 302 302 307 308 310 311 311 314 315 316 316 319 320 314 314 315 316 316 312 313 315 316 317 317 319 316 316 317 320 319 324 320 317 318 319
301 301 302 302 302 299 297 301 301 303 303 307 309 309 311 312 313 314 315 316 316 318 318 314 314 314 314 312 314 316 316 315 317 316 316 317 320 317 316 316 316 319 324 322
301 301 301 302 302 299 297 301 302 304 305 306 307 309 310 312 312 313 314 315 315 317 318 316 315 315 314 312 313 314 315 316 317 318 317 317 319 319 317 319 321 321 319 320
302 301 301 302 302 298 298 301 303 304 306 305 306 308 309 311 312 313 313 315 316 317 317 318 316 316 318 316 315 314 317 318 316 315 313 315 317 318 317 318 319 321 321 316
302 301 301 302 302 298 298 301 303 303 307 305 305 308 310 311 312 312 313 315 314 315 318 318 317 317 318 318 315 316 314 318 315 316 314 315 317 316 315 316 315 316 315 316
302 301 302 302 302 298 300 300 301 303 305 307 305 305 308 311 312 312 312 313 314 315 314 315 314 315 315 317 317 316 315 316 317 319 314 316 317 317 317 316 316 317 318 318
303 301 302 302 302 298 300 299 301 303 305 308 307 305 307 309 312 312 313 312 313 312 313 313 313 315 315 315 315 315 315 315 314 318 312 320 319 313 314 316 316 314 313 313
303 301 302 302 302 297 300 299 300 303 305 307 308 307 306 310 311 311 312 313 313 313 314 314 313 314 316 316 315 315 314 313 314 319 318 316 314 314 315 316 316 313 314 312
303 301 302 302 301 297 298 299 299 303 305 307 308 309 306 309 311 310 311 312 312 313 312 313 315 314 318 321 317 312 311 311 319 311 319 320 317 313 311 312 317 313 311 313
301 301 301 302 300 297 298 298 298 301 304 304 306 309 309 307 310 310 309 311 312 312 308 311 314 318 318 322 319 317 314 312 317 312 319 317 313 311 310 320 319 311 311 312
302 302 301 301 300 297 297 297 298 299 301 304 304 307 309 308 309 309 308 311 312 311 312 311 313 314 317 318 317 317 319 318 317 312 316 320 312 309 315 316 310 311 311 312
301 301 301 301 300 297 297 297 298 299 300 303 303 306 308 308 309 309 310 310 311 312 313 310 311 312 310 317 319 313 320 318 319 318 320 315 311 315 313 313 313 312 312 313
301 301 300 300 299 298 298 297 296 297 298 299 300 304 308 309 309 309 311 311 312 312 314 312 314 314 313 316 316 317 314 312 317 316 316 313 313 312 313 312 312 313 313 313
300 300 300 300 299 298 297 297 297 297 301 301 304 307 306 310 310 310 309 311 314 315 315 310 309 315 312 316 318 318 315 314 314 315 313 313 314 314 313 313 312 313 313 313
300 300 300 299 298 298 297 296 296 297 303 304 303 304 310 313 313 310 309 311 314 315 313 306 315 313 314 311 313 315 314 315 317 318 315 316 317 318 317 314 313 313 313 311
300 299 299 298 297 296 296 297 297 298 300 302 304 306 311 314 314 314 312 310 314 317 314 310 313 314 314 315 318 314 315 315 315 315 315 315 315 315 314 313 313 313 312 311
299 298 297 296 296 297 299 300 300 298 299 302 302 304 312 315 316 315 315 314 314 315 315 310 313 313 311 308 316 312 312 313 314 314 314 312 313 312 312 312 312 311 310 309
296 296 297 297 298 298 300 303 302 300 300 303 302 306 310 313 313 312 315 314 315 313 312 310 312 311 307 314 311 311 311 312 312 313 311 312 312 310 310 310 311 309 306 304
297 297 296 297 299 300 302 303 302 301 302 302 302 306 313 312 309 310 312 313 309 309 309 309 313 310 315 314 312 311 313 316 315 313 311 309 309 308 307 307 306 309 304 302
296 296 298 298 299 302 303 303 302 301 303 304 303 307 309 309 307 305 308 306 307 312 310 310 311 310 310 314 315 316 314 314 315 309 304 304 304 305 304 304 304 306 303 301
299 300 300 300 301 302 303 301 301 302 303 304 305 308 308 307 308 306 305 305 304 313 312 313 312 312 308 309 311 312 311 311 308 308 309 309 308 306 306 301 300 301 299 298
301 302 302 303 302 302 302 303 301 304 306 304 305 307 308 306 306 305 303 307 304 313 306 311 313 307 304 306 306 308 308 308 307 307 306 304 303 303 302 301 300 298 297 297
302 302 303 304 301 304 304 304 304 305 302 304 305 304 305 305 304 301 303 308 309 304 310 312 306 304 303 303 304 304 304 305 305 303 303 302 301 299 300 298 296 297 296 294
301 301 304 304 304 304 304 301 303 302 304 305 305 301 303 303 303 302 308 304 304 309 311 307 304 300 301 301 301 301 299 301 301 300 299 299 298 296 296 297 296 295 293 292
298 300 303 301 299 299 299 300 300 301 303 305 303 303 303 302 303 302 305 307 307 305 305 302 298 297 298 299 299 299 298 298 298 297 297 296 296 295 293 292 292 291 288 286
297 295 299 299 301 299 298 299 300 301 303 303 303 303 304 304 302 304 304 303 304 302 300 297 297 297 296 296 297 296 296 296 295 294 294 292 292 292 290 290 287 285 286 289
296 295 292 294 295 295 294 295 296 301 302 301 301 305 305 302 303 302 299 300 298 296 294 295 294 294 294 294 294 293 293 292 291 291 291 290 290 289 285 284 285 287 283 283

GFSNW_850_thetae_072.txt.gz
Theta_e
301 301 301 301 301 301 301 299 302 301 301 302 305 309 309 310 311 316 318 318 321 322 317 317 316 317 317 317 318 319 319 320 320 320 321 321 322 322 323 322 322 323 323 322
301 301 301 301 301 301 300 299 301 302 301 304 306 308 309 310 312 313 317 318 317 320 322 318 318 317 317 316 319 319 319 320 321 319 319 320 321 322 322 322 322 321 326 322
301 301 301 301 301 302 301 299 302 302 302 303 306 307 309 310 309 313 314 316 317 319 319 320 318 317 316 315 317 318 318 320 320 320 319 318 320 319 320 321 323 320 321 321
301 301 301 301 301 301 300 300 303 303 304 304 306 307 307 309 310 311 312 316 317 318 319 320 319 317 319 315 315 317 320 319 320 319 318 318 318 318 319 320 320 320 321 320
302 301 302 301 301 301 300 300 304 303 305 305 306 307 308 308 310 311 311 314 316 318 319 318 318 318 318 320 319 319 319 320 320 320 319 319 319 319 319 320 320 321 321 320
302 302 301 301 301 301 299 301 301 303 305 307 306 306 307 309 310 311 311 313 313 316 317 317 316 316 316 318 320 321 321 320 320 320 320 320 321 321 320 320 321 321 321 320
300 302 302 301 301 301 300 300 302 304 306 307 307 306 306 307 309 311 311 312 314 314 314 314 313 313 313 315 317 319 321 321 322 321 318 327 320 319 320 321 321 321 320 320
299 301 302 302 301 301 300 300 302 303 307 306 306 307 306 305 307 310 311 312 312 313 312 314 313 313 312 312 314 319 321 322 323 328 322 320 319 315 319 320 320 320 320 319
299 300 302 302 301 301 300 300 302 303 307 306 305 307 306 308 309 311 312 312 314 314 315 315 314 313 312 317 320 317 318 319 324 320 330 330 320 319 318 318 322 320 319 319
300 300 303 301 302 301 300 300 301 303 304 305 305 307 308 306 308 312 312 313 314 314 318 319 321 315 313 316 322 321 319 320 324 324 330 322 319 316 316 321 322 319 317 317
300 300 301 301 302 301 300 300 300 302 303 305 306 306 307 307 307 312 311 313 314 317 318 319 319 321 319 316 316 320 322 324 324 323 330 328 315 314 320 321 318 317 316 317
301 300 303 301 302 301 300 299 299 301 302 304 304 304 306 307 308 309 311 312 313 314 316 319 316 322 321 319 320 318 322 322 324 322 323 323 315 319 317 318 319 316 316 316
300 299 302 301 301 301 299 299 298 299 301 302 302 304 304 305 306 308 310 311 310 313 314 317 320 323 320 323 320 319 319 317 321 321 321 320 319 317 314 314 315 315 315 315
300 300 302 301 301 300 298 298 299 299 299 302 303 301 302 303 307 308 310 310 312 313 315 318 318 322 317 320 317 320 320 319 320 321 321 317 317 317 317 315 314 315 313 313
302 301 301 301 300 298 298 297 297 298 300 303 301 301 303 305 305 308 310 312 313 315 316 311 317 317 320 319 319 321 318 320 322 323 321 320 320 320 318 317 317 316 314 311
302 301 300 300 299 298 297 298 297 298 299 301 306 305 303 302 306 309 311 310 312 314 315 318 316 317 319 323 323 318 318 318 319 320 315 316 316 317 315 315 316 315 312 310
300 300 300 299 299 298 298 298 299 297 297 300 304 306 306 306 310 311 311 311 311 314 316 316 318 318 316 317 321 318 318 318 316 315 315 316 315 315 314 313 313 311 308 306
299 299 299 299 298 297 298 301 301 297 298 301 305 306 305 311 313 312 312 312 312 313 314 313 318 314 314 320 318 317 316 313 313 314 314 315 314 312 310 310 307 306 303 302
299 299 298 298 298 298 300 302 300 298 300 302 302 306 309 310 310 310 311 313 312 311 314 316 318 315 321 320 318 317 315 313 315 310 309 311 308 308 308 306 304 303 301 300
297 296 298 298 299 298 300 302 302 301 301 303 303 302 304 307 306 305 310 309 310 311 313 314 317 319 316 315 313 314 314 312 311 308 306 305 306 305 304 304 303 301 300 298
298 299 299 300 302 302 302 301 302 302 303 303 304 303 304 304 304 306 307 309 308 317 316 318 318 318 314 308 309 310 311 310 310 310 310 308 307 303 302 301 301 302 298 296
299 300 300 301 302 303 303 304 303 304 307 307 307 307 304 304 303 305 304 310 304 314 309 318 317 310 305 305 305 305 306 305 305 306 307 304 304 302 300 297 296 296 296 296
301 300 302 303 302 304 305 306 305 306 305 305 306 307 306 305 305 303 306 311 310 304 309 311 307 304 302 301 301 300 300 301 301 299 299 300 299 298 298 297 295 295 294 294
301 302 305 308 303 305 307 307 307 305 305 305 306 304 307 303 306 304 312 305 305 313 316 308 304 298 298 298 297 297 295 297 297 296 296 297 296 295 294 294 293 294 292 292
298 301 306 304 300 299 299 300 301 301 303 305 305 305 304 304 306 305 306 310 309 306 305 302 297 296 295 295 295 295 295 295 294 294 294 293 293 293 292 291 292 292 290 288
297 295 299 296 300 299 297 297 299 300 302 303 304 304 307 307 306 307 305 307 304 301 298 295 294 292 292 292 292 292 293 293 292 291 292 292 292 291 290 289 289 288 288 288
296 296 291 293 295 293 293 293 294 299 302 303 304 308 307 305 305 302 299 299 297 295 292 291 291 290 290 290 290 290 290 289 289 289 290 289 288 288 287 286 286 285 284 283

GFSNW_850_thetae_075.txt.gz
Theta_e
300 300 301 301 301 301 301 301 303 303 303 304 304 306 309 309 311 311 313 314 318 316 317 320 317 317 318 318 320 320 320 321 322 321 322 321 322 323 323 324 323 324 324 324
301 300 300 301 301 301 301 301 301 303 303 305 305 306 307 308 310 311 314 316 317 320 319 320 319 318 318 318 319 321 321 320 322 322 321 322 322 323 323 324 324 324 330 326
302 301 301 301 301 301 301 299 303 304 303 303 306 306 307 308 307 311 311 315 315 317 319 320 319 319 318 318 318 319 321 320 321 323 321 321 321 320 321 322 328 324 323 321
300 302 301 301 301 301 301 300 304 304 304 305 307 306 306 307 309 308 310 313 315 316 316 318 318 320 318 317 316 319 321 321 320 320 320 320 319 320 320 320 321 323 322 321
297 300 301 301 301 301 302 300 304 303 305 304 307 306 307 307 308 309 310 314 314 315 315 318 315 317 319 319 319 319 321 322 320 320 320 319 319 319 319 319 319 320 320 320
298 298 301 302 301 301 302 301 302 304 305 307 307 309 307 307 308 309 309 311 313 314 315 318 317 317 317 317 319 321 321 323 321 322 320 320 323 319 319 320 320 320 321 321
298 299 298 301 301 301 301 302 303 305 306 307 308 307 307 307 307 309 309 310 313 312 313 316 315 315 315 315 315 317 322 322 324 326 324 327 321 320 320 320 320 320 321 320
299 299 299 300 302 301 301 302 303 304 309 307 306 307 307 306 307 309 310 309 311 311 315 316 315 314 315 314 314 316 317 322 324 328 326 321 320 319 320 320 320 320 320 321
299 300 300 300 301 301 300 302 302 304 308 309 306 308 307 308 307 309 309 310 311 312 315 316 314 315 311 310 316 318 316 321 326 325 326 326 321 320 320 320 324 321 320 321
301 300 300 300 301 300 300 301 302 303 305 304 305 306 308 307 307 310 308 310 312 313 317 319 319 316 311 312 318 321 322 322 326 327 329 322 320 320 320 323 323 320 320 319
301 300 301 300 301 301 301 301 302 304 304 305 304 307 306 307 307 310 308 312 314 317 317 318 316 317 314 314 313 316 323 324 327 326 331 328 319 318 321 322 321 321 321 320
302 301 301 300 301 301 301 301 302 303 304 305 307 308 308 308 307 307 308 311 313 314 316 318 317 322 324 316 318 314 322 322 324 323 324 322 318 320 319 320 321 322 320 320
301 302 300 301 302 301 301 301 303 303 304 305 305 306 307 307 308 308 310 312 312 313 313 315 317 318 316 324 320 315 316 316 322 321 320 322 321 321 320 320 320 320 319 319
301 301 300 302 302 300 301 302 302 303 303 305 304 304 306 305 306 307 308 311 312 313 313 318 318 321 314 320 316 318 317 318 319 319 319 319 321 321 321 321 319 318 318 318
302 300 301 302 300 300 301 302 302 302 303 305 303 304 304 306 307 306 307 309 312 313 318 320 318 315 314 316 318 319 317 317 322 323 319 320 320 320 322 322 320 319 319 317
301 300 300 300 300 300 300 300 300 301 302 303 304 304 303 304 306 306 307 309 311 312 313 316 314 311 314 323 319 316 314 314 317 319 319 320 320 317 317 320 320 320 319 317
300 302 300 299 299 300 301 301 300 300 301 302 304 306 306 303 304 305 306 308 310 313 313 314 315 314 316 322 321 314 314 316 316 318 319 318 318 319 316 314 314 315 315 314
302 301 300 299 300 299 301 299 299 300 301 302 304 306 305 306 306 306 306 309 311 312 314 315 318 317 319 319 315 314 314 317 318 318 317 317 315 313 312 311 310 311 310 310
299 298 299 299 299 300 301 301 298 301 301 302 302 306 306 301 308 308 309 310 314 311 315 315 316 319 320 319 317 316 316 316 317 317 315 312 313 312 310 309 309 308 306 306
299 299 299 299 300 299 299 299 300 300 302 303 304 304 305 302 300 310 313 311 312 313 314 313 316 319 315 317 316 317 318 317 315 314 313 312 312 310 309 309 308 306 304 303
300 301 301 300 299 300 301 300 302 302 304 304 305 305 306 302 304 306 309 310 311 314 316 316 316 317 316 313 314 313 314 314 312 312 311 311 311 309 307 305 304 302 301 299
301 300 299 300 300 302 304 306 304 304 306 306 307 306 305 302 302 301 306 312 309 318 314 320 318 309 306 308 309 310 309 308 307 307 307 305 304 302 300 297 297 296 296 295
301 301 299 303 302 304 305 305 306 308 307 307 307 307 305 303 300 300 307 311 313 308 314 312 306 303 302 302 303 303 303 302 300 298 298 297 297 297 297 294 293 293 293 292
302 303 304 307 304 306 308 308 308 304 305 306 305 304 304 301 302 303 308 306 306 313 315 308 302 297 296 295 295 295 293 294 294 293 294 294 294 292 290 290 290 290 289 289
299 302 304 303 300 299 299 300 301 301 304 306 307 306 304 303 306 305 306 309 309 308 306 301 296 294 293 291 291 291 290 290 290 291 291 289 289 289 289 289 290 290 290 290
297 296 300 296 303 300 296 296 298 297 301 304 305 305 306 307 307 307 306 308 305 301 298 294 291 290 289 289 289 289 288 289 288 288 288 289 289 289 288 288 289 289 288 287
297 296 293 294 296 294 292 290 291 296 300 304 305 307 306 306 305 303 300 299 297 294 292 291 290 289 289 288 288 288 288 287 287 287 287 287 287 288 288 287 286 287 286 284

GFSNW_850_thetae_078.txt.gz
Theta_e
301 301 301 301 301 301 301 301 302 302 303 304 304 306 307 306 307 308 311 312 313 314 317 321 321 318 318 318 319 320 321 322 323 322 322 321 322 323 324 327 325 328 330 328
300 301 301 301 301 301 301 301 301 302 303 305 305 305 306 306 307 307 310 312 313 315 318 319 321 320 318 317 317 320 321 321 323 322 322 322 322 322 323 324 324 326 329 325
301 301 301 301 301 301 300 300 302 304 304 304 306 305 305 306 305 307 308 312 312 312 320 321 320 320 318 319 318 317 319 322 323 325 323 322 322 321 322 325 327 327 326 325
301 301 302 302 301 301 301 300 303 304 305 305 306 306 305 306 306 306 307 310 312 311 317 320 319 319 319 319 319 318 321 322 323 321 321 321 321 322 321 321 322 323 324 322
300 300 299 300 302 301 301 299 303 304 305 304 306 307 308 306 306 306 307 310 311 313 316 316 316 317 319 319 320 322 320 322 322 323 320 321 321 321 321 320 320 319 321 321
299 297 297 297 300 302 301 300 302 304 305 306 307 307 307 307 307 307 307 308 311 313 313 315 317 317 318 319 319 318 322 323 323 324 322 320 320 321 320 319 320 320 320 322
299 298 298 296 297 301 301 300 302 304 307 308 308 306 306 307 307 308 307 307 310 312 313 317 317 316 317 318 318 317 319 320 323 324 322 323 321 321 321 320 320 320 320 320
297 298 298 296 297 299 301 301 302 304 307 307 306 307 307 306 307 308 308 308 308 309 311 313 316 316 318 317 316 317 317 318 322 325 324 322 321 321 321 321 321 321 320 320
298 298 298 297 298 299 300 300 302 303 306 308 306 307 307 308 308 308 308 307 308 310 313 314 317 318 315 318 316 316 317 318 319 325 325 326 323 321 320 321 321 321 321 321
300 300 299 298 298 299 299 300 301 303 305 305 306 307 308 307 308 309 308 308 308 312 314 317 317 318 313 312 316 319 319 319 321 322 326 324 321 320 320 323 323 321 321 321
300 300 300 300 299 299 299 301 301 303 304 305 304 306 306 308 308 310 308 310 311 314 315 315 317 317 315 314 313 320 320 322 324 324 325 325 320 320 321 322 321 322 322 321
300 300 300 301 300 300 299 301 301 302 304 305 306 305 307 308 308 308 307 309 310 312 316 317 316 319 317 314 314 316 321 319 322 323 324 324 321 320 320 319 322 321 322 322
300 300 300 301 300 300 300 300 301 303 304 304 306 308 308 309 309 310 309 309 309 311 314 315 317 318 314 320 318 315 315 320 323 323 320 320 321 321 321 321 320 322 321 321
301 301 301 301 301 300 301 301 302 303 302 306 305 305 306 308 307 310 310 309 309 311 312 316 318 319 315 317 318 317 317 317 319 320 319 318 318 319 322 322 321 320 320 320
301 301 301 301 301 300 300 301 302 303 304 305 306 305 306 307 307 308 309 309 310 310 313 314 317 316 318 318 317 317 316 317 319 323 319 320 320 319 321 321 319 319 320 319
301 301 302 301 301 300 302 302 303 304 303 305 306 305 305 305 306 307 308 308 309 309 312 315 315 314 317 323 319 316 316 316 316 318 319 320 322 319 319 319 322 321 320 320
300 301 301 302 300 302 302 302 302 302 304 305 306 306 306 305 306 306 307 307 308 308 312 314 316 316 315 320 318 314 314 314 314 314 314 319 319 319 317 316 317 317 318 318
302 302 300 301 301 301 301 302 302 302 303 304 304 305 306 305 306 307 306 307 309 309 312 314 316 316 316 317 314 314 315 314 314 319 319 319 317 315 314 313 313 313 313 312
300 300 300 301 301 300 300 301 302 302 303 303 302 306 307 302 304 305 306 307 309 309 312 314 315 317 317 316 315 315 314 314 313 314 318 316 315 314 312 311 311 310 309 308
300 300 301 299 300 299 300 301 300 301 303 304 304 305 305 301 301 306 310 309 310 311 312 313 312 317 315 315 317 318 319 318 318 317 315 314 314 312 311 311 309 307 306 305
300 301 301 299 300 301 302 301 301 302 304 304 305 305 305 301 304 303 308 309 311 313 313 313 316 316 316 316 315 315 315 314 313 313 312 313 313 311 308 306 305 304 303 302
302 300 300 300 301 301 305 304 302 304 305 306 307 306 305 302 302 304 304 311 308 312 313 315 315 308 308 310 311 311 309 309 309 308 306 306 306 305 303 301 301 300 299 296
302 301 301 302 301 304 306 304 304 307 307 306 306 306 305 301 301 302 304 309 311 309 316 314 305 301 300 301 301 300 300 300 300 299 298 298 297 298 298 297 296 296 294 293
303 303 302 304 303 306 305 307 308 304 307 307 305 303 302 300 301 302 308 306 308 312 312 307 300 296 294 294 295 295 293 294 292 292 293 293 292 291 290 291 291 291 289 288
300 302 304 302 299 298 297 299 301 299 302 306 306 303 301 302 304 303 306 309 310 307 305 300 294 292 291 290 290 289 289 289 288 288 288 288 288 288 288 288 289 289 288 288
297 295 299 296 301 298 294 292 295 295 299 303 305 302 305 306 306 307 306 307 304 300 297 293 291 289 289 288 288 288 288 287 287 287 287 287 287 287 287 288 288 287 287 286
297 296 293 295 295 293 290 289 290 293 297 303 303 305 305 305 305 301 297 297 295 293 292 290 289 288 288 288 288 288 287 287 287 287 287 286 287 287 287 286 285 285 284 284

GFSNW_850_thetae_081.txt.gz
Theta_e
298 299 300 300 300 301 301 300 301 302 301 303 303 303 302 303 304 305 306 306 307 309 311 312 312 320 318 317 316 317 317 320 319 318 319 320 320 320 321 324 325 324 322 321
299 299 300 300 301 301 300 300 300 302 302 304 304 303 304 304 304 305 306 306 307 308 310 313 314 318 319 316 317 317 317 319 320 320 319 320 320 320 321 321 321 323 322 323
299 299 300 300 301 300 300 299 300 302 303 303 304 304 304 304 304 305 306 307 306 307 308 312 313 316 319 317 318 317 316 318 318 320 320 321 321 320 320 320 320 321 321 323
300 300 300 300 300 301 301 299 300 303 303 304 303 304 304 305 305 305 305 305 306 307 309 312 314 317 314 318 318 319 318 320 318 320 319 319 321 321 320 320 321 324 323 323
299 300 300 300 301 301 301 299 301 302 303 304 305 304 306 306 306 305 305 305 305 307 309 311 314 315 313 317 318 320 318 319 319 319 319 320 320 320 319 320 320 318 318 319
300 300 300 300 301 301 301 300 300 303 304 304 304 305 303 306 306 305 306 305 305 305 307 309 313 316 315 316 319 316 319 318 321 320 319 320 318 319 319 320 319 318 317 317
299 299 299 301 301 301 301 301 301 301 304 304 304 304 305 305 306 306 306 307 305 306 305 312 313 313 313 315 317 317 318 319 320 320 318 323 319 318 319 319 319 318 318 318
299 299 299 299 300 300 300 301 301 302 302 305 305 305 305 305 305 306 306 306 307 306 310 313 313 313 315 314 317 317 317 317 315 320 321 321 320 319 319 319 318 319 319 318
299 299 299 299 299 298 297 298 300 302 302 303 305 306 305 306 305 305 305 306 306 307 307 308 312 315 315 317 316 316 317 317 317 316 322 322 320 319 319 319 318 318 319 318
298 297 297 298 299 299 298 299 298 301 302 303 303 306 305 306 306 305 305 307 307 307 306 305 312 313 315 316 316 316 315 313 314 317 318 319 320 319 319 319 316 318 320 320
300 299 298 298 298 298 298 298 298 300 302 304 303 305 305 306 307 306 306 306 307 308 308 309 312 309 314 314 314 316 317 317 316 315 317 320 319 319 319 317 319 319 320 322
300 300 300 299 298 298 297 298 298 299 302 303 304 305 305 306 306 308 308 306 307 309 311 308 309 308 307 311 310 316 319 316 318 318 317 319 321 321 320 320 321 321 321 322
299 300 300 300 300 299 298 298 300 299 302 304 304 305 304 305 306 308 308 308 307 309 309 311 311 310 310 308 310 311 316 316 316 317 316 316 319 319 320 319 319 321 321 321
300 300 300 300 300 300 299 299 301 299 300 302 304 305 306 305 306 308 309 308 309 309 310 311 309 307 311 309 312 314 312 316 317 318 319 318 316 317 318 318 318 321 320 320
300 300 300 300 300 300 300 299 300 301 303 304 305 306 306 307 307 306 308 309 309 309 306 306 311 311 311 311 313 313 314 314 316 316 317 317 317 317 317 317 318 318 320 319
300 300 300 300 300 300 300 301 301 302 303 305 304 305 305 307 306 306 307 309 308 308 308 307 311 311 313 306 311 314 314 313 314 314 316 318 320 319 318 319 319 320 321 319
300 301 301 301 300 299 300 302 302 302 303 304 303 303 305 306 306 306 307 307 308 308 308 307 309 310 313 303 309 313 313 313 314 316 316 319 319 317 317 316 316 318 318 318
301 300 300 300 300 301 303 303 302 303 304 303 300 302 305 305 306 306 306 307 307 308 308 309 310 310 311 311 312 313 312 312 314 316 318 318 315 315 315 314 314 314 313 313
300 300 300 301 300 301 302 302 303 303 302 299 300 301 303 303 304 306 306 306 300 307 303 307 309 309 312 312 312 313 313 313 313 313 317 316 314 312 312 311 311 310 309 309
300 301 301 300 301 301 302 302 302 302 303 302 298 303 300 302 301 301 303 306 302 308 306 309 307 309 313 313 316 316 316 316 316 315 314 313 312 311 310 308 308 307 306 304
301 300 300 300 301 301 301 300 300 301 301 303 304 304 300 302 301 302 302 304 302 308 309 309 310 308 312 314 311 311 311 312 313 314 314 313 312 309 308 306 304 304 303 302
300 300 300 301 301 302 302 301 300 299 301 302 301 303 304 301 303 300 300 305 305 304 307 304 307 306 302 302 304 306 307 309 309 310 309 308 308 306 305 303 301 301 299 296
302 301 302 302 300 301 297 302 298 302 300 305 305 303 303 301 302 301 302 305 306 304 302 305 303 300 298 298 298 301 301 303 303 302 302 302 300 300 301 298 296 296 295 294
302 301 302 302 303 302 301 303 302 302 305 305 305 303 302 300 300 302 305 305 305 307 310 305 298 294 292 294 295 300 296 297 297 296 296 295 295 293 293 293 293 293 292 291
298 300 300 299 298 296 294 296 298 296 300 305 302 301 300 300 303 302 305 306 308 302 299 295 292 291 291 290 291 291 291 291 290 291 291 290 290 290 288 288 289 289 289 288
294 293 296 295 297 293 291 290 292 294 297 302 302 302 304 305 304 304 301 304 299 297 293 290 289 289 288 288 288 288 288 287 287 287 287 286 286 287 286 286 286 286 286 285
296 292 290 292 293 290 289 289 290 292 294 302 301 301 300 301 302 297 294 293 293 291 289 289 288 288 288 287 287 286 286 286 286 286 286 285 286 286 286 284 283 284 284 283

GFSNW_850_thetae_084.txt.gz
Theta_e
294 294 295 297 298 298 299 300 302 302 302 301 301 302 301 301 302 302 303 304 303 304 304 306 308 310 312 312 314 315 313 315 316 317 317 317 317 319 321 323 324 322 320 320
295 297 297 298 298 299 300 301 300 301 301 302 302 302 303 302 302 302 304 305 306 306 307 307 306 311 312 314 315 315 314 315 318 318 317 317 318 318 319 322 321 324 322 321
297 298 298 298 299 299 300 299 300 301 302 302 302 302 303 304 303 304 303 303 304 305 306 307 308 310 313 314 313 315 315 316 316 318 317 318 320 320 319 321 321 321 321 320
298 298 299 299 299 300 300 299 299 302 302 303 302 302 303 304 304 303 304 305 304 304 306 306 307 309 315 313 313 316 317 316 317 317 317 318 318 319 319 320 320 320 319 320
298 298 299 299 299 300 300 299 301 301 301 302 304 303 303 303 304 303 304 304 304 304 304 305 306 309 315 314 313 314 316 317 317 317 317 319 320 319 318 319 318 319 320 319
298 298 299 299 299 299 300 300 300 302 302 302 302 303 303 304 304 304 304 304 304 305 304 304 305 307 314 315 315 313 316 317 316 316 318 319 319 318 319 319 319 318 318 317
298 298 299 299 299 299 299 300 300 300 303 302 303 303 303 304 303 305 305 305 304 305 305 305 309 312 312 312 312 313 316 319 315 314 317 322 319 317 318 319 319 317 317 316
299 299 299 299 300 300 299 300 300 301 302 303 303 304 304 303 303 304 303 304 305 305 306 309 311 309 311 311 313 314 317 318 316 319 318 319 319 318 317 318 317 316 316 316
299 299 299 300 300 300 301 300 300 301 302 302 303 304 304 304 303 304 303 303 304 305 305 306 307 307 313 315 315 316 316 315 316 315 318 319 317 317 318 317 318 317 316 317
299 299 299 299 299 299 299 301 300 300 300 301 302 304 305 304 304 304 303 304 304 304 304 306 305 307 312 313 314 314 311 311 315 316 318 315 317 317 318 320 317 317 318 319
297 298 298 298 299 299 299 300 299 299 299 300 302 302 305 305 304 305 304 304 304 304 303 303 305 304 310 313 314 314 314 312 309 312 313 317 316 318 318 316 319 319 319 320
299 297 296 297 297 298 299 299 298 299 298 300 302 302 303 303 305 306 306 305 304 306 305 303 306 306 306 311 313 311 316 313 313 312 313 314 316 320 319 318 319 319 320 321
300 300 299 298 298 297 298 300 299 298 299 298 299 302 302 304 304 306 307 307 307 307 307 307 307 306 308 308 309 312 314 314 314 315 316 316 316 319 319 319 319 318 320 320
300 301 299 299 299 299 298 300 299 299 298 299 301 301 304 303 304 304 305 306 307 308 308 306 305 304 310 309 310 310 310 314 314 314 315 317 316 317 317 318 317 318 318 319
301 301 300 299 300 299 298 299 299 298 299 301 302 303 305 304 304 305 305 306 308 308 305 303 308 309 309 309 309 310 310 313 314 314 315 316 314 316 316 316 316 317 318 318
300 299 299 299 301 299 299 299 298 298 298 302 303 304 304 304 304 304 304 307 308 308 308 305 309 310 310 309 308 310 312 312 313 313 314 316 316 318 319 317 317 318 318 318
300 299 300 299 300 299 299 300 299 300 299 300 303 304 306 305 305 304 305 307 307 308 307 305 306 308 309 307 309 310 311 312 314 315 318 317 317 316 317 318 318 319 319 319
300 300 300 300 300 299 300 302 302 300 301 300 302 304 303 304 305 305 306 306 307 307 306 307 304 306 307 306 309 310 311 311 312 312 317 318 316 314 314 314 315 316 315 313
300 300 300 300 300 300 300 302 300 300 301 299 296 299 304 303 304 306 306 306 301 305 300 302 306 305 306 308 310 311 312 312 312 315 316 314 313 312 311 312 312 312 307 308
300 299 300 300 301 302 302 301 300 301 301 300 294 300 301 302 301 302 303 304 298 302 304 307 301 304 306 311 308 307 309 313 313 314 311 311 310 309 308 308 307 307 304 300
301 300 299 301 302 301 300 299 300 300 300 302 302 300 301 301 300 301 301 302 297 304 302 305 307 307 307 307 306 307 306 309 312 313 312 311 310 307 306 303 302 302 301 299
301 301 301 301 301 301 300 299 299 298 299 299 300 301 301 301 302 298 299 301 303 305 303 302 309 305 301 301 303 301 303 306 305 308 309 305 305 304 303 300 299 298 297 294
302 302 301 301 298 297 294 298 300 296 300 302 303 302 300 300 301 299 301 303 305 303 303 303 303 298 297 295 295 298 300 304 299 301 303 302 300 298 299 297 295 294 293 292
302 298 299 298 299 299 298 302 302 298 300 302 303 301 301 300 300 301 303 300 304 307 308 305 298 294 292 293 295 296 297 300 298 294 297 296 296 294 293 293 293 293 291 290
297 297 296 296 294 292 291 293 295 294 298 302 302 301 301 300 301 301 302 306 307 302 301 295 293 291 291 291 291 291 290 291 290 291 293 292 291 291 289 290 290 290 289 289
293 290 292 292 291 290 290 290 291 293 295 300 302 301 302 303 302 301 297 300 297 294 290 290 289 289 289 289 290 289 289 289 288 287 288 287 287 286 286 286 287 287 287 286
292 288 289 290 289 289 289 289 289 292 295 301 300 298 297 298 298 293 293 291 290 290 289 288 288 287 287 287 287 286 287 286 285 285 286 285 285 286 287 285 284 285 284 284

GFSNW_850_thetae_087.txt.gz
Theta_e
295 295 295 295 295 295 298 299 300 299 299 300 299 300 299 299 300 301 303 303 302 303 303 303 304 307 310 310 312 313 315 312 312 313 314 315 315 317 318 321 322 320 318 319
294 294 295 294 295 296 298 299 299 300 300 300 300 300 300 300 300 300 302 304 305 304 305 305 306 305 306 308 314 315 313 316 313 315 314 314 315 316 317 319 318 321 321 320
295 295 294 294 296 297 298 299 300 299 300 301 300 300 301 302 302 302 302 302 302 303 303 304 305 306 307 308 313 312 311 317 318 315 315 314 317 317 317 320 319 319 321 320
294 295 294 295 297 298 298 299 299 300 301 301 302 301 302 302 303 303 303 303 303 303 304 304 304 305 305 308 313 312 312 316 317 315 314 315 318 318 318 318 318 320 319 320
295 294 295 296 298 299 299 299 299 300 301 302 302 302 302 303 303 302 303 303 303 304 304 303 303 304 304 311 313 312 312 316 316 316 315 315 316 316 319 319 318 317 317 318
295 295 296 297 298 298 299 299 299 300 301 301 302 303 302 303 302 302 303 303 303 303 303 303 303 303 304 307 311 313 311 314 316 317 316 317 318 317 317 318 318 317 317 317
296 297 297 298 298 299 298 299 299 299 301 301 302 302 303 303 303 303 303 303 303 303 304 304 304 303 304 304 308 312 312 313 312 316 315 320 317 316 317 318 318 317 316 316
297 297 298 298 298 299 298 299 300 300 301 301 302 302 302 302 303 303 303 303 304 304 304 306 306 306 309 309 311 311 312 314 314 318 317 316 318 316 317 318 318 317 317 316
298 298 298 298 298 298 298 299 299 300 301 301 302 301 302 302 302 302 303 303 303 303 303 304 308 305 306 312 314 314 313 313 315 315 318 317 315 316 317 318 319 316 316 318
298 298 299 299 299 299 299 299 299 300 300 301 301 302 302 302 302 302 303 303 303 303 301 302 304 306 308 308 309 315 314 313 316 316 317 314 314 314 316 321 318 316 317 316
298 298 298 299 299 299 299 299 300 299 299 301 301 302 303 303 303 303 303 304 303 301 301 298 302 302 305 307 310 312 314 314 314 313 312 314 313 318 318 315 318 319 318 319
296 298 298 298 298 299 299 299 299 299 299 300 301 301 302 303 302 303 304 305 304 304 302 300 301 301 300 307 308 311 312 312 314 313 311 310 313 319 317 318 318 318 317 320
300 297 296 296 298 299 299 299 300 298 298 298 300 301 301 302 303 304 304 305 304 305 306 303 304 304 303 303 307 309 310 312 314 314 313 312 313 314 317 318 318 318 318 319
301 300 299 299 297 298 299 299 299 298 298 298 298 299 300 301 302 303 305 305 306 306 307 305 302 302 306 305 306 310 309 313 314 312 312 312 313 313 315 316 318 317 318 319
300 300 301 300 299 298 297 299 299 299 298 296 297 298 299 300 302 302 304 305 305 305 306 304 306 305 307 305 307 308 308 310 311 311 312 312 313 314 315 316 316 317 318 317
301 301 300 300 299 298 298 298 298 299 299 299 300 301 299 300 304 303 304 304 304 305 306 305 307 308 307 303 307 307 310 310 310 311 312 312 312 314 315 316 316 316 317 318
300 300 300 301 299 298 298 299 298 299 299 299 299 302 303 302 304 304 305 305 305 305 305 305 306 307 308 304 305 308 309 309 309 309 310 314 315 316 316 317 315 314 315 316
300 300 300 299 299 298 299 300 300 299 299 299 299 303 304 304 304 304 304 304 304 305 305 304 304 304 304 304 305 306 306 306 307 307 309 311 314 314 313 316 314 316 315 313
299 299 299 300 298 299 300 301 299 299 299 299 299 302 303 303 303 305 304 305 303 303 301 302 304 301 304 305 306 309 309 309 311 312 312 314 312 310 310 312 314 309 303 301
299 299 299 299 300 300 300 300 300 300 300 300 298 300 302 303 301 300 301 301 298 303 303 305 302 302 304 307 309 310 311 311 312 312 310 311 310 308 306 305 306 303 302 297
300 300 302 301 300 300 301 298 300 299 300 300 300 299 302 301 300 302 300 301 297 302 301 303 305 305 304 307 308 307 307 306 309 310 312 313 311 307 304 299 299 299 299 298
301 301 300 301 301 299 299 299 299 298 301 298 300 299 301 301 302 299 300 298 301 303 300 304 305 303 301 301 299 301 303 306 307 305 305 306 305 303 302 298 295 295 294 292
302 302 301 300 297 295 296 299 301 298 294 299 300 299 299 300 300 297 298 301 301 300 306 304 303 299 296 296 296 297 297 299 306 299 297 299 298 296 298 295 292 292 291 291
301 296 294 291 292 296 295 298 300 296 298 300 300 299 300 299 298 299 301 298 303 305 303 303 298 294 293 294 293 292 292 296 298 295 292 291 292 291 291 294 290 291 291 290
295 295 294 293 292 291 291 292 293 292 297 301 301 300 301 300 298 299 300 303 303 303 301 295 293 291 292 291 290 289 290 293 292 292 291 288 289 290 289 290 290 291 289 289
291 288 291 289 290 289 289 289 290 292 295 301 301 301 301 299 298 300 297 298 295 292 291 290 290 289 289 289 288 288 288 290 289 287 287 287 287 286 285 286 287 287 287 286
289 287 286 287 286 286 287 287 288 291 294 300 298 297 296 297 295 293 293 291 290 289 288 288 288 287 287 287 287 286 286 286 285 285 285 285 285 286 286 285 284 285 285 284

GFSNW_850_thetae_090.txt.gz
Theta_e
294 294 295 295 296 296 296 296 299 298 298 299 299 298 298 298 298 300 302 301 300 300 301 302 302 304 305 303 304 309 312 314 313 313 312 312 313 314 315 317 318 317 316 318
294 294 295 295 294 295 295 297 297 298 299 299 299 298 298 299 299 299 301 303 303 302 304 304 304 303 304 308 310 312 311 314 316 314 313 312 312 312 315 317 317 318 319 318
294 294 294 294 294 294 295 297 298 298 299 299 298 299 298 299 300 299 299 301 301 301 302 302 304 304 304 304 303 309 310 312 313 317 317 317 316 313 313 317 317 318 319 318
293 293 294 294 294 294 295 297 298 299 298 299 299 299 300 299 299 301 302 301 300 301 302 303 303 303 303 303 304 310 311 311 311 313 314 313 316 315 314 315 316 318 317 318
293 293 294 294 294 294 296 297 298 297 298 300 300 299 300 300 300 300 303 303 303 303 302 303 303 303 303 303 310 311 311 308 313 312 313 316 316 315 314 316 315 316 316 316
293 293 294 294 294 295 296 297 298 298 299 298 300 300 300 301 301 302 301 302 303 303 302 303 303 303 303 303 303 304 308 311 314 315 314 314 315 313 314 313 316 316 316 315
294 294 294 294 294 295 296 298 299 299 299 300 300 301 302 302 302 302 302 302 302 303 303 303 303 303 303 303 303 303 306 311 312 315 314 320 315 313 314 315 314 314 315 315
295 295 295 295 295 295 296 297 298 299 300 300 300 301 301 301 302 302 302 302 302 302 303 305 306 304 306 306 303 303 304 309 312 315 318 315 316 315 316 316 316 315 315 314
297 297 297 297 297 297 297 297 298 298 301 300 300 301 301 301 302 302 302 302 303 303 302 304 305 305 306 306 310 306 307 309 311 314 316 315 315 314 314 316 317 315 314 314
297 297 298 297 297 298 298 298 298 299 299 300 300 301 301 301 301 302 302 302 302 302 303 303 304 305 306 305 306 311 311 311 312 313 315 314 314 315 314 318 316 315 317 315
297 298 297 298 298 298 298 298 298 298 299 300 300 300 301 301 301 302 302 304 302 302 303 302 302 302 304 304 304 307 308 313 314 314 316 316 312 315 318 314 316 317 317 317
298 297 298 298 299 299 299 298 298 298 299 299 300 300 300 301 301 302 302 303 303 302 303 299 300 300 298 304 306 306 309 310 312 313 313 312 311 312 312 315 316 316 317 317
297 297 298 297 298 299 299 299 299 298 299 298 300 300 301 301 302 302 302 303 304 304 304 304 303 301 300 301 303 306 306 309 310 311 311 311 311 312 313 314 316 317 318 317
300 299 297 297 298 298 299 300 298 299 298 299 298 300 300 301 302 302 303 303 303 304 304 304 305 301 303 302 303 304 305 308 309 311 312 312 312 311 313 314 315 315 317 317
300 300 299 298 296 297 298 298 299 299 299 298 297 298 299 301 301 301 302 302 303 304 305 303 305 305 305 303 304 304 306 306 307 308 310 310 310 312 313 314 314 315 315 316
300 300 300 299 299 296 298 299 299 300 299 298 298 299 299 299 301 301 301 302 303 305 304 302 304 305 306 304 303 304 305 306 307 308 309 308 309 313 315 316 314 316 316 315
300 300 300 301 300 298 298 298 299 299 298 299 296 295 301 301 299 298 301 302 303 304 304 305 305 306 306 298 306 304 307 307 308 309 307 306 308 312 313 314 314 314 316 313
299 299 300 300 299 298 298 299 299 299 298 299 295 293 303 302 302 302 303 304 304 303 303 303 305 305 303 305 304 306 306 305 305 305 305 307 309 311 312 313 313 315 314 311
299 300 299 300 297 298 299 300 298 299 299 298 297 294 303 302 303 303 303 304 302 302 302 302 304 304 305 304 304 305 304 306 306 308 310 311 311 308 309 309 306 308 300 310
299 299 298 299 299 300 299 299 299 299 300 299 294 300 302 301 302 302 301 302 303 304 303 303 304 304 303 305 305 305 305 307 309 308 308 309 308 306 306 304 300 303 300 297
300 300 300 299 299 300 300 298 298 299 299 298 298 299 301 301 301 302 300 302 300 300 300 302 303 303 301 304 304 306 306 306 306 308 310 309 309 306 304 300 299 297 296 295
300 300 299 299 299 299 297 295 298 299 299 299 298 299 301 300 300 300 299 300 301 302 299 303 303 300 300 301 300 301 301 302 303 304 305 305 305 302 300 297 296 295 294 291
301 301 300 300 296 297 299 294 299 299 297 298 298 299 299 299 299 297 299 300 301 298 304 305 301 298 296 297 297 298 297 297 297 297 297 297 298 296 296 293 291 292 290 289
300 295 294 291 286 291 294 297 299 294 297 299 299 298 299 298 299 298 299 294 300 305 303 303 298 295 293 294 293 294 292 292 293 292 291 289 290 288 288 288 288 290 288 287
293 293 291 292 291 290 290 291 292 292 297 299 299 300 300 299 299 299 299 302 302 302 295 292 292 291 291 291 290 289 288 288 288 288 288 286 285 285 284 285 286 288 288 286
289 286 288 287 289 287 287 287 289 291 295 300 300 299 299 298 296 301 298 298 296 288 288 289 289 289 289 288 288 288 288 287 285 285 285 286 287 285 285 285 286 285 285 285
287 285 284 285 284 285 285 285 287 291 293 298 296 297 294 294 293 293 292 289 289 288 287 287 287 287 286 286 286 285 285 284 284 283 284 283 283 285 285 283 282 283 284 284

GFSNW_850_thetae_093.txt.gz
Theta_e
295 296 297 297 296 296 296 296 297 297 298 298 298 297 296 297 297 297 300 301 301 300 299 299 299 300 304 302 304 307 313 314 316 315 314 313 313 315 315 317 317 320 319 320
295 296 295 294 295 295 296 296 295 297 298 298 298 298 298 297 298 298 300 302 303 302 302 301 302 304 303 304 305 305 305 312 313 316 314 315 315 315 316 316 316 317 320 320
294 296 295 294 294 295 295 295 297 297 298 298 298 298 298 298 298 298 298 299 300 301 302 302 303 303 303 303 303 304 306 309 308 311 315 312 314 315 313 316 319 318 318 317
295 295 295 294 293 295 295 295 297 297 297 298 299 298 299 299 298 299 300 300 299 300 300 301 302 303 303 303 304 305 309 311 311 310 310 309 312 312 312 315 317 317 317 318
294 296 295 295 293 295 295 295 295 297 297 297 298 298 300 299 299 299 300 300 301 302 301 301 303 303 303 304 304 306 305 313 311 311 310 311 311 312 314 316 317 317 316 317
294 294 293 293 292 294 296 295 295 297 297 297 298 299 299 300 299 299 299 300 303 305 303 302 302 302 303 303 304 304 304 307 312 313 312 313 315 314 316 317 317 317 318 318
292 292 293 293 293 294 295 295 294 296 297 298 298 297 298 299 299 300 300 301 302 302 302 302 302 303 302 302 303 303 304 307 307 310 312 315 313 313 316 316 315 315 317 317
292 293 293 293 293 293 294 294 295 296 297 298 298 299 299 299 299 301 301 301 301 301 302 305 305 304 305 306 304 304 304 305 307 310 312 314 309 316 315 316 317 316 315 316
294 294 294 293 294 294 294 294 295 296 299 299 298 299 300 300 301 301 301 302 301 301 303 305 305 304 305 305 306 306 305 305 307 310 312 312 313 315 315 315 319 318 317 317
296 296 296 296 295 295 294 295 295 295 296 297 299 300 301 300 301 302 302 302 302 302 304 304 304 303 305 307 307 309 305 305 306 308 311 313 313 315 316 317 320 315 317 317
297 297 297 297 297 297 296 297 297 296 297 298 299 299 299 300 301 301 302 302 302 303 305 305 304 304 304 304 304 304 310 309 309 309 311 311 313 315 316 314 313 314 316 317
298 298 298 298 297 298 297 297 297 297 297 298 299 300 300 300 300 301 301 302 302 303 304 303 303 304 303 305 305 305 306 309 313 312 310 313 312 311 311 313 313 314 316 317
297 296 298 298 298 298 298 298 298 297 298 298 299 299 299 300 300 300 301 301 302 302 303 304 303 303 303 307 306 306 306 307 310 310 310 311 311 310 311 312 312 315 316 317
297 298 297 297 298 298 298 297 298 298 297 299 299 298 299 299 300 301 301 301 301 302 303 304 305 305 304 305 305 306 305 308 309 309 308 310 310 310 309 311 313 314 315 317
298 298 298 297 298 298 298 298 299 298 299 299 298 299 300 300 300 300 301 301 302 302 303 302 304 304 306 305 305 307 306 307 308 308 307 308 309 309 309 313 313 314 315 316
299 299 299 299 298 298 298 299 298 298 299 298 299 298 299 300 300 301 301 302 302 302 302 303 304 304 305 306 306 306 306 306 305 306 305 307 307 308 310 310 312 314 315 314
300 299 300 300 299 297 299 298 299 298 298 298 299 297 299 299 299 300 300 301 301 302 301 301 303 304 305 304 306 305 305 306 306 306 306 307 308 306 306 310 311 311 313 313
298 300 300 298 299 297 298 299 299 298 299 298 296 296 300 301 299 299 299 300 301 302 302 302 304 304 305 306 305 305 305 306 305 306 305 305 305 307 308 309 309 306 311 309
298 299 300 299 298 298 298 299 299 298 299 299 297 296 300 300 301 300 301 301 302 302 302 303 304 305 305 306 305 305 306 305 305 305 306 309 309 309 308 307 307 302 299 301
299 300 298 297 298 298 298 299 298 299 298 298 297 297 299 301 301 300 300 301 303 302 302 302 304 305 304 304 305 305 305 304 304 306 307 308 307 306 304 303 304 302 297 297
299 299 299 299 298 299 299 297 298 298 299 297 298 299 300 300 302 302 300 303 301 303 304 305 305 305 303 303 303 302 303 304 305 306 307 307 307 306 304 301 300 295 292 293
300 299 299 299 299 299 298 298 298 297 299 298 299 299 300 299 300 301 299 301 301 303 301 305 304 302 299 299 300 300 300 301 302 303 304 303 304 303 301 299 294 289 288 290
300 300 300 299 294 294 292 298 299 299 297 299 298 300 298 298 299 299 300 302 303 300 304 304 302 297 296 297 297 297 297 298 297 298 299 298 296 294 295 293 289 286 286 286
298 293 289 288 289 291 292 295 297 294 296 299 299 298 299 298 299 299 300 299 301 304 305 304 296 293 293 293 293 292 291 292 292 291 292 292 292 290 288 287 285 286 285 284
291 290 289 288 289 288 289 290 292 292 295 299 299 299 299 298 299 300 299 301 303 303 299 292 290 290 290 290 290 290 288 288 288 287 287 286 286 286 284 283 283 286 286 286
287 284 286 285 288 286 286 286 288 290 294 298 299 299 298 298 299 300 297 300 299 292 289 288 288 288 287 287 287 287 286 286 285 284 284 283 283 283 282 282 283 283 285 285
286 284 283 284 283 283 284 284 286 289 292 297 295 295 294 294 295 292 291 290 290 288 287 286 286 286 285 285 285 285 284 284 282 282 281 281 280 280 280 280 280 283 284 283

GFSNW_850_thetae_096.txt.gz
Theta_e
295 296 295 295 295 295 297 297 298 297 297 299 299 300 298 297 298 298 298 299 301 300 300 300 299 300 301 302 303 304 308 311 313 315 316 316 317 316 315 317 317 319 320 321
294 295 295 296 297 296 297 297 297 297 298 300 300 299 299 298 299 299 298 298 299 300 300 299 300 301 303 304 308 308 306 311 313 315 316 316 317 317 317 318 318 319 322 321
294 294 294 296 296 296 296 296 299 297 298 299 300 299 299 299 299 299 299 299 300 301 302 303 302 304 305 306 305 305 305 308 308 311 313 312 314 315 315 316 320 319 319 318
292 296 295 295 295 294 295 295 298 297 299 298 300 299 300 299 299 299 300 300 300 300 300 300 302 303 304 304 304 307 307 308 308 309 308 308 309 310 311 315 316 318 319 320
292 294 295 296 295 294 295 296 297 297 297 298 299 299 300 300 299 300 300 301 301 302 303 302 303 305 305 305 306 308 307 309 310 311 311 310 310 310 311 312 314 316 317 318
294 293 294 294 295 294 296 295 297 297 297 298 299 299 299 299 300 300 300 301 301 302 303 303 303 304 304 305 306 306 307 308 310 311 312 313 314 313 312 312 314 317 320 319
293 293 294 294 295 295 294 296 296 296 298 298 298 298 299 299 300 301 300 300 301 301 302 302 302 303 304 305 306 305 306 307 307 310 311 315 312 314 314 314 317 318 319 319
292 292 292 293 294 292 293 294 296 296 298 297 298 298 299 298 298 300 300 300 300 301 301 305 304 307 306 307 307 307 307 307 308 308 308 309 310 312 316 318 317 318 321 319
293 293 292 292 293 293 293 293 295 296 297 297 296 298 298 300 300 301 300 300 301 301 304 306 306 306 304 305 308 308 307 307 309 308 308 308 308 315 315 315 316 320 319 320
294 294 293 293 293 293 293 294 294 295 296 296 298 299 299 299 300 302 301 302 302 302 304 305 306 306 304 307 307 309 309 309 309 309 309 307 309 312 315 316 317 315 316 316
295 295 295 295 295 294 293 294 294 294 295 296 296 296 297 299 300 302 302 302 303 304 305 305 305 305 305 305 306 309 310 310 309 308 310 310 310 314 315 313 313 314 313 314
295 295 295 296 296 296 295 295 294 295 295 296 296 296 297 299 298 300 300 301 302 303 305 306 306 306 306 305 306 306 307 307 309 310 309 308 309 311 310 311 312 311 313 313
296 297 297 297 297 297 297 297 297 295 296 296 296 297 298 298 299 299 300 301 301 302 303 305 306 306 305 306 307 306 307 307 309 310 308 311 309 308 309 310 311 314 315 315
296 297 297 298 298 298 298 298 297 297 297 298 299 298 298 299 299 300 300 300 301 301 302 303 306 306 306 306 307 307 307 307 307 308 308 307 308 309 308 309 312 312 314 316
297 297 297 298 298 298 298 298 297 297 298 300 300 300 299 299 300 301 301 301 301 302 303 304 305 304 305 306 307 308 307 308 308 309 308 308 307 306 307 308 311 310 313 318
298 298 298 298 298 298 297 298 297 298 298 298 301 300 300 299 301 301 300 301 301 302 301 304 303 305 306 307 307 307 306 306 307 308 307 307 307 307 308 310 309 310 310 311
299 298 299 298 298 298 298 298 298 298 298 298 300 302 300 300 301 301 301 302 302 302 300 302 304 304 305 306 307 305 305 306 306 305 306 307 307 307 308 307 307 309 308 302
300 300 299 299 299 298 298 299 298 298 298 298 301 301 302 300 301 302 301 302 302 302 302 302 305 304 304 308 306 305 305 305 305 306 307 307 307 306 306 306 306 304 301 300
299 299 299 298 298 298 299 299 298 298 299 300 300 302 303 301 301 301 301 301 303 302 303 303 303 304 305 304 304 304 305 306 306 307 307 307 307 309 307 304 304 301 297 296
299 300 299 296 297 298 298 298 298 299 298 299 301 300 302 301 301 302 302 302 302 302 302 303 305 305 303 303 303 304 305 305 306 306 307 307 309 307 303 303 300 298 300 298
299 299 299 298 298 298 299 297 300 299 301 298 300 301 303 301 303 304 301 303 303 303 304 304 304 304 305 304 304 304 302 301 301 302 303 304 305 305 300 299 297 294 294 293
299 299 298 298 299 299 301 301 300 300 301 299 299 300 301 300 301 303 301 304 303 306 304 305 305 304 299 300 299 298 298 299 299 300 299 301 302 301 298 295 293 292 290 291
299 300 299 300 297 302 301 299 300 300 300 299 299 301 299 298 300 303 302 304 305 304 306 306 303 296 295 294 294 295 296 296 296 296 296 295 295 295 295 295 291 290 286 287
297 297 294 298 298 297 298 300 301 297 298 299 299 299 302 300 302 303 303 303 304 305 306 305 295 293 292 292 291 291 291 292 292 292 291 291 291 290 289 290 290 289 287 284
292 293 294 293 291 291 291 292 295 292 295 298 300 300 299 301 303 302 302 303 305 304 302 295 292 291 290 290 289 288 288 288 288 288 287 286 286 286 284 284 284 285 284 283
287 287 291 289 293 291 290 291 292 290 292 297 299 302 300 301 302 302 301 304 302 296 293 290 289 289 288 287 286 286 286 286 285 284 284 283 283 282 281 280 280 280 281 282
287 287 286 287 287 287 287 287 288 288 291 301 301 301 298 298 298 296 294 294 292 290 289 288 287 287 286 284 284 284 284 283 282 282 282 281 280 280 280 278 277 279 280 282

GFSNW_850_thetae_102.txt.gz
Theta_e
293 293 292 293 295 295 296 296 300 300 301 302 301 301 301 301 303 302 301 301 302 302 303 303 304 304 306 305 305 304 304 305 311 311 314 315 317 315 314 316 317 319 320 320
293 293 293 294 294 295 295 296 297 299 300 303 302 301 301 302 303 301 301 301 301 302 301 302 303 304 305 303 304 303 308 309 309 309 309 311 314 316 317 316 316 318 320 320
292 292 293 293 293 294 296 297 299 299 300 300 302 303 303 301 302 302 301 302 302 301 301 302 302 303 303 303 304 306 306 308 310 311 309 311 313 313 314 318 320 318 317 316
292 291 292 292 293 294 295 296 299 299 301 301 301 301 302 304 303 301 301 301 301 302 302 302 302 303 303 304 305 306 306 306 306 307 307 307 309 310 311 312 315 320 319 319
292 292 292 292 293 293 296 296 298 299 300 300 301 301 301 301 302 302 303 301 301 302 302 302 302 303 303 304 305 305 306 305 305 306 307 308 307 308 309 310 311 312 314 315
291 292 292 293 293 294 295 295 295 298 300 300 300 301 302 301 300 302 302 303 303 304 303 304 304 305 304 305 306 307 308 307 306 307 308 308 308 308 308 309 311 312 312 313
292 293 293 293 294 294 296 296 298 298 300 299 299 301 300 301 301 301 301 302 303 303 303 304 303 303 304 304 305 305 307 309 309 309 309 311 310 309 311 312 311 311 312 311
293 293 293 293 293 294 295 295 297 299 300 299 299 300 300 300 300 301 302 301 302 302 303 303 303 304 305 305 306 305 307 307 309 309 308 309 308 310 313 318 317 318 318 319
293 293 293 293 293 294 294 295 296 297 299 299 298 299 299 300 301 301 301 300 301 303 303 303 303 304 306 309 306 306 306 308 308 309 309 308 308 311 311 312 315 317 316 316
293 294 294 294 293 293 294 295 296 298 297 297 297 299 300 300 300 302 302 303 303 304 303 303 304 305 305 307 308 310 308 309 309 310 311 310 309 309 310 311 315 314 314 314
293 293 294 294 294 293 293 295 296 297 297 297 297 298 298 299 300 301 301 303 303 304 304 305 305 306 306 307 307 311 310 311 310 310 310 310 311 311 313 314 311 312 313 313
294 294 294 294 295 294 293 294 296 296 297 297 298 298 298 298 299 300 300 301 301 300 305 306 307 306 308 308 309 308 311 309 311 310 310 311 311 312 312 311 311 311 311 312
295 295 295 294 294 295 294 294 295 296 296 296 296 297 297 298 299 298 300 299 299 301 302 303 306 306 306 310 309 310 309 309 310 311 311 311 310 309 309 309 308 308 309 310
295 295 295 295 295 295 295 295 295 296 296 297 297 297 299 298 298 299 299 300 299 299 300 301 305 305 304 307 308 308 308 308 309 310 311 310 310 310 309 309 307 308 309 311
296 296 296 296 295 295 295 295 295 295 296 299 298 298 298 299 300 299 298 299 301 301 302 302 305 303 305 306 307 307 306 307 309 311 310 309 309 309 308 308 308 311 311 312
296 296 296 296 296 295 296 297 296 296 296 297 298 299 301 300 300 300 300 300 300 301 302 303 303 303 304 306 305 306 307 308 307 308 307 307 307 307 308 308 310 309 309 308
298 297 297 297 297 296 296 297 298 297 296 297 299 299 299 300 302 302 301 301 301 302 301 302 302 303 304 307 306 305 305 306 306 306 306 307 308 309 309 308 308 307 305 303
299 297 297 297 297 297 297 298 299 298 297 297 301 302 302 302 303 303 302 302 302 301 302 302 304 304 305 306 305 304 304 305 305 307 307 308 308 309 308 309 309 307 301 299
299 298 297 297 297 297 298 298 298 297 298 299 299 302 303 302 303 303 303 303 304 303 304 304 303 304 305 305 304 304 305 305 305 305 307 307 307 309 309 309 309 307 300 299
298 297 298 296 298 298 298 297 298 298 298 300 302 301 304 303 304 305 304 303 304 304 305 303 305 305 304 304 304 304 304 305 306 306 307 307 306 306 308 308 307 306 299 297
298 298 298 298 298 298 298 297 299 299 301 300 302 302 304 303 305 305 304 304 304 304 304 306 305 305 304 302 301 300 300 302 302 303 303 303 303 304 304 306 303 301 299 297
299 299 298 299 298 299 301 302 301 301 301 302 304 303 302 303 303 303 303 303 303 304 306 307 306 300 298 297 297 297 297 296 297 297 297 298 300 300 302 303 298 296 294 292
299 299 299 300 299 302 301 302 302 303 304 302 302 304 301 302 302 302 303 302 303 305 306 305 300 295 294 294 294 295 295 291 292 292 293 294 296 297 299 298 295 293 290 288
299 299 301 302 301 303 302 303 304 302 303 302 303 303 304 303 303 302 301 304 305 304 305 302 295 293 292 292 291 291 291 289 288 288 289 290 290 291 292 292 291 290 287 283
296 298 299 297 295 296 297 298 298 297 300 302 302 302 302 304 303 303 303 304 304 304 300 296 292 291 290 289 289 288 287 287 286 285 286 286 286 286 285 285 285 286 284 282
291 293 296 296 297 297 295 296 295 295 298 300 301 301 301 303 303 303 303 304 301 296 294 291 290 289 288 287 287 286 285 284 284 283 283 283 283 283 282 281 281 281 281 280
291 292 291 294 293 293 292 293 292 293 296 302 301 304 304 303 303 301 297 295 293 291 290 289 288 287 287 286 285 285 284 283 282 281 281 280 280 279 279 278 277 278 278 278

GFSNW_850_thetae_105.txt.gz
Theta_e
293 292 292 293 292 293 295 295 296 298 300 300 300 301 301 300 300 300 301 302 301 301 301 301 302 303 304 304 304 303 303 304 304 305 307 312 314 315 315 309 312 316 316 316
293 292 293 293 294 294 295 295 295 296 297 299 301 300 300 300 301 301 302 302 301 301 301 300 302 302 303 303 303 303 304 307 310 308 306 307 312 313 315 314 312 313 315 318
292 292 292 293 293 293 294 295 295 298 299 299 300 301 301 302 302 301 302 302 301 301 301 301 301 302 303 303 304 306 307 306 306 308 309 307 307 307 310 311 319 319 317 317
291 292 292 292 292 293 293 294 296 297 292 299 299 300 301 301 302 303 302 301 300 300 301 301 301 302 302 302 302 305 305 305 305 305 305 305 305 306 307 308 310 317 316 315
291 292 293 292 292 293 294 294 295 297 297 298 300 300 301 301 301 303 303 303 303 303 301 301 303 305 305 306 306 306 306 305 305 304 304 303 304 305 306 307 308 309 310 311
291 292 292 292 292 293 295 294 294 296 296 298 300 301 301 301 302 301 301 302 303 303 303 303 304 304 304 304 304 305 305 306 305 306 304 304 305 306 306 306 307 308 308 309
292 291 291 293 292 293 294 294 296 297 296 298 299 299 300 300 301 301 301 302 302 303 302 303 303 303 303 303 303 303 305 306 305 305 306 307 306 307 308 307 308 311 317 317
292 292 292 294 293 293 294 294 295 296 298 298 298 299 301 300 300 300 301 301 301 302 302 299 301 301 302 302 303 303 303 304 306 308 308 308 307 309 313 314 315 316 316 315
293 293 293 293 293 293 293 294 295 295 297 296 298 299 299 299 299 299 300 301 301 302 299 298 301 301 305 306 305 305 304 303 305 306 308 305 308 310 309 309 314 314 314 314
293 293 293 293 294 293 293 294 294 296 296 297 297 297 299 299 300 301 301 300 302 302 302 298 300 303 303 306 308 309 305 304 305 306 305 308 308 309 310 310 312 313 312 313
293 293 293 293 294 294 294 293 294 296 296 296 296 297 297 298 299 298 300 300 301 302 302 299 302 303 305 306 306 308 307 304 304 305 303 306 309 310 311 311 310 311 311 311
291 292 293 293 293 294 294 294 294 295 296 296 297 297 298 298 298 298 299 300 300 300 303 305 304 304 304 306 308 306 309 307 307 304 305 309 310 309 311 310 309 309 309 308
291 292 293 294 294 294 294 294 294 295 296 296 296 295 296 296 296 297 299 299 300 300 300 299 303 305 305 305 307 306 306 307 308 309 310 310 309 310 309 308 307 307 308 309
292 293 294 294 294 295 294 295 294 294 296 296 297 296 297 297 298 297 299 299 298 299 300 300 300 302 303 303 304 305 305 306 307 309 309 310 309 309 308 309 309 308 311 311
293 295 295 295 295 295 295 295 295 294 296 296 298 297 297 299 298 300 298 298 299 299 301 300 303 303 303 303 304 305 306 308 308 310 308 308 309 307 308 308 309 310 311 311
295 296 296 296 295 295 295 296 295 295 295 296 296 298 298 300 301 299 299 300 299 299 301 301 302 302 303 303 304 304 305 305 305 306 307 307 307 309 309 309 310 309 308 306
296 296 296 296 296 295 296 296 296 295 295 297 297 298 297 299 298 301 301 300 301 300 300 301 302 302 302 303 303 303 303 304 304 304 305 307 308 309 309 308 308 307 306 304
299 297 296 296 296 296 295 297 298 297 296 296 298 297 300 301 301 302 302 301 301 301 301 301 302 303 303 303 304 304 304 304 304 304 307 308 307 308 309 308 308 307 306 303
299 297 297 297 297 297 297 296 298 297 297 297 298 298 299 302 302 302 302 302 302 302 301 301 302 301 302 304 304 303 304 305 305 305 306 306 306 305 307 307 307 306 303 302
298 296 297 297 297 297 297 297 297 297 298 299 298 300 296 302 303 301 300 302 300 298 300 303 299 301 301 301 299 299 300 300 302 302 302 302 303 303 303 304 306 305 303 300
297 297 297 297 297 298 298 296 297 297 299 297 299 300 299 302 300 300 303 298 298 300 301 301 302 304 299 298 297 297 297 298 297 298 299 299 300 300 301 302 302 300 298 297
298 298 298 298 298 298 299 299 298 298 299 300 300 302 301 302 302 301 299 298 299 300 302 303 302 297 295 294 294 294 293 293 292 293 293 295 297 297 299 299 298 297 295 293
298 299 299 299 298 299 299 299 300 297 301 302 303 301 302 302 302 300 299 299 297 301 296 300 297 293 292 291 291 291 290 289 288 288 289 291 293 294 295 296 295 294 294 292
299 299 300 300 298 297 298 299 299 302 303 302 302 302 299 301 298 299 299 296 301 302 301 297 293 291 290 289 288 288 287 287 286 285 286 287 289 290 290 290 290 290 289 286
296 298 298 297 296 297 297 298 298 299 302 303 301 300 300 296 297 298 297 301 301 299 293 293 290 289 288 288 287 286 285 285 284 284 284 285 285 286 286 285 286 286 285 283
292 293 296 296 296 295 296 296 295 297 299 301 300 300 299 294 296 299 299 299 295 291 291 289 288 288 287 287 286 285 285 284 282 282 282 282 282 283 282 282 282 282 282 281
292 291 290 293 292 292 292 292 292 295 298 300 299 299 297 297 296 297 294 291 289 290 288 287 286 286 286 286 285 284 284 283 281 281 280 280 279 279 280 279 278 278 278 278

GFSNW_850_thetae_108.txt.gz
Theta_e
294 294 293 292 292 293 293 295 294 298 299 298 299 299 299 300 300 300 301 300 300 301 300 301 300 302 302 302 303 302 303 302 302 304 304 306 312 312 313 315 313 314 315 314
293 292 292 291 293 294 294 294 294 295 295 289 300 299 300 300 300 301 301 300 302 301 300 300 301 301 302 302 303 304 303 302 307 303 305 308 309 309 307 313 313 315 314 312
293 292 292 291 293 294 294 294 291 296 298 297 296 298 298 299 298 300 300 301 302 301 300 300 300 301 302 302 302 305 305 304 304 304 307 304 303 304 305 311 311 313 311 315
292 291 291 293 292 292 294 293 293 295 290 293 297 298 298 299 300 299 301 302 302 301 299 300 300 300 304 304 305 305 304 303 304 304 304 303 303 303 303 304 307 311 310 310
291 291 291 293 292 292 293 294 294 295 296 296 296 297 299 298 299 301 302 301 301 302 302 300 300 304 304 305 304 304 304 304 304 304 304 304 304 303 303 303 304 305 307 308
291 293 291 292 292 293 293 294 293 293 293 294 295 296 299 300 300 300 301 301 302 302 302 303 303 304 304 303 303 303 304 304 304 304 304 305 305 304 304 304 304 305 305 308
292 293 291 291 292 292 293 294 294 295 294 295 296 298 298 300 300 300 300 300 302 301 302 302 302 302 302 302 302 303 303 304 303 304 305 304 303 305 306 305 306 309 313 315
293 293 292 291 292 293 293 293 293 293 296 297 298 298 299 299 299 299 300 300 301 301 302 296 300 299 301 301 301 301 302 303 300 300 304 304 304 307 310 310 309 314 315 314
293 293 292 293 293 293 293 293 293 294 294 295 296 296 298 298 298 297 299 300 301 301 296 296 300 301 302 300 305 304 302 302 302 302 304 307 307 308 308 309 312 312 313 313
293 294 293 293 293 293 293 293 293 294 295 295 296 295 297 298 297 296 299 298 301 301 295 298 298 301 302 303 305 306 305 303 303 303 300 305 306 306 306 311 312 312 311 311
292 293 294 294 293 294 294 294 293 294 295 295 295 295 296 296 298 297 299 298 300 300 297 300 300 301 303 304 305 306 307 305 303 304 301 304 308 310 310 309 310 310 310 309
291 292 292 293 293 293 294 294 294 293 294 295 296 296 296 297 297 298 298 299 300 299 299 299 299 304 303 305 306 304 307 307 305 301 303 306 309 309 310 309 308 308 308 308
292 291 291 292 292 292 293 294 294 294 294 294 295 295 295 295 296 298 298 298 299 300 299 298 298 300 302 303 304 304 305 304 308 307 307 307 309 309 309 309 308 307 308 311
291 290 291 292 292 294 294 294 294 294 294 296 295 296 296 296 297 297 297 297 298 298 299 298 298 298 301 302 303 304 304 304 306 307 305 306 307 307 308 308 308 308 310 309
290 291 291 292 294 294 294 295 294 294 294 294 296 295 296 296 299 298 299 297 298 299 299 300 300 300 301 300 303 304 306 306 305 306 306 306 307 307 308 308 308 309 309 308
292 292 293 293 295 295 295 295 294 294 294 295 295 296 297 296 299 301 299 299 298 298 299 300 300 301 302 303 304 304 304 303 302 304 304 305 306 308 309 309 308 307 306 304
293 294 294 294 296 295 296 295 295 295 295 296 295 295 297 298 298 297 299 299 300 299 299 299 300 301 302 300 301 302 302 303 304 306 305 307 308 308 307 307 305 305 305 303
295 295 295 296 296 296 295 296 297 295 295 295 295 295 298 299 299 300 300 301 300 300 300 301 301 302 301 303 302 301 301 304 305 305 307 306 306 308 308 308 305 305 304 302
297 297 296 296 296 296 295 297 297 295 296 294 295 297 297 301 301 301 301 301 301 300 300 302 302 301 303 301 298 297 297 297 298 302 304 304 302 303 306 306 306 305 303 300
298 297 296 296 296 297 295 296 295 297 297 297 296 297 296 301 302 301 300 301 299 302 301 301 301 302 298 298 296 294 294 295 296 297 297 298 299 300 301 302 303 302 300 298
296 297 297 297 296 297 296 296 296 296 297 296 297 298 297 300 297 297 301 296 297 299 299 301 302 302 297 295 294 293 294 293 292 293 292 294 295 297 299 299 298 298 297 296
297 297 297 297 297 297 297 297 296 297 297 297 297 298 299 301 302 298 297 296 296 297 300 303 303 295 292 292 291 290 290 290 288 288 288 291 293 293 295 296 296 295 294 295
297 298 298 298 297 298 297 298 295 295 296 300 301 297 301 302 301 299 298 295 294 297 291 299 295 291 290 289 289 288 288 287 287 287 289 289 290 291 292 293 293 293 292 291
299 298 299 297 296 297 295 296 296 299 302 301 301 299 301 301 296 294 292 294 299 300 296 295 291 289 288 288 287 286 285 285 285 285 286 287 288 288 288 289 289 289 288 286
296 297 293 292 296 297 298 299 298 298 301 301 300 299 300 298 295 298 295 300 299 297 290 288 288 288 287 287 286 285 285 284 283 283 284 284 285 285 285 285 285 285 285 283
292 292 294 296 296 294 295 296 295 297 300 300 299 297 295 292 291 298 298 298 294 287 285 288 287 286 286 286 285 285 284 283 282 282 282 282 282 282 282 282 282 282 282 281
291 289 290 292 291 290 291 291 293 297 299 298 299 298 294 293 298 294 292 286 286 288 287 286 286 285 285 285 284 283 283 282 281 281 280 280 280 280 280 280 279 279 279 279

GFSNW_850_thetae_111.txt.gz
Theta_e
294 293 293 293 292 293 294 294 287 296 295 297 298 296 298 299 299 299 299 300 300 300 299 300 300 300 301 301 302 302 302 301 302 302 303 305 308 312 312 314 314 313 313 311
293 293 292 292 291 293 294 294 293 293 294 287 287 297 298 298 297 300 300 300 300 300 300 301 300 301 301 302 302 302 303 302 302 302 305 305 308 306 305 311 312 312 315 312
294 292 292 291 291 293 294 293 286 294 296 296 295 294 296 298 299 299 299 300 300 300 301 301 300 301 302 302 303 305 305 302 301 301 305 303 302 302 302 309 307 308 309 307
292 292 291 291 292 292 293 293 289 294 289 292 296 296 296 296 297 299 299 300 301 301 302 301 299 300 303 303 304 304 303 302 303 302 303 303 302 302 302 302 304 305 303 305
292 291 291 291 293 293 293 293 292 294 295 294 294 295 296 297 298 299 300 301 301 301 303 301 301 302 303 303 303 303 303 304 303 303 303 303 303 303 303 303 303 302 302 302
291 291 292 291 292 293 293 293 293 293 293 292 293 293 296 298 301 300 300 301 301 302 302 301 302 302 302 302 302 302 302 303 303 301 303 303 302 302 303 302 302 302 302 303
291 291 293 291 292 293 293 293 293 294 293 294 295 295 297 299 299 300 300 300 301 301 301 302 301 301 301 301 301 301 302 303 301 303 303 301 301 302 302 304 304 307 303 307
292 292 293 292 291 292 293 292 293 293 289 294 295 298 297 298 298 299 299 299 299 301 301 297 300 299 300 300 299 300 301 302 298 298 302 300 300 301 306 310 310 310 308 313
292 292 293 293 292 292 293 293 293 293 294 293 296 296 296 298 297 297 298 298 299 301 295 295 299 300 301 298 300 301 301 301 302 300 301 299 302 307 307 307 309 311 311 312
292 292 293 293 293 293 294 293 293 293 295 295 295 295 296 297 297 295 297 298 300 299 291 297 298 300 301 302 301 296 304 304 303 301 297 301 303 304 307 306 311 309 311 311
292 292 293 294 294 294 294 293 293 293 293 294 294 294 295 295 296 295 297 294 297 296 300 297 299 301 303 305 304 305 305 305 304 303 299 301 307 308 309 309 308 310 310 308
291 291 292 292 294 294 294 294 294 294 294 293 294 294 295 296 296 296 297 297 298 298 298 298 299 300 302 302 305 304 304 305 305 302 301 304 307 309 308 308 308 308 308 307
290 291 291 292 292 293 293 293 294 294 294 293 293 294 295 295 295 295 296 297 298 299 299 298 297 298 299 301 303 303 303 302 307 305 306 305 307 307 308 309 309 308 308 310
291 292 292 291 291 292 292 293 294 293 294 294 295 295 295 295 296 296 296 296 297 298 298 298 296 298 299 302 302 302 302 304 304 307 304 304 306 305 306 306 307 307 308 307
290 290 291 291 291 292 293 293 293 294 294 292 294 293 294 295 296 295 296 297 296 296 298 299 299 299 300 299 301 304 304 304 304 304 303 303 304 305 306 307 307 306 306 305
290 291 291 291 292 293 294 294 294 294 294 294 294 295 294 295 296 297 299 297 297 297 298 298 299 300 301 302 302 303 302 303 304 303 304 305 307 306 306 306 304 304 304 302
290 292 292 292 293 294 295 295 294 294 294 295 294 293 297 297 297 297 298 299 298 297 297 298 298 299 300 300 299 300 299 301 302 305 306 306 306 304 305 307 306 303 303 300
292 292 293 294 294 294 295 295 296 295 294 294 294 294 297 297 298 300 300 299 299 299 299 299 300 300 300 302 300 297 296 299 302 300 302 302 303 304 304 303 303 303 302 300
294 294 294 295 294 295 296 295 295 295 295 294 294 295 296 300 301 300 301 301 300 300 299 300 301 301 302 300 297 294 293 294 293 296 297 299 299 300 301 301 302 301 299 297
296 295 294 295 296 296 295 296 296 295 295 296 295 296 294 300 301 301 300 299 299 301 301 301 301 301 296 295 293 292 291 292 292 292 293 292 292 295 296 297 298 298 297 296
296 295 296 296 296 295 295 294 294 295 295 295 296 297 295 298 298 298 299 297 298 299 299 301 302 301 295 292 292 290 289 289 289 288 288 288 288 290 292 295 296 296 295 294
297 297 296 296 296 296 295 294 294 296 296 296 296 297 297 299 301 297 298 298 294 297 299 302 301 293 290 290 289 288 288 287 287 287 286 288 289 289 290 291 293 293 293 293
296 297 298 297 296 297 294 295 297 296 295 296 298 298 298 299 300 297 298 299 295 295 296 300 294 290 289 288 288 287 286 286 286 286 287 287 288 288 289 290 290 290 290 290
298 298 298 297 295 296 294 295 296 297 297 299 300 298 300 300 295 295 296 294 297 299 297 295 289 289 288 287 286 286 285 285 285 285 285 285 285 286 286 287 287 287 287 287
296 297 296 295 294 296 297 298 297 297 298 300 299 299 299 297 294 298 294 298 299 295 289 284 287 287 287 286 286 285 284 283 283 283 284 284 284 284 284 284 284 284 284 283
292 292 294 295 296 294 295 296 296 297 299 299 299 294 290 296 291 298 297 297 293 284 283 287 286 286 285 285 284 284 283 282 282 281 281 281 281 281 281 281 281 281 281 281
290 287 289 291 290 289 290 291 293 296 298 297 296 298 291 292 296 292 288 282 282 286 287 286 285 285 284 284 283 283 282 281 281 280 280 280 279 279 279 280 279 279 279 279

GFSNW_850_thetae_114.txt.gz
Theta_e
293 293 292 292 292 292 293 293 285 295 295 296 296 295 297 298 298 297 299 299 299 299 299 299 299 299 300 301 302 301 302 302 304 302 303 304 310 311 311 311 313 312 313 311
292 292 292 292 291 292 293 293 293 293 294 286 286 293 297 297 297 296 300 300 299 299 299 300 300 300 301 301 302 302 303 304 301 303 306 303 306 303 308 309 309 310 310 309
293 293 292 292 291 292 293 293 286 293 295 294 295 294 295 297 297 297 298 299 299 299 299 299 300 301 301 302 303 305 305 303 302 301 303 302 301 302 302 307 304 305 308 305
292 292 291 290 291 292 293 293 287 292 290 291 295 294 295 295 295 297 298 299 299 300 301 301 301 301 299 301 304 303 303 302 301 302 302 302 301 302 301 301 303 303 301 300
292 292 291 291 292 293 292 292 292 293 293 294 294 293 294 295 295 298 298 300 300 301 301 301 302 301 301 300 302 302 302 303 303 302 302 302 302 302 301 302 302 301 301 301
292 291 291 292 291 293 293 292 293 292 292 292 293 292 293 296 296 299 299 300 300 301 301 300 301 301 301 300 301 301 301 301 303 301 302 302 301 300 301 301 301 301 302 302
291 291 291 293 291 292 293 292 293 293 290 292 294 294 295 297 298 299 299 299 300 300 299 301 300 300 300 300 300 300 301 302 301 302 302 299 298 300 300 301 301 301 302 302
291 291 291 292 292 291 292 293 292 293 289 291 293 295 296 296 297 298 298 298 297 299 300 296 300 299 298 299 298 298 300 301 298 297 301 299 299 299 303 308 306 305 305 307
291 291 292 293 293 291 291 292 293 292 291 291 293 296 295 296 296 296 297 297 296 299 296 295 299 299 300 297 298 300 300 300 301 300 301 298 299 302 307 306 303 306 306 310
291 292 292 293 293 292 292 292 293 293 292 293 294 295 295 295 295 294 295 296 297 298 292 297 299 300 299 301 300 297 304 303 303 303 302 301 300 301 304 305 305 304 306 309
291 292 292 292 293 293 293 293 293 293 293 293 293 293 294 295 295 294 295 293 295 293 297 297 299 301 302 303 302 303 304 304 304 304 302 299 305 306 306 308 307 307 308 309
291 291 292 292 294 293 294 293 293 293 293 293 293 293 294 293 293 296 296 295 297 297 291 293 297 298 300 301 302 303 303 303 304 303 301 303 304 306 307 306 307 308 306 306
291 291 291 291 292 293 294 294 293 293 293 294 294 294 294 294 294 294 294 295 296 298 299 298 298 297 298 300 302 303 302 301 304 304 305 304 303 305 305 306 305 307 307 309
291 291 290 291 292 292 293 294 293 293 293 293 293 293 293 294 295 296 296 295 296 297 298 297 297 297 298 300 300 301 302 303 303 304 304 303 306 306 305 305 306 306 306 306
292 292 291 292 292 291 293 293 292 292 293 292 293 293 294 294 294 294 295 296 295 295 295 296 298 298 298 299 299 303 302 303 304 304 302 302 304 304 304 303 301 301 302 301
292 291 290 290 291 291 293 293 293 293 292 294 293 293 294 294 294 295 296 295 295 296 296 297 298 298 300 301 302 300 298 298 299 300 301 304 301 301 302 303 301 299 301 301
291 291 290 291 291 291 293 294 294 294 293 294 293 292 296 297 297 295 296 297 296 297 297 297 297 298 298 299 299 299 297 297 298 299 301 300 300 301 301 300 299 299 298 296
290 289 291 292 291 292 293 294 295 294 294 294 293 292 294 296 298 298 298 298 297 298 298 298 299 299 299 301 299 296 294 297 297 296 295 295 296 299 299 298 298 298 297 296
291 290 292 293 293 293 294 294 296 294 295 293 293 293 293 298 300 299 299 299 299 298 299 300 300 300 302 298 295 293 291 291 291 292 293 293 293 292 293 296 296 296 295 294
291 293 293 294 294 294 294 295 294 295 295 294 294 294 293 298 300 300 300 299 301 301 301 300 301 299 295 293 292 291 290 289 289 290 290 289 289 289 290 291 292 293 293 293
293 294 294 295 294 295 295 294 295 295 295 294 295 295 295 297 296 298 299 299 298 300 300 301 302 299 294 291 290 289 288 287 287 287 287 286 286 287 288 290 290 290 291 291
295 295 296 295 296 295 294 294 292 293 295 295 295 296 296 297 298 298 298 300 295 299 298 301 301 292 289 289 288 287 287 286 286 285 286 286 284 286 287 288 289 289 288 289
296 296 296 296 295 296 292 293 294 295 295 295 295 297 297 297 299 297 298 299 296 295 297 300 293 290 288 287 287 286 286 285 285 285 285 285 285 285 286 286 287 287 287 287
297 297 297 294 294 295 294 294 294 296 296 296 298 296 297 299 294 296 297 294 296 300 298 295 289 287 287 286 286 286 285 284 284 284 283 283 283 283 284 284 284 285 285 285
297 297 294 295 293 295 295 296 296 296 296 297 298 296 299 294 295 296 293 297 298 294 289 284 287 286 286 285 285 284 283 283 283 283 283 282 282 281 282 282 282 282 282 283
292 292 293 294 296 294 295 296 295 296 297 298 299 292 293 296 293 298 296 296 291 284 284 286 286 285 285 284 283 283 282 282 281 281 281 280 280 280 280 280 280 280 280 281
289 286 289 290 290 289 289 291 293 295 297 295 294 291 293 292 294 290 285 281 281 285 286 285 285 284 284 284 283 283 282 282 281 280 280 279 279 278 278 279 279 278 279 279

GFSNW_850_thetae_117.txt.gz
Theta_e
293 293 293 292 292 291 292 293 290 294 295 294 293 295 297 297 297 297 297 299 299 299 299 299 299 299 300 300 300 301 302 303 304 303 306 306 310 312 312 313 313 313 313 312
292 292 292 292 291 291 292 293 293 293 294 293 292 293 296 296 296 296 298 299 299 299 299 299 299 300 301 300 301 302 304 303 303 306 307 305 304 302 309 310 309 312 313 309
292 293 292 292 291 292 293 293 289 293 295 294 294 295 294 296 295 295 295 297 298 298 299 299 300 300 300 300 300 302 304 303 303 303 303 303 302 303 303 307 306 306 307 307
292 293 291 290 291 292 292 293 290 292 291 293 294 294 294 294 295 295 297 298 299 299 301 300 300 300 301 300 300 303 303 301 301 301 302 302 302 302 302 302 302 302 303 302
292 292 291 290 292 292 292 292 292 293 293 293 294 293 294 294 295 296 298 299 299 299 300 301 301 302 301 301 301 302 302 301 302 302 302 301 302 303 303 303 303 303 303 303
292 292 291 291 292 293 293 292 292 292 291 292 293 293 294 294 295 296 297 299 299 300 301 299 299 300 301 301 301 302 302 301 300 299 300 301 301 301 302 302 302 302 302 302
292 291 291 291 292 292 293 292 292 292 292 293 294 294 294 295 296 297 297 298 298 298 298 300 299 299 300 300 301 301 302 302 302 301 301 299 300 301 301 301 302 302 302 303
292 291 290 292 293 291 292 292 292 292 290 292 293 293 295 295 296 297 297 297 296 297 298 299 300 300 299 299 299 299 301 302 302 301 301 300 300 300 300 300 302 305 306 308
293 292 291 291 293 292 291 292 293 292 291 292 293 294 293 296 296 296 296 295 296 297 297 299 300 300 300 299 300 300 299 301 302 301 301 300 300 304 305 305 302 306 305 305
293 291 291 292 293 293 291 291 292 293 292 292 293 293 295 294 295 295 294 295 296 296 297 299 300 300 300 302 303 303 304 303 303 303 303 303 301 304 304 301 305 307 305 303
292 291 292 292 293 293 293 292 292 293 292 292 292 293 293 293 293 295 294 295 295 295 297 298 298 299 298 299 300 301 304 304 306 304 304 303 305 305 306 307 305 304 306 306
291 291 292 292 293 293 293 293 293 293 293 293 293 293 293 293 293 294 294 295 295 296 297 296 297 298 299 299 301 303 303 302 303 304 303 303 304 304 306 307 305 305 307 307
291 291 292 292 292 294 294 293 294 293 293 293 293 293 293 293 293 293 293 294 294 297 298 298 298 298 298 299 300 301 301 301 304 304 305 305 303 304 305 305 305 305 304 304
291 291 291 292 292 292 293 293 293 293 293 292 292 293 293 293 293 293 295 294 294 297 296 297 297 298 298 299 299 300 302 302 303 304 303 301 303 301 302 301 301 301 301 299
291 291 291 291 291 292 293 293 293 293 292 293 293 292 293 294 294 293 293 294 295 294 295 296 297 298 299 299 300 302 300 301 301 303 298 299 298 299 298 301 301 300 297 296
291 291 291 291 292 292 291 292 292 293 292 292 293 293 293 294 294 294 294 294 294 295 295 296 297 297 298 299 301 300 298 296 295 296 296 297 299 298 298 299 299 300 298 297
291 292 291 291 290 291 292 293 294 294 292 293 293 292 294 295 296 295 294 295 294 295 296 297 297 298 298 299 299 298 295 294 294 293 295 296 295 295 296 296 297 297 297 296
292 291 291 291 291 291 292 292 294 294 293 293 293 293 293 295 297 297 296 296 295 296 297 297 298 298 298 300 297 294 292 292 292 291 292 291 292 292 293 293 294 295 295 294
291 291 290 292 292 293 292 292 293 294 294 292 292 293 294 297 299 299 299 298 299 298 298 299 300 300 302 297 294 291 290 289 289 289 290 289 289 290 291 291 290 290 292 292
290 290 291 293 292 292 293 294 294 293 294 294 293 292 294 296 298 299 299 298 301 301 301 299 301 298 294 292 290 289 288 288 287 287 287 287 287 287 287 288 289 288 289 290
291 292 294 294 294 294 294 295 295 294 294 293 293 293 294 295 297 298 298 300 300 301 301 303 302 298 293 290 289 288 287 286 286 285 285 285 284 284 285 286 288 289 289 289
291 294 294 295 295 295 295 293 293 293 295 294 294 294 294 295 296 298 299 301 298 300 298 302 302 292 289 288 287 287 286 285 285 285 285 285 284 285 285 286 286 287 287 287
294 295 295 295 295 295 294 294 293 294 294 294 295 296 296 296 297 297 298 299 299 296 298 300 293 289 287 287 286 285 285 284 284 284 283 283 283 283 284 284 285 285 285 286
294 295 296 296 293 295 294 295 296 294 295 295 296 296 296 297 298 298 298 297 297 300 300 297 290 287 286 286 285 284 284 283 282 282 282 282 282 282 282 282 283 283 283 284
295 296 295 294 293 294 294 295 295 295 295 296 297 297 297 296 297 297 295 297 298 296 294 288 288 286 285 285 284 284 283 283 282 281 281 281 280 280 280 281 281 281 281 281
292 292 293 293 295 295 296 296 294 295 295 298 298 294 297 297 296 298 298 297 296 289 287 286 285 285 284 284 283 283 282 282 281 281 280 280 279 279 279 279 279 279 279 280
289 287 289 291 291 290 290 292 292 296 297 299 294 294 296 294 296 294 287 289 285 285 285 285 285 285 284 283 283 282 282 281 280 280 279 278 278 278 277 277 278 277 278 278

GFSNW_850_thetae_120.txt.gz
Theta_e
292 294 294 292 291 291 292 293 299 294 294 299 299 299 298 296 297 297 297 299 300 300 300 300 300 300 301 301 302 303 303 304 306 306 307 308 309 312 314 317 314 313 313 313
293 292 292 292 291 292 292 296 295 294 296 300 298 297 297 297 298 298 298 298 298 299 299 299 299 300 301 301 302 303 304 303 303 304 308 308 307 306 307 309 312 314 314 313
292 292 292 291 291 292 292 295 298 296 296 296 297 296 296 296 295 296 296 297 299 300 300 300 300 301 301 301 301 302 302 303 303 303 306 305 304 304 305 305 308 310 311 311
292 293 292 291 291 292 292 294 296 295 298 297 296 296 295 296 297 297 297 299 300 300 301 301 301 301 302 303 302 302 303 302 301 301 302 302 303 304 304 304 304 305 307 306
293 293 291 290 292 292 293 295 296 294 295 295 295 295 296 296 297 297 299 299 300 301 301 302 303 302 303 303 302 302 303 302 302 301 301 302 303 303 303 304 304 305 305 305
293 292 291 291 292 293 294 292 293 295 294 295 296 297 296 296 297 298 298 299 300 300 300 299 299 300 301 302 304 304 304 302 302 302 301 301 301 302 302 303 303 304 304 305
292 291 291 291 292 293 293 293 294 295 296 295 295 295 295 297 297 298 298 298 299 298 298 300 301 302 302 302 303 303 304 303 302 303 301 302 301 302 302 302 302 303 303 304
292 291 291 291 293 292 293 292 294 295 296 295 295 295 296 296 297 298 298 297 297 298 300 303 301 301 301 301 302 302 303 303 303 303 302 301 301 302 302 302 302 303 304 306
293 292 290 291 294 292 291 292 292 294 296 295 295 295 295 297 298 298 297 297 297 298 301 302 301 301 301 302 302 302 302 303 303 302 303 302 302 303 303 305 304 308 308 308
294 293 290 292 293 294 291 293 292 294 295 294 294 296 297 296 297 298 297 296 298 297 300 302 301 301 301 302 303 303 303 306 305 303 306 304 303 304 304 304 308 307 306 302
294 293 291 291 293 294 293 294 291 294 294 295 294 295 295 295 295 297 297 298 298 298 299 300 300 301 300 300 300 302 304 305 307 306 306 306 305 304 306 307 307 305 303 304
293 292 291 292 292 293 293 294 292 293 293 295 293 293 294 294 294 295 295 296 296 297 300 300 300 301 300 299 302 302 304 303 304 306 306 306 303 305 305 306 307 305 304 304
293 292 291 292 292 293 293 294 293 293 293 293 294 295 295 293 293 294 295 296 295 297 298 298 299 299 299 300 301 301 301 301 305 304 303 301 299 299 301 303 300 299 299 300
292 291 292 292 292 293 294 294 293 293 293 295 295 293 293 293 293 294 294 295 296 296 297 297 298 298 298 300 299 300 302 303 302 304 300 300 299 297 297 298 298 298 298 297
291 291 292 292 292 293 293 292 294 294 294 295 295 294 295 294 294 294 294 295 295 296 297 298 299 298 299 300 300 303 301 300 301 302 297 297 298 297 297 296 295 295 297 297
290 291 292 292 292 292 293 294 293 293 293 294 296 295 295 295 295 295 295 295 295 296 296 297 298 298 299 300 301 300 298 296 293 296 295 297 296 297 295 297 295 294 295 294
291 292 291 291 291 292 292 294 294 293 293 293 295 296 295 294 296 296 295 296 296 296 296 297 297 298 299 301 300 297 296 295 294 293 294 296 294 294 294 294 294 294 293 292
292 291 292 291 291 292 292 292 294 293 293 293 294 296 296 296 299 299 297 296 295 296 298 299 299 299 299 301 299 296 293 294 293 292 292 292 292 292 292 293 293 294 293 290
292 292 291 291 291 292 292 292 292 292 293 294 293 296 298 297 299 299 298 297 299 298 299 300 300 302 302 297 296 293 291 290 289 291 291 291 290 290 290 291 291 291 291 290
292 291 291 292 293 292 292 293 294 293 293 294 295 295 298 297 299 300 299 298 302 302 301 300 301 302 294 293 291 290 289 288 287 289 289 288 289 288 288 288 288 288 287 287
291 290 292 293 292 293 293 294 295 294 295 295 295 295 297 296 298 298 299 302 302 304 303 303 304 301 294 291 290 289 287 286 285 285 285 285 286 285 286 286 286 286 285 285
291 292 293 293 294 294 296 296 296 296 296 297 295 295 295 296 297 299 300 301 301 303 301 303 304 294 290 290 288 287 286 284 284 283 283 283 283 283 283 284 283 284 285 286
291 294 295 295 295 298 297 296 295 297 296 296 296 297 296 297 297 299 300 302 301 299 301 302 296 291 289 288 287 286 284 284 283 282 282 282 282 283 283 284 284 284 284 284
292 294 297 296 297 298 297 297 297 296 297 297 297 297 298 298 298 300 301 301 299 301 301 300 293 290 288 287 286 285 284 283 283 282 282 282 281 281 281 282 282 283 283 283
292 295 298 298 297 296 296 296 296 295 297 297 298 298 299 300 301 300 299 299 300 301 300 294 290 288 286 286 285 284 283 282 282 281 281 280 280 280 280 280 280 281 281 281
293 292 296 295 297 297 296 296 295 295 297 298 300 300 300 301 301 300 300 300 300 297 292 289 288 286 284 284 284 283 283 282 281 281 280 280 279 279 279 279 279 279 279 279
291 291 289 290 294 296 292 293 292 295 297 300 300 300 301 299 300 300 296 299 292 289 288 287 286 285 284 284 283 283 282 281 281 280 279 279 278 277 277 276 277 277 277 277

GFSNW_850_thetae_123.txt.gz
Theta_e
294 292 294 292 291 292 295 298 304 295 300 303 302 303 300 297 299 299 300 300 301 301 301 301 301 301 302 301 302 303 303 305 303 304 307 309 310 312 313 319 314 314 314 314
291 294 293 292 291 293 297 300 299 297 301 305 303 300 300 298 299 299 299 299 299 300 300 301 301 301 301 301 302 303 304 304 305 304 304 310 310 308 309 310 312 314 317 317
294 293 292 291 291 292 298 300 302 299 300 300 301 300 298 298 297 297 298 299 300 301 302 302 302 302 302 302 303 303 303 304 304 304 304 306 305 308 307 306 310 312 315 316
293 293 292 291 292 293 297 300 300 300 303 301 300 299 298 299 299 298 299 300 301 302 302 302 302 302 303 302 303 304 304 303 304 303 303 303 303 304 306 306 307 308 309 310
293 294 292 290 292 293 298 298 300 298 299 298 299 296 299 298 299 299 300 301 301 302 301 302 302 302 302 303 304 304 303 305 304 303 303 303 302 303 304 305 305 306 307 307
294 294 291 290 292 297 298 297 298 300 297 299 300 300 298 298 299 300 299 301 302 301 301 300 300 301 302 303 304 304 304 304 303 303 303 303 302 302 303 304 304 305 305 306
293 292 290 292 292 296 297 298 297 300 300 300 299 298 297 299 299 300 299 299 300 299 299 300 302 303 303 304 304 304 304 304 304 305 304 303 303 303 303 303 303 304 304 305
294 292 291 292 292 294 297 297 298 299 300 298 297 297 298 298 299 300 299 299 299 299 300 303 303 303 303 303 303 303 303 303 303 304 304 304 303 305 305 305 305 305 305 306
293 292 291 292 292 293 296 296 297 298 299 298 296 297 298 299 300 300 299 299 298 300 302 303 303 303 302 303 303 303 303 304 305 304 306 304 305 304 305 306 306 309 309 309
293 293 290 291 294 291 296 296 296 297 298 297 296 298 299 298 299 300 299 299 299 299 302 303 302 301 302 302 303 302 304 305 307 306 307 305 307 306 305 307 309 308 306 304
294 294 292 292 293 293 295 296 295 296 297 297 296 297 297 298 298 300 299 300 300 301 301 302 301 302 302 302 301 303 304 304 306 307 308 308 303 306 309 307 306 305 304 301
295 294 293 291 292 294 295 296 295 295 296 297 297 297 296 296 296 297 298 298 298 298 301 302 302 302 302 301 303 303 304 303 304 305 305 303 299 299 299 299 304 301 300 300
294 294 293 291 292 293 294 295 294 294 294 295 296 297 297 296 296 296 297 298 298 298 299 299 301 300 300 302 302 302 302 302 304 304 302 300 298 297 297 297 297 298 299 300
294 294 293 292 292 292 293 295 295 295 296 297 298 296 296 296 296 296 297 297 297 297 297 299 300 300 300 300 301 302 303 303 301 304 301 299 300 297 297 297 296 297 298 299
294 292 292 292 292 292 294 295 295 295 296 298 297 296 297 296 296 296 296 297 297 297 298 299 300 299 300 301 301 303 301 300 301 302 299 297 298 297 297 297 297 296 296 296
293 291 292 292 292 294 295 293 294 294 293 296 297 297 297 296 296 296 297 297 297 297 297 298 299 298 300 302 302 301 299 297 296 297 296 297 297 297 295 296 296 296 295 294
291 291 292 292 292 293 295 296 295 293 294 295 296 298 297 297 298 298 298 297 297 297 297 297 298 299 300 301 302 300 298 297 297 295 295 296 295 294 294 294 295 295 294 293
291 291 292 292 292 293 294 293 294 293 294 294 295 298 298 298 300 300 299 297 296 296 298 299 300 300 301 302 300 298 296 296 296 294 294 294 294 294 293 293 293 294 293 292
291 292 292 292 293 293 294 294 293 293 294 296 295 298 300 299 300 301 300 298 299 299 300 300 301 303 303 300 298 296 294 293 292 293 294 293 293 292 292 292 291 290 290 290
292 292 292 292 292 292 293 293 294 293 293 293 296 297 300 298 300 301 300 299 302 303 302 302 303 303 296 295 294 293 292 291 290 291 291 290 290 290 289 290 289 288 288 287
292 292 293 294 292 293 294 295 295 295 296 296 296 296 299 298 300 300 299 304 304 304 304 304 305 303 295 293 292 292 290 289 288 288 288 287 287 287 287 287 287 286 285 283
293 293 293 293 294 294 296 297 297 298 297 298 298 298 297 298 298 299 300 301 303 303 302 303 304 296 293 293 291 290 288 287 286 286 285 285 285 284 284 284 283 282 282 281
292 293 294 294 295 297 297 297 298 299 298 299 298 298 297 298 298 299 300 301 302 302 302 303 298 293 292 291 290 289 286 285 285 284 284 282 282 282 282 281 281 281 280 281
293 294 297 297 298 298 299 299 299 298 299 299 299 297 299 299 299 301 300 302 302 303 303 303 297 293 291 290 288 288 287 284 283 283 282 282 282 281 280 281 280 279 279 280
293 294 297 298 298 299 299 299 299 299 300 299 299 299 300 301 300 301 301 302 302 302 303 297 292 290 289 288 287 286 285 283 283 282 282 281 280 280 279 278 278 278 277 278
292 294 297 297 299 298 296 297 298 297 299 299 300 300 299 301 302 302 302 302 302 300 296 292 290 288 287 286 285 284 283 283 282 281 280 279 279 279 278 277 277 277 276 276
293 295 292 293 295 296 295 296 296 296 298 300 300 300 301 301 301 301 301 301 297 292 291 289 288 287 286 284 284 283 283 282 281 280 279 278 278 278 279 278 278 276 276 275